| time (UTC) | temp F | wind direction | speed MPH | gust MPH | rain 1hr in | rain 24hr in | rain mn in | humidity % | barometer mb |
| 20260831112400 | 73 | 225 | 11.0 | 22.0 | 0.00 | 0.14 | 0.14 | 56 | 1016.4 |
| 20260831112300 | 73 | 252 | 10.0 | 22.0 | 0.00 | 0.14 | 0.14 | 57 | 1016.5 |
| 20260831112201 | 73 | 246 | 10.0 | 22.0 | 0.00 | 0.14 | 0.14 | 60 | 1016.4 |
| 20260831112100 | 73 | 207 | 9.0 | 20.0 | 0.00 | 0.14 | 0.14 | 59 | 1016.4 |
| 20260831112000 | 73 | 253 | 9.0 | 20.0 | 0.00 | 0.14 | 0.14 | 60 | 1016.3 |
| 20260831111900 | 73 | 248 | 10.0 | 20.0 | 0.00 | 0.14 | 0.14 | 60 | 1016.4 |
| 20260831111801 | 73 | 236 | 10.0 | 20.0 | 0.00 | 0.14 | 0.14 | 60 | 1016.3 |
| 20260831111701 | 73 | 244 | 9.0 | 20.0 | 0.00 | 0.14 | 0.14 | 59 | 1016.3 |
| 20260831111600 | 73 | 262 | 9.0 | 20.0 | 0.00 | 0.14 | 0.14 | 60 | 1016.4 |
| 20260831111501 | 73 | 257 | 9.0 | 20.0 | 0.00 | 0.14 | 0.14 | 59 | 1016.4 |
| 20260831111401 | 73 | 222 | 9.0 | 18.0 | 0.00 | 0.14 | 0.14 | 62 | 1016.4 |
| 20260831111302 | 72 | 292 | 9.0 | 18.0 | 0.00 | 0.14 | 0.14 | 62 | 1016.4 |
| 20260831111201 | 72 | 229 | 9.0 | 18.0 | 0.00 | 0.14 | 0.14 | 62 | 1016.3 |
| 20260831111101 | 72 | 200 | 9.0 | 18.0 | 0.00 | 0.14 | 0.14 | 62 | 1016.4 |
| 20260831111001 | 72 | 219 | 9.0 | 18.0 | 0.00 | 0.14 | 0.14 | 63 | 1016.4 |
| 20260831110901 | 72 | 279 | 8.0 | 18.0 | 0.00 | 0.14 | 0.14 | 65 | 1016.4 |
| 20260831110801 | 72 | 238 | 8.0 | 15.0 | 0.00 | 0.14 | 0.14 | 64 | 1016.4 |
| 20260831110701 | 72 | 278 | 8.0 | 15.0 | 0.00 | 0.14 | 0.14 | 63 | 1016.3 |
| 20260831110601 | 72 | 248 | 8.0 | 15.0 | 0.00 | 0.14 | 0.14 | 65 | 1016.4 |
| 20260831110501 | 72 | 255 | 8.0 | 15.0 | 0.00 | 0.14 | 0.14 | 65 | 1016.4 |
| 20260831110401 | 72 | 260 | 8.0 | 17.0 | 0.00 | 0.14 | 0.14 | 64 | 1016.3 |
| 20260831110301 | 72 | 252 | 8.0 | 17.0 | 0.00 | 0.14 | 0.14 | 63 | 1016.3 |
| 20260831110253 | 72 | 205 | 8.0 | 17.0 | 0.00 | 0.14 | 0.14 | 65 | 1016.3 |
| 20260831110245 | 72 | 213 | 8.0 | 17.0 | 0.00 | 0.14 | 0.14 | 64 | 1016.4 |
| 20260831110238 | 72 | 247 | 8.0 | 17.0 | 0.00 | 0.14 | 0.14 | 64 | 1016.3 |
| 20260831110020 | 72 | 232 | 8.0 | 17.0 | 0.00 | 0.14 | 0.14 | 65 | 1016.4 |
| 20260831110016 | 72 | 215 | 8.0 | 17.0 | 0.00 | 0.14 | 0.14 | 64 | 1016.3 |
| 20260831110012 | 72 | 205 | 8.0 | 17.0 | 0.00 | 0.14 | 0.14 | 65 | 1016.3 |
| 20260831105701 | 72 | 309 | 9.0 | 17.0 | 0.00 | 0.14 | 0.14 | 65 | 1016.3 |
| 20260831105600 | 72 | 242 | 9.0 | 17.0 | 0.00 | 0.14 | 0.14 | 65 | 1016.4 |
| 20260831105519 | 72 | 263 | 9.0 | 17.0 | 0.00 | 0.14 | 0.14 | 65 | 1016.3 |
| 20260831105515 | 72 | 234 | 9.0 | 15.0 | 0.00 | 0.14 | 0.14 | 65 | 1016.3 |
| 20260831105511 | 72 | 200 | 9.0 | 15.0 | 0.00 | 0.14 | 0.14 | 65 | 1016.3 |
| 20260831105251 | 71 | 187 | 9.0 | 17.0 | 0.00 | 0.14 | 0.14 | 65 | 1016.3 |
| 20260831105246 | 71 | 236 | 9.0 | 15.0 | 0.00 | 0.14 | 0.14 | 65 | 1016.4 |
| 20260831105238 | 71 | 269 | 9.0 | 15.0 | 0.00 | 0.14 | 0.14 | 65 | 1016.4 |
| 20260831105020 | 71 | 229 | 9.0 | 17.0 | 0.00 | 0.14 | 0.14 | 65 | 1016.3 |
| 20260831105016 | 71 | 238 | 9.0 | 17.0 | 0.00 | 0.14 | 0.14 | 65 | 1016.4 |
| 20260831105012 | 71 | 187 | 9.0 | 17.0 | 0.00 | 0.14 | 0.14 | 65 | 1016.3 |
| 20260831104749 | 71 | 227 | 9.0 | 17.0 | 0.00 | 0.14 | 0.14 | 65 | 1016.3 |
| 20260831104744 | 71 | 232 | 9.0 | 17.0 | 0.00 | 0.14 | 0.14 | 64 | 1016.3 |
| 20260831104736 | 71 | 226 | 8.0 | 17.0 | 0.00 | 0.14 | 0.14 | 64 | 1016.3 |
| 20260831104519 | 71 | 194 | 8.0 | 17.0 | 0.00 | 0.14 | 0.14 | 64 | 1016.3 |
| 20260831104515 | 71 | 236 | 9.0 | 17.0 | 0.00 | 0.14 | 0.14 | 65 | 1016.3 |
| 20260831104511 | 71 | 227 | 9.0 | 17.0 | 0.00 | 0.14 | 0.14 | 65 | 1016.3 |
| 20260831104201 | 71 | 273 | 9.0 | 17.0 | 0.00 | 0.14 | 0.14 | 65 | 1016.4 |
| 20260831104101 | 71 | 273 | 9.0 | 17.0 | 0.00 | 0.14 | 0.14 | 65 | 1016.3 |
| 20260831104001 | 71 | 251 | 9.0 | 16.0 | 0.00 | 0.14 | 0.14 | 66 | 1016.4 |
| 20260831103901 | 71 | 283 | 9.0 | 17.0 | 0.00 | 0.14 | 0.14 | 65 | 1016.4 |
| 20260831103801 | 71 | 257 | 10.0 | 17.0 | 0.00 | 0.14 | 0.14 | 66 | 1016.3 |
| 20260831103701 | 71 | 247 | 10.0 | 17.0 | 0.00 | 0.14 | 0.14 | 65 | 1016.4 |
| 20260831103601 | 71 | 256 | 10.0 | 17.0 | 0.00 | 0.14 | 0.14 | 64 | 1016.4 |
| 20260831103521 | 71 | 229 | 11.0 | 17.0 | 0.00 | 0.14 | 0.14 | 65 | 1016.5 |
| 20260831103517 | 71 | 230 | 10.0 | 18.0 | 0.00 | 0.14 | 0.14 | 66 | 1016.5 |
| 20260831103513 | 71 | 246 | 10.0 | 18.0 | 0.00 | 0.14 | 0.14 | 65 | 1016.4 |
| 20260831103201 | 71 | 266 | 11.0 | 19.0 | 0.00 | 0.14 | 0.14 | 65 | 1016.5 |
| 20260831103101 | 71 | 256 | 11.0 | 19.0 | 0.00 | 0.14 | 0.14 | 64 | 1016.5 |
| 20260831103020 | 71 | 261 | 10.0 | 19.0 | 0.00 | 0.14 | 0.14 | 65 | 1016.6 |
| 20260831103016 | 71 | 207 | 10.0 | 19.0 | 0.00 | 0.14 | 0.14 | 64 | 1016.6 |
| 20260831103012 | 71 | 250 | 10.0 | 19.0 | 0.00 | 0.14 | 0.14 | 64 | 1016.5 |
| 20260831102700 | 71 | 212 | 10.0 | 19.0 | 0.00 | 0.14 | 0.14 | 65 | 1016.5 |
| 20260831102601 | 71 | 235 | 10.0 | 19.0 | 0.00 | 0.14 | 0.14 | 65 | 1016.5 |
| 20260831102500 | 71 | 225 | 10.0 | 19.0 | 0.00 | 0.14 | 0.14 | 65 | 1016.5 |
| 20260831102400 | 70 | 202 | 10.0 | 20.0 | 0.00 | 0.14 | 0.14 | 65 | 1016.5 |
| 20260831102301 | 70 | 212 | 10.0 | 20.0 | 0.00 | 0.14 | 0.14 | 66 | 1016.4 |
| 20260831102201 | 70 | 230 | 9.0 | 20.0 | 0.00 | 0.14 | 0.14 | 66 | 1016.5 |
| 20260831102101 | 70 | 270 | 9.0 | 20.0 | 0.00 | 0.14 | 0.14 | 66 | 1016.5 |
| 20260831102000 | 70 | 269 | 9.0 | 20.0 | 0.00 | 0.14 | 0.14 | 65 | 1016.4 |
| 20260831101900 | 70 | 276 | 10.0 | 20.0 | 0.00 | 0.14 | 0.14 | 67 | 1016.5 |
| 20260831101801 | 70 | 264 | 10.0 | 20.0 | 0.00 | 0.14 | 0.14 | 67 | 1016.4 |
| 20260831101701 | 70 | 288 | 10.0 | 20.0 | 0.00 | 0.14 | 0.14 | 66 | 1016.5 |
| 20260831101601 | 70 | 275 | 10.0 | 20.0 | 0.00 | 0.14 | 0.14 | 67 | 1016.5 |
| 20260831101500 | 70 | 219 | 11.0 | 20.0 | 0.00 | 0.14 | 0.14 | 66 | 1016.5 |
| 20260831101400 | 70 | 242 | 11.0 | 20.0 | 0.00 | 0.14 | 0.14 | 66 | 1016.6 |
| 20260831101301 | 70 | 276 | 11.0 | 21.0 | 0.00 | 0.14 | 0.14 | 66 | 1016.5 |
| 20260831101201 | 70 | 250 | 11.0 | 21.0 | 0.00 | 0.14 | 0.14 | 67 | 1016.6 |
| 20260831101101 | 70 | 252 | 12.0 | 21.0 | 0.00 | 0.14 | 0.14 | 67 | 1016.6 |
| 20260831101001 | 70 | 261 | 12.0 | 21.0 | 0.00 | 0.14 | 0.14 | 67 | 1016.6 |
| 20260831100901 | 70 | 271 | 12.0 | 21.0 | 0.00 | 0.14 | 0.14 | 66 | 1016.6 |
| 20260831100801 | 69 | 208 | 13.0 | 21.0 | 0.00 | 0.14 | 0.14 | 66 | 1016.6 |
| 20260831100701 | 69 | 228 | 13.0 | 21.0 | 0.00 | 0.14 | 0.14 | 66 | 1016.6 |
| 20260831100605 | 70 | 246 | 13.0 | 21.0 | 0.00 | 0.14 | 0.14 | 65 | 1016.7 |
| 20260831100501 | 70 | 265 | 12.0 | 21.0 | 0.00 | 0.14 | 0.14 | 66 | 1016.8 |
| 20260831100401 | 70 | 267 | 12.0 | 21.0 | 0.00 | 0.14 | 0.14 | 67 | 1016.5 |
| 20260831100302 | 70 | 278 | 13.0 | 20.0 | 0.00 | 0.14 | 0.14 | 66 | 1016.6 |
| 20260831100201 | 70 | 292 | 13.0 | 20.0 | 0.00 | 0.14 | 0.14 | 66 | 1016.6 |
| 20260831100103 | 70 | 274 | 13.0 | 20.0 | 0.00 | 0.14 | 0.14 | 65 | 1016.8 |
| 20260831100000 | 70 | 279 | 12.0 | 20.0 | 0.00 | 0.14 | 0.14 | 66 | 1016.6 |
| 20260831095901 | 70 | 275 | 12.0 | 20.0 | 0.00 | 0.14 | 0.14 | 66 | 1016.6 |
| 20260831095801 | 70 | 259 | 12.0 | 20.0 | 0.00 | 0.14 | 0.14 | 66 | 1017.0 |
| 20260831095701 | 70 | 256 | 12.0 | 20.0 | 0.00 | 0.14 | 0.14 | 66 | 1016.6 |
| 20260831095601 | 70 | 268 | 11.0 | 20.0 | 0.00 | 0.14 | 0.14 | 66 | 1016.6 |
| 20260831095501 | 70 | 284 | 11.0 | 20.0 | 0.00 | 0.14 | 0.14 | 66 | 1016.8 |
| 20260831095401 | 70 | 286 | 10.0 | 20.0 | 0.00 | 0.14 | 0.14 | 66 | 1016.8 |
| 20260831095300 | 70 | 265 | 10.0 | 20.0 | 0.00 | 0.14 | 0.14 | 66 | 1016.8 |
| 20260831095200 | 70 | 259 | 9.0 | 20.0 | 0.00 | 0.14 | 0.14 | 67 | 1016.7 |
| 20260831095100 | 70 | 248 | 8.0 | 17.0 | 0.00 | 0.14 | 0.14 | 67 | 1016.6 |
| 20260831095000 | 70 | 238 | 8.0 | 16.0 | 0.00 | 0.14 | 0.14 | 67 | 1016.6 |
| 20260831094900 | 70 | 271 | 8.0 | 16.0 | 0.00 | 0.14 | 0.14 | 67 | 1016.6 |
| 20260831094801 | 70 | 271 | 8.0 | 16.0 | 0.00 | 0.14 | 0.14 | 67 | 1016.7 |
| 20260831094701 | 70 | 297 | 8.0 | 16.0 | 0.00 | 0.14 | 0.14 | 68 | 1016.6 |
| 20260831094601 | 70 | 282 | 7.0 | 15.0 | 0.00 | 0.14 | 0.14 | 69 | 1016.6 |
| 20260831094501 | 70 | 298 | 8.0 | 14.0 | 0.00 | 0.14 | 0.14 | 69 | 1016.5 |
| 20260831094401 | 70 | 265 | 8.0 | 14.0 | 0.00 | 0.14 | 0.14 | 69 | 1016.5 |
| 20260831094301 | 70 | 246 | 8.0 | 14.0 | 0.00 | 0.14 | 0.14 | 70 | 1016.5 |
| 20260831094201 | 70 | 221 | 9.0 | 15.0 | 0.00 | 0.14 | 0.14 | 69 | 1016.5 |
| 20260831094102 | 70 | 286 | 9.0 | 15.0 | 0.00 | 0.14 | 0.14 | 69 | 1016.6 |
| 20260831094001 | 70 | 277 | 9.0 | 15.0 | 0.00 | 0.14 | 0.14 | 70 | 1016.5 |
| 20260831093901 | 70 | 281 | 9.0 | 15.0 | 0.00 | 0.14 | 0.14 | 70 | 1016.5 |
| 20260831093800 | 70 | 319 | 10.0 | 16.0 | 0.00 | 0.14 | 0.14 | 69 | 1016.5 |
| 20260831093700 | 70 | 272 | 10.0 | 16.0 | 0.00 | 0.14 | 0.14 | 70 | 1016.5 |
| 20260831093601 | 69 | 254 | 10.0 | 16.0 | 0.00 | 0.14 | 0.14 | 69 | 1016.5 |
| 20260831093521 | 69 | 264 | 10.0 | 16.0 | 0.00 | 0.14 | 0.14 | 69 | 1016.6 |
| 20260831093517 | 69 | 271 | 10.0 | 16.0 | 0.00 | 0.14 | 0.14 | 69 | 1016.6 |
| 20260831093513 | 69 | 262 | 10.0 | 16.0 | 0.00 | 0.14 | 0.14 | 70 | 1016.6 |
| 20260831093201 | 69 | 271 | 11.0 | 16.0 | 0.00 | 0.14 | 0.14 | 70 | 1016.7 |
| 20260831093101 | 69 | 238 | 11.0 | 16.0 | 0.00 | 0.14 | 0.14 | 71 | 1016.5 |
| 20260831093001 | 69 | 286 | 11.0 | 17.0 | 0.00 | 0.14 | 0.14 | 70 | 1016.7 |
| 20260831092901 | 69 | 264 | 11.0 | 17.0 | 0.00 | 0.14 | 0.14 | 71 | 1016.7 |
| 20260831092801 | 69 | 298 | 11.0 | 17.0 | 0.00 | 0.14 | 0.14 | 70 | 1016.6 |
| 20260831092701 | 69 | 263 | 11.0 | 17.0 | 0.00 | 0.14 | 0.14 | 71 | 1016.7 |
| 20260831092601 | 69 | 273 | 11.0 | 17.0 | 0.00 | 0.14 | 0.14 | 72 | 1016.6 |
| 20260831092501 | 69 | 259 | 10.0 | 17.0 | 0.00 | 0.14 | 0.14 | 72 | 1016.5 |
| 20260831092400 | 69 | 244 | 10.0 | 17.0 | 0.00 | 0.14 | 0.14 | 72 | 1016.6 |
| 20260831092300 | 69 | 246 | 10.0 | 17.0 | 0.00 | 0.14 | 0.14 | 72 | 1016.6 |
| 20260831092200 | 69 | 304 | 9.0 | 17.0 | 0.00 | 0.14 | 0.14 | 71 | 1016.7 |
| 20260831092100 | 69 | 236 | 9.0 | 17.0 | 0.00 | 0.14 | 0.14 | 72 | 1016.5 |
| 20260831092020 | 68 | 256 | 9.0 | 17.0 | 0.00 | 0.14 | 0.14 | 72 | 1016.6 |
| 20260831092016 | 68 | 277 | 8.0 | 17.0 | 0.00 | 0.14 | 0.14 | 72 | 1016.6 |
| 20260831092012 | 68 | 266 | 8.0 | 17.0 | 0.00 | 0.14 | 0.14 | 72 | 1016.6 |
| 20260831091701 | 68 | 248 | 8.0 | 17.0 | 0.00 | 0.14 | 0.14 | 73 | 1016.7 |
| 20260831091602 | 68 | 273 | 7.0 | 17.0 | 0.00 | 0.14 | 0.14 | 73 | 1016.5 |
| 20260831091502 | 68 | 238 | 7.0 | 17.0 | 0.00 | 0.14 | 0.14 | 73 | 1016.5 |
| 20260831091401 | 68 | 268 | 7.0 | 17.0 | 0.00 | 0.14 | 0.14 | 72 | 1016.5 |
| 20260831091302 | 68 | 277 | 7.0 | 17.0 | 0.00 | 0.14 | 0.14 | 74 | 1016.6 |
| 20260831091201 | 68 | 217 | 7.0 | 17.0 | 0.00 | 0.14 | 0.14 | 75 | 1016.6 |
| 20260831091100 | 68 | 239 | 7.0 | 16.0 | 0.00 | 0.14 | 0.14 | 76 | 1016.5 |
| 20260831091001 | 67 | 267 | 7.0 | 13.0 | 0.00 | 0.14 | 0.14 | 76 | 1016.6 |
| 20260831090901 | 67 | 302 | 7.0 | 13.0 | 0.00 | 0.14 | 0.14 | 75 | 1016.6 |
| 20260831090800 | 67 | 265 | 7.0 | 13.0 | 0.00 | 0.14 | 0.14 | 76 | 1016.5 |
| 20260831090700 | 67 | 293 | 7.0 | 13.0 | 0.00 | 0.14 | 0.14 | 75 | 1016.5 |
| 20260831090601 | 67 | 254 | 7.0 | 13.0 | 0.00 | 0.14 | 0.14 | 75 | 1016.6 |
| 20260831090501 | 67 | 275 | 7.0 | 13.0 | 0.00 | 0.14 | 0.14 | 75 | 1016.5 |
| 20260831090401 | 67 | 228 | 7.0 | 13.0 | 0.00 | 0.14 | 0.14 | 75 | 1016.6 |
| 20260831090301 | 67 | 250 | 7.0 | 13.0 | 0.00 | 0.14 | 0.14 | 75 | 1016.7 |
| 20260831090201 | 67 | 254 | 7.0 | 13.0 | 0.00 | 0.14 | 0.14 | 75 | 1016.6 |
| 20260831090101 | 67 | 265 | 7.0 | 11.0 | 0.00 | 0.14 | 0.14 | 75 | 1016.6 |
| 20260831090001 | 67 | 273 | 7.0 | 12.0 | 0.00 | 0.14 | 0.14 | 76 | 1016.6 |
| 20260831085901 | 67 | 245 | 7.0 | 12.0 | 0.00 | 0.14 | 0.14 | 76 | 1016.6 |
| 20260831085800 | 67 | 280 | 7.0 | 12.0 | 0.00 | 0.14 | 0.14 | 76 | 1016.6 |
| 20260831085700 | 67 | 256 | 8.0 | 13.0 | 0.00 | 0.14 | 0.14 | 76 | 1016.5 |
| 20260831085600 | 67 | 265 | 8.0 | 13.0 | 0.00 | 0.14 | 0.14 | 75 | 1016.6 |
| 20260831085500 | 67 | 256 | 8.0 | 14.0 | 0.00 | 0.14 | 0.14 | 76 | 1016.6 |
| 20260831085401 | 67 | 274 | 8.0 | 14.0 | 0.00 | 0.14 | 0.14 | 76 | 1016.5 |
| 20260831085301 | 67 | 277 | 8.0 | 14.0 | 0.00 | 0.14 | 0.14 | 75 | 1016.5 |
| 20260831085248 | 67 | 288 | 8.0 | 14.0 | 0.00 | 0.14 | 0.14 | 76 | 1016.5 |
| 20260831085245 | 67 | 257 | 9.0 | 14.0 | 0.00 | 0.14 | 0.14 | 75 | 1016.4 |
| 20260831085240 | 67 | 232 | 9.0 | 14.0 | 0.00 | 0.14 | 0.14 | 75 | 1016.5 |
| 20260831085020 | 67 | 240 | 8.0 | 14.0 | 0.00 | 0.14 | 0.14 | 76 | 1016.4 |
| 20260831085015 | 67 | 266 | 8.0 | 14.0 | 0.00 | 0.14 | 0.14 | 76 | 1016.6 |
| 20260831085011 | 67 | 288 | 8.0 | 14.0 | 0.00 | 0.14 | 0.14 | 76 | 1016.5 |
| 20260831084701 | 67 | 251 | 8.0 | 14.0 | 0.00 | 0.14 | 0.14 | 76 | 1016.5 |
| 20260831084601 | 67 | 269 | 7.0 | 14.0 | 0.00 | 0.14 | 0.14 | 77 | 1016.4 |
| 20260831084501 | 67 | 258 | 7.0 | 12.0 | 0.00 | 0.14 | 0.14 | 77 | 1016.5 |
| 20260831084401 | 67 | 267 | 7.0 | 12.0 | 0.00 | 0.14 | 0.14 | 77 | 1016.5 |
| 20260831084300 | 67 | 290 | 7.0 | 12.0 | 0.00 | 0.14 | 0.14 | 76 | 1016.5 |
| 20260831084202 | 67 | 233 | 6.0 | 12.0 | 0.00 | 0.14 | 0.14 | 77 | 1016.5 |
| 20260831084100 | 67 | 263 | 6.0 | 11.0 | 0.00 | 0.14 | 0.14 | 78 | 1016.4 |
| 20260831084001 | 67 | 256 | 6.0 | 11.0 | 0.00 | 0.14 | 0.14 | 78 | 1016.4 |
| 20260831083901 | 67 | 281 | 6.0 | 11.0 | 0.00 | 0.14 | 0.14 | 78 | 1016.4 |
| 20260831083801 | 67 | 263 | 7.0 | 11.0 | 0.00 | 0.14 | 0.14 | 78 | 1016.5 |
| 20260831083700 | 67 | 242 | 7.0 | 12.0 | 0.00 | 0.14 | 0.14 | 78 | 1016.4 |
| 20260831083600 | 67 | 258 | 7.0 | 12.0 | 0.00 | 0.14 | 0.14 | 78 | 1016.4 |
| 20260831083501 | 67 | 282 | 7.0 | 12.0 | 0.00 | 0.14 | 0.14 | 77 | 1016.4 |
| 20260831083400 | 67 | 236 | 7.0 | 12.0 | 0.00 | 0.14 | 0.14 | 78 | 1016.4 |
| 20260831083300 | 67 | 254 | 7.0 | 12.0 | 0.00 | 0.14 | 0.14 | 78 | 1016.4 |
| 20260831083201 | 67 | 251 | 7.0 | 12.0 | 0.00 | 0.14 | 0.14 | 78 | 1016.4 |
| 20260831083101 | 66 | 265 | 7.0 | 12.0 | 0.00 | 0.14 | 0.14 | 78 | 1016.3 |
| 20260831083000 | 67 | 281 | 7.0 | 12.0 | 0.00 | 0.14 | 0.14 | 78 | 1016.4 |
| 20260831082900 | 67 | 253 | 7.0 | 12.0 | 0.00 | 0.14 | 0.14 | 78 | 1016.4 |
| 20260831082801 | 67 | 248 | 7.0 | 12.0 | 0.00 | 0.14 | 0.14 | 78 | 1016.3 |
| 20260831082701 | 67 | 260 | 7.0 | 12.0 | 0.00 | 0.14 | 0.14 | 78 | 1016.4 |
| 20260831082601 | 66 | 263 | 7.0 | 12.0 | 0.00 | 0.14 | 0.14 | 80 | 1016.3 |
| 20260831082500 | 66 | 257 | 7.0 | 12.0 | 0.00 | 0.14 | 0.14 | 80 | 1016.2 |
| 20260831082401 | 66 | 253 | 7.0 | 12.0 | 0.00 | 0.14 | 0.14 | 79 | 1016.2 |
| 20260831082301 | 66 | 298 | 7.0 | 12.0 | 0.00 | 0.14 | 0.14 | 79 | 1016.2 |
| 20260831082200 | 66 | 246 | 7.0 | 12.0 | 0.00 | 0.14 | 0.14 | 79 | 1016.2 |
| 20260831082100 | 66 | 254 | 7.0 | 12.0 | 0.00 | 0.14 | 0.14 | 78 | 1016.2 |
| 20260831082001 | 66 | 271 | 7.0 | 12.0 | 0.00 | 0.14 | 0.14 | 80 | 1016.4 |
| 20260831081900 | 66 | 277 | 7.0 | 12.0 | 0.00 | 0.14 | 0.14 | 81 | 1016.3 |
| 20260831081801 | 66 | 292 | 7.0 | 12.0 | 0.00 | 0.14 | 0.14 | 81 | 1016.2 |
| 20260831081701 | 66 | 293 | 7.0 | 12.0 | 0.00 | 0.14 | 0.14 | 81 | 1016.2 |
| 20260831081601 | 66 | 259 | 8.0 | 12.0 | 0.00 | 0.14 | 0.14 | 81 | 1016.2 |
| 20260831081501 | 66 | 221 | 8.0 | 14.0 | 0.00 | 0.14 | 0.14 | 81 | 1016.2 |
| 20260831081401 | 66 | 271 | 8.0 | 14.0 | 0.00 | 0.14 | 0.14 | 82 | 1016.2 |
| 20260831081301 | 66 | 255 | 7.0 | 14.0 | 0.00 | 0.14 | 0.14 | 82 | 1016.4 |
| 20260831081200 | 66 | 254 | 7.0 | 14.0 | 0.00 | 0.14 | 0.14 | 82 | 1016.2 |
| 20260831081100 | 66 | 260 | 6.0 | 14.0 | 0.00 | 0.14 | 0.14 | 81 | 1016.3 |
| 20260831081000 | 66 | 221 | 6.0 | 14.0 | 0.00 | 0.14 | 0.14 | 82 | 1016.3 |
| 20260831080900 | 66 | 232 | 6.0 | 14.0 | 0.00 | 0.14 | 0.14 | 82 | 1016.3 |
| 20260831080800 | 65 | 242 | 6.0 | 14.0 | 0.00 | 0.14 | 0.14 | 83 | 1016.2 |
| 20260831080700 | 65 | 249 | 6.0 | 14.0 | 0.00 | 0.14 | 0.14 | 83 | 1016.2 |
| 20260831080601 | 65 | 212 | 5.0 | 14.0 | 0.00 | 0.14 | 0.14 | 84 | 1016.1 |
| 20260831080501 | 65 | 264 | 5.0 | 11.0 | 0.00 | 0.14 | 0.14 | 84 | 1016.1 |
| 20260831080401 | 65 | 237 | 5.0 | 11.0 | 0.00 | 0.14 | 0.14 | 84 | 1016.2 |
| 20260831080302 | 65 | 248 | 6.0 | 11.0 | 0.00 | 0.14 | 0.14 | 84 | 1016.1 |
| 20260831080200 | 65 | 262 | 6.0 | 11.0 | 0.00 | 0.14 | 0.14 | 83 | 1016.1 |
| 20260831080021 | 65 | 219 | 6.0 | 11.0 | 0.00 | 0.14 | 0.14 | 83 | 1016.2 |
| 20260831080017 | 65 | 252 | 6.0 | 11.0 | 0.00 | 0.14 | 0.14 | 83 | 1016.2 |
| 20260831080013 | 65 | 232 | 6.0 | 11.0 | 0.00 | 0.14 | 0.14 | 83 | 1016.2 |
| 20260831075701 | 65 | 264 | 6.0 | 11.0 | 0.00 | 0.14 | 0.14 | 83 | 1016.2 |
| 20260831075601 | 65 | 231 | 6.0 | 11.0 | 0.00 | 0.14 | 0.14 | 83 | 1016.1 |
| 20260831075501 | 65 | 270 | 6.0 | 11.0 | 0.00 | 0.14 | 0.14 | 83 | 1016.1 |
| 20260831075400 | 65 | 233 | 6.0 | 10.0 | 0.00 | 0.14 | 0.14 | 83 | 1016.1 |
| 20260831075300 | 65 | 268 | 5.0 | 10.0 | 0.00 | 0.14 | 0.14 | 84 | 1016.1 |
| 20260831075200 | 65 | 236 | 5.0 | 10.0 | 0.00 | 0.14 | 0.14 | 84 | 1016.1 |
| 20260831075100 | 65 | 231 | 6.0 | 10.0 | 0.00 | 0.14 | 0.14 | 84 | 1016.1 |
| 20260831075000 | 65 | 238 | 6.0 | 11.0 | 0.00 | 0.14 | 0.14 | 84 | 1016.1 |
| 20260831074900 | 65 | 261 | 5.0 | 11.0 | 0.00 | 0.14 | 0.14 | 84 | 1016.1 |
| 20260831074801 | 65 | 238 | 5.0 | 11.0 | 0.00 | 0.14 | 0.14 | 84 | 1016.1 |
| 20260831074701 | 65 | 300 | 6.0 | 11.0 | 0.00 | 0.14 | 0.14 | 83 | 1016.1 |
| 20260831074601 | 65 | 275 | 6.0 | 11.0 | 0.00 | 0.14 | 0.14 | 83 | 1016.1 |
| 20260831074501 | 65 | 285 | 6.0 | 11.0 | 0.00 | 0.14 | 0.14 | 83 | 1016.1 |
| 20260831074401 | 65 | 317 | 6.0 | 11.0 | 0.00 | 0.14 | 0.14 | 83 | 1016.1 |
| 20260831074301 | 65 | 269 | 7.0 | 13.0 | 0.00 | 0.14 | 0.14 | 83 | 1016.0 |
| 20260831074202 | 65 | 252 | 7.0 | 13.0 | 0.00 | 0.14 | 0.14 | 84 | 1016.0 |
| 20260831074101 | 65 | 265 | 7.0 | 13.0 | 0.00 | 0.14 | 0.14 | 83 | 1016.1 |
| 20260831074023 | 65 | 252 | 7.0 | 14.0 | 0.00 | 0.14 | 0.14 | 84 | 1016.0 |
| 20260831074015 | 65 | 283 | 7.0 | 14.0 | 0.00 | 0.14 | 0.14 | 84 | 1016.0 |
| 20260831074011 | 65 | 263 | 7.0 | 14.0 | 0.00 | 0.14 | 0.14 | 85 | 1016.0 |
| 20260831073700 | 65 | 231 | 7.0 | 14.0 | 0.00 | 0.14 | 0.14 | 85 | 1016.1 |
| 20260831073600 | 65 | 244 | 7.0 | 14.0 | 0.00 | 0.14 | 0.14 | 84 | 1016.1 |
| 20260831073502 | 65 | 264 | 8.0 | 14.0 | 0.00 | 0.14 | 0.14 | 84 | 1016.0 |
| 20260831073400 | 65 | 241 | 8.0 | 14.0 | 0.00 | 0.14 | 0.14 | 84 | 1016.1 |
| 20260831073301 | 65 | 265 | 8.0 | 14.0 | 0.00 | 0.14 | 0.14 | 84 | 1016.1 |
| 20260831073201 | 65 | 281 | 8.0 | 20.0 | 0.00 | 0.14 | 0.14 | 84 | 1016.0 |
| 20260831073101 | 65 | 283 | 8.0 | 20.0 | 0.00 | 0.14 | 0.14 | 85 | 1016.1 |
| 20260831073001 | 65 | 267 | 8.0 | 20.0 | 0.00 | 0.14 | 0.14 | 85 | 1015.8 |
| 20260831072901 | 65 | 229 | 8.0 | 20.0 | 0.00 | 0.14 | 0.14 | 85 | 1015.8 |
| 20260831072801 | 65 | 249 | 8.0 | 20.0 | 0.00 | 0.14 | 0.14 | 85 | 1015.8 |
| 20260831072700 | 65 | 290 | 8.0 | 20.0 | 0.00 | 0.14 | 0.14 | 84 | 1016.0 |
| 20260831072600 | 65 | 255 | 8.0 | 20.0 | 0.00 | 0.14 | 0.14 | 85 | 1016.0 |
| 20260831072500 | 65 | 260 | 8.0 | 20.0 | 0.00 | 0.14 | 0.14 | 85 | 1016.0 |
| 20260831072401 | 65 | 263 | 8.0 | 20.0 | 0.00 | 0.14 | 0.14 | 85 | 1016.0 |
| 20260831072301 | 65 | 279 | 7.0 | 20.0 | 0.00 | 0.14 | 0.14 | 85 | 1016.0 |
| 20260831072201 | 65 | 236 | 7.0 | 13.0 | 0.00 | 0.14 | 0.14 | 87 | 1015.8 |
| 20260831072100 | 65 | 241 | 7.0 | 13.0 | 0.00 | 0.14 | 0.14 | 87 | 1015.8 |
| 20260831072000 | 64 | 254 | 7.0 | 13.0 | 0.00 | 0.14 | 0.14 | 87 | 1015.8 |
| 20260831071901 | 64 | 252 | 7.0 | 13.0 | 0.00 | 0.14 | 0.14 | 87 | 1015.8 |
| 20260831071800 | 64 | 281 | 7.0 | 14.0 | 0.00 | 0.14 | 0.14 | 87 | 1015.8 |
| 20260831071701 | 64 | 269 | 8.0 | 14.0 | 0.00 | 0.14 | 0.14 | 86 | 1016.0 |
| 20260831071601 | 64 | 238 | 8.0 | 14.0 | 0.00 | 0.14 | 0.14 | 87 | 1016.0 |
| 20260831071500 | 64 | 257 | 7.0 | 14.0 | 0.00 | 0.14 | 0.14 | 87 | 1015.8 |
| 20260831071401 | 64 | 255 | 7.0 | 14.0 | 0.00 | 0.14 | 0.14 | 87 | 1016.0 |
| 20260831071301 | 64 | 250 | 8.0 | 14.0 | 0.00 | 0.14 | 0.14 | 87 | 1015.8 |
| 20260831071201 | 64 | 253 | 8.0 | 14.0 | 0.00 | 0.14 | 0.14 | 87 | 1015.8 |
| 20260831071101 | 64 | 234 | 8.0 | 14.0 | 0.00 | 0.14 | 0.14 | 87 | 1016.0 |
| 20260831071001 | 64 | 221 | 8.0 | 14.0 | 0.00 | 0.14 | 0.14 | 86 | 1015.7 |
| 20260831070901 | 64 | 259 | 8.0 | 14.0 | 0.00 | 0.14 | 0.14 | 86 | 1016.0 |
| 20260831070801 | 64 | 271 | 8.0 | 16.0 | 0.00 | 0.14 | 0.14 | 86 | 1015.7 |
| 20260831070700 | 64 | 260 | 8.0 | 16.0 | 0.00 | 0.14 | 0.14 | 87 | 1015.8 |
| 20260831070600 | 64 | 198 | 8.0 | 16.0 | 0.00 | 0.14 | 0.14 | 87 | 1015.7 |
| 20260831070500 | 64 | 281 | 8.0 | 16.0 | 0.00 | 0.14 | 0.14 | 87 | 1015.7 |
| 20260831070401 | 64 | 244 | 8.0 | 16.0 | 0.00 | 0.14 | 0.14 | 87 | 1015.7 |
| 20260831070300 | 64 | 277 | 7.0 | 16.0 | 0.00 | 0.14 | 0.14 | 87 | 1015.7 |
| 20260831070200 | 64 | 265 | 7.0 | 16.0 | 0.00 | 0.14 | 0.14 | 87 | 1015.7 |
| 20260831070100 | 64 | 205 | 8.0 | 16.0 | 0.00 | 0.14 | 0.14 | 87 | 1015.6 |
| 20260831070000 | 64 | 241 | 7.0 | 16.0 | 0.00 | 0.14 | 0.14 | 87 | 1015.7 |
| 20260831065900 | 64 | 217 | 7.0 | 16.0 | 0.00 | 0.14 | 0.14 | 87 | 1015.7 |
| 20260831065801 | 64 | 247 | 7.0 | 13.0 | 0.00 | 0.14 | 0.14 | 88 | 1015.6 |
| 20260831065701 | 64 | 228 | 7.0 | 13.0 | 0.00 | 0.14 | 0.14 | 88 | 1015.6 |
| 20260831065559 | 64 | 235 | 7.0 | 13.0 | 0.00 | 0.14 | 0.14 | 88 | 1015.6 |
| 20260831065459 | 63 | 246 | 7.0 | 13.0 | 0.00 | 0.14 | 0.14 | 88 | 1015.5 |
| 20260831065359 | 64 | 250 | 7.0 | 13.0 | 0.00 | 0.14 | 0.14 | 88 | 1015.6 |
| 20260831065306 | 63 | 252 | 7.0 | 13.0 | 0.00 | 0.14 | 0.14 | 88 | 1015.6 |
| 20260831065258 | 63 | 252 | 7.0 | 13.0 | 0.00 | 0.14 | 0.14 | 88 | 1015.6 |
| 20260831065158 | 63 | 222 | 7.0 | 13.0 | 0.00 | 0.14 | 0.14 | 89 | 1015.6 |
| 20260831065058 | 63 | 217 | 6.0 | 13.0 | 0.00 | 0.14 | 0.14 | 89 | 1015.7 |
| 20260831064958 | 63 | 271 | 6.0 | 13.0 | 0.00 | 0.14 | 0.14 | 89 | 1015.6 |
| 20260831064858 | 63 | 264 | 6.0 | 13.0 | 0.00 | 0.14 | 0.14 | 89 | 1015.6 |
| 20260831064802 | 63 | 279 | 6.0 | 13.0 | 0.00 | 0.14 | 0.14 | 89 | 1015.6 |
| 20260831064758 | 63 | 262 | 6.0 | 13.0 | 0.00 | 0.14 | 0.14 | 89 | 1015.6 |
| 20260831064658 | 63 | 248 | 7.0 | 13.0 | 0.00 | 0.14 | 0.14 | 89 | 1015.6 |
| 20260831064559 | 63 | 243 | 7.0 | 13.0 | 0.00 | 0.14 | 0.14 | 89 | 1015.5 |
| 20260831064458 | 63 | 284 | 7.0 | 13.0 | 0.00 | 0.14 | 0.14 | 89 | 1015.5 |
| 20260831064358 | 63 | 264 | 7.0 | 13.0 | 0.00 | 0.14 | 0.14 | 89 | 1015.5 |
| 20260831064303 | 63 | 273 | 7.0 | 11.0 | 0.00 | 0.14 | 0.14 | 89 | 1015.5 |
| 20260831064259 | 63 | 275 | 7.0 | 11.0 | 0.00 | 0.14 | 0.14 | 89 | 1015.5 |
| 20260831064159 | 63 | 284 | 7.0 | 13.0 | 0.00 | 0.14 | 0.14 | 89 | 1015.4 |
| 20260831064059 | 63 | 215 | 7.0 | 13.0 | 0.00 | 0.14 | 0.14 | 89 | 1015.4 |
| 20260831063959 | 63 | 219 | 7.0 | 13.0 | 0.00 | 0.14 | 0.14 | 89 | 1015.5 |
| 20260831063859 | 63 | 268 | 7.0 | 13.0 | 0.00 | 0.14 | 0.14 | 89 | 1015.4 |
| 20260831063803 | 63 | 231 | 8.0 | 13.0 | 0.00 | 0.14 | 0.14 | 89 | 1015.5 |
| 20260831063758 | 63 | 231 | 8.0 | 13.0 | 0.00 | 0.14 | 0.14 | 89 | 1015.5 |
| 20260831063654 | 63 | 242 | 7.0 | 13.0 | 0.00 | 0.14 | 0.14 | 89 | 1015.4 |
| 20260831063554 | 62 | 236 | 7.0 | 13.0 | 0.00 | 0.14 | 0.14 | 89 | 1015.5 |
| 20260831063454 | 62 | 228 | 7.0 | 13.0 | 0.00 | 0.14 | 0.14 | 89 | 1015.5 |
| 20260831063354 | 62 | 209 | 8.0 | 13.0 | 0.00 | 0.14 | 0.14 | 89 | 1015.4 |
| 20260831063300 | 62 | 255 | 8.0 | 13.0 | 0.00 | 0.14 | 0.14 | 89 | 1015.4 |
| 20260831063254 | 62 | 277 | 8.0 | 13.0 | 0.00 | 0.14 | 0.14 | 89 | 1015.4 |
| 20260831063154 | 62 | 220 | 8.0 | 11.0 | 0.00 | 0.14 | 0.14 | 90 | 1015.4 |
| 20260831063054 | 62 | 271 | 8.0 | 12.0 | 0.00 | 0.14 | 0.14 | 90 | 1015.5 |
| 20260831062955 | 62 | 247 | 8.0 | 12.0 | 0.00 | 0.14 | 0.14 | 90 | 1015.5 |
| 20260831062854 | 62 | 284 | 8.0 | 12.0 | 0.00 | 0.14 | 0.14 | 90 | 1015.4 |
| 20260831062800 | 62 | 233 | 8.0 | 13.0 | 0.00 | 0.14 | 0.14 | 90 | 1015.4 |
| 20260831062755 | 62 | 259 | 8.0 | 13.0 | 0.00 | 0.14 | 0.14 | 90 | 1015.4 |
| 20260831062655 | 62 | 261 | 8.0 | 13.0 | 0.00 | 0.14 | 0.14 | 90 | 1015.4 |
| 20260831062555 | 62 | 289 | 8.0 | 13.0 | 0.00 | 0.14 | 0.14 | 90 | 1015.4 |
| 20260831062454 | 62 | 228 | 8.0 | 13.0 | 0.00 | 0.14 | 0.14 | 90 | 1015.4 |
| 20260831062355 | 62 | 267 | 8.0 | 13.0 | 0.00 | 0.14 | 0.14 | 90 | 1015.4 |
| 20260831062301 | 62 | 244 | 8.0 | 13.0 | 0.00 | 0.14 | 0.14 | 90 | 1015.4 |
| 20260831062254 | 62 | 286 | 8.0 | 13.0 | 0.00 | 0.14 | 0.14 | 90 | 1015.4 |
| 20260831062154 | 62 | 277 | 7.0 | 13.0 | 0.00 | 0.14 | 0.14 | 90 | 1015.3 |
| 20260831062054 | 62 | 295 | 7.0 | 13.0 | 0.00 | 0.14 | 0.14 | 90 | 1015.4 |
| 20260831062025 | 62 | 261 | 7.0 | 13.0 | 0.00 | 0.14 | 0.14 | 91 | 1015.4 |
| 20260831062020 | 62 | 265 | 7.0 | 13.0 | 0.00 | 0.14 | 0.14 | 90 | 1015.4 |
| 20260831062012 | 62 | 274 | 7.0 | 13.0 | 0.00 | 0.14 | 0.14 | 91 | 1015.4 |
| 20260831061748 | 62 | 252 | 7.0 | 13.0 | 0.00 | 0.14 | 0.14 | 91 | 1015.4 |
| 20260831061648 | 62 | 299 | 7.0 | 13.0 | 0.00 | 0.14 | 0.14 | 91 | 1015.3 |
| 20260831061548 | 62 | 279 | 6.0 | 13.0 | 0.00 | 0.14 | 0.14 | 91 | 1015.4 |
| 20260831061525 | 62 | 250 | 6.0 | 11.0 | 0.00 | 0.14 | 0.14 | 91 | 1015.4 |
| 20260831061520 | 62 | 271 | 6.0 | 13.0 | 0.00 | 0.14 | 0.14 | 91 | 1015.4 |
| 20260831061511 | 62 | 244 | 6.0 | 13.0 | 0.00 | 0.14 | 0.14 | 91 | 1015.5 |
| 20260831061242 | 62 | 285 | 6.0 | 11.0 | 0.00 | 0.14 | 0.14 | 91 | 1015.4 |
| 20260831061140 | 62 | 248 | 6.0 | 11.0 | 0.00 | 0.14 | 0.14 | 91 | 1015.4 |
| 20260831061040 | 62 | 273 | 6.0 | 9.0 | 0.00 | 0.14 | 0.14 | 91 | 1015.3 |
| 20260831060940 | 62 | 254 | 6.0 | 9.0 | 0.00 | 0.14 | 0.14 | 91 | 1015.4 |
| 20260831060839 | 61 | 278 | 6.0 | 9.0 | 0.00 | 0.14 | 0.14 | 91 | 1015.3 |
| 20260831060800 | 61 | 271 | 6.0 | 9.0 | 0.00 | 0.14 | 0.14 | 91 | 1015.3 |
| 20260831060734 | 61 | 248 | 6.0 | 9.0 | 0.00 | 0.14 | 0.14 | 91 | 1015.3 |
| 20260831060635 | 61 | 273 | 5.0 | 9.0 | 0.00 | 0.14 | 0.14 | 91 | 1015.3 |
| 20260831060535 | 61 | 260 | 5.0 | 9.0 | 0.00 | 0.14 | 0.14 | 91 | 1015.3 |
| 20260831060435 | 61 | 248 | 5.0 | 9.0 | 0.00 | 0.14 | 0.14 | 91 | 1015.3 |
| 20260831060334 | 61 | 271 | 5.0 | 9.0 | 0.00 | 0.14 | 0.14 | 91 | 1015.3 |
| 20260831060301 | 61 | 244 | 5.0 | 9.0 | 0.00 | 0.14 | 0.14 | 91 | 1015.3 |
| 20260831060234 | 61 | 240 | 5.0 | 9.0 | 0.00 | 0.14 | 0.14 | 91 | 1015.3 |
| 20260831060132 | 61 | 243 | 5.0 | 9.0 | 0.00 | 0.14 | 0.14 | 91 | 1015.3 |
| 20260831060032 | 61 | 227 | 5.0 | 9.0 | 0.00 | 0.14 | 0.14 | 91 | 1015.3 |
| 20260831055930 | 61 | 248 | 5.0 | 9.0 | 0.00 | 0.14 | 0.14 | 91 | 1015.3 |
| 20260831055831 | 61 | 232 | 4.0 | 8.0 | 0.00 | 0.14 | 0.14 | 91 | 1015.3 |
| 20260831055800 | 61 | 215 | 4.0 | 8.0 | 0.00 | 0.14 | 0.14 | 92 | 1015.3 |
| 20260831055731 | 61 | 267 | 4.0 | 8.0 | 0.00 | 0.14 | 0.14 | 92 | 1015.3 |
| 20260831055631 | 61 | 261 | 4.0 | 8.0 | 0.00 | 0.14 | 0.14 | 91 | 1015.3 |
| 20260831055530 | 61 | 277 | 4.0 | 8.0 | 0.00 | 0.14 | 0.14 | 91 | 1015.3 |
| 20260831055523 | 61 | 262 | 4.0 | 8.0 | 0.00 | 0.14 | 0.14 | 91 | 1015.3 |
| 20260831055519 | 61 | 262 | 4.0 | 8.0 | 0.00 | 0.14 | 0.14 | 91 | 1015.3 |
| 20260831055511 | 61 | 269 | 4.0 | 8.0 | 0.00 | 0.14 | 0.14 | 91 | 1015.3 |
| 20260831055229 | 61 | 247 | 4.0 | 8.0 | 0.00 | 0.14 | 0.14 | 91 | 1015.3 |
| 20260831055129 | 61 | 247 | 4.0 | 7.0 | 0.00 | 0.14 | 0.14 | 91 | 1015.3 |
| 20260831055029 | 61 | 242 | 3.0 | 7.0 | 0.00 | 0.14 | 0.14 | 92 | 1015.3 |
| 20260831054929 | 61 | 223 | 3.0 | 7.0 | 0.00 | 0.14 | 0.14 | 91 | 1015.3 |
| 20260831054829 | 61 | 220 | 3.0 | 7.0 | 0.00 | 0.14 | 0.14 | 91 | 1015.3 |
| 20260831054801 | 61 | 215 | 3.0 | 7.0 | 0.00 | 0.14 | 0.14 | 91 | 1015.3 |
| 20260831054729 | 61 | 237 | 3.0 | 7.0 | 0.00 | 0.14 | 0.14 | 91 | 1015.3 |
| 20260831054629 | 61 | 277 | 3.0 | 7.0 | 0.00 | 0.14 | 0.14 | 91 | 1015.2 |
| 20260831054529 | 61 | 273 | 3.0 | 7.0 | 0.00 | 0.14 | 0.14 | 91 | 1015.3 |
| 20260831054429 | 61 | 290 | 3.0 | 9.0 | 0.00 | 0.14 | 0.14 | 91 | 1015.3 |
| 20260831054329 | 61 | 258 | 3.0 | 9.0 | 0.00 | 0.14 | 0.14 | 91 | 1015.2 |
| 20260831054301 | 61 | 261 | 3.0 | 9.0 | 0.00 | 0.14 | 0.14 | 91 | 1015.2 |
| 20260831054229 | 61 | 261 | 3.0 | 9.0 | 0.00 | 0.14 | 0.14 | 91 | 1015.2 |
| 20260831054128 | 61 | 238 | 3.0 | 9.0 | 0.00 | 0.14 | 0.14 | 91 | 1015.2 |
| 20260831054029 | 61 | 267 | 4.0 | 9.0 | 0.00 | 0.14 | 0.14 | 91 | 1015.2 |
| 20260831053929 | 61 | 250 | 4.0 | 9.0 | 0.00 | 0.14 | 0.14 | 91 | 1015.2 |
| 20260831053829 | 61 | 243 | 4.0 | 9.0 | 0.00 | 0.14 | 0.14 | 91 | 1015.1 |
| 20260831053801 | 61 | 274 | 4.0 | 9.0 | 0.00 | 0.14 | 0.14 | 91 | 1015.2 |
| 20260831053729 | 61 | 263 | 4.0 | 9.0 | 0.00 | 0.14 | 0.14 | 91 | 1015.2 |
| 20260831053629 | 61 | 265 | 4.0 | 9.0 | 0.00 | 0.14 | 0.14 | 91 | 1015.1 |
| 20260831053529 | 61 | 235 | 4.0 | 9.0 | 0.00 | 0.14 | 0.14 | 91 | 1015.1 |
| 20260831053429 | 61 | 253 | 4.0 | 9.0 | 0.00 | 0.14 | 0.14 | 91 | 1015.2 |
| 20260831053329 | 61 | 275 | 4.0 | 9.0 | 0.00 | 0.14 | 0.14 | 91 | 1015.1 |
| 20260831053300 | 61 | 284 | 4.0 | 9.0 | 0.00 | 0.14 | 0.14 | 91 | 1015.2 |
| 20260831053229 | 61 | 215 | 4.0 | 9.0 | 0.00 | 0.14 | 0.14 | 91 | 1015.2 |
| 20260831053129 | 61 | 225 | 4.0 | 9.0 | 0.00 | 0.14 | 0.14 | 91 | 1015.1 |
| 20260831053028 | 61 | 231 | 5.0 | 10.0 | 0.00 | 0.14 | 0.14 | 91 | 1015.2 |
| 20260831052928 | 61 | 252 | 5.0 | 10.0 | 0.00 | 0.14 | 0.14 | 91 | 1015.2 |
| 20260831052829 | 61 | 252 | 5.0 | 10.0 | 0.00 | 0.14 | 0.14 | 91 | 1015.2 |
| 20260831052801 | 61 | 225 | 4.0 | 10.0 | 0.00 | 0.14 | 0.14 | 91 | 1015.1 |
| 20260831052728 | 61 | 223 | 4.0 | 10.0 | 0.00 | 0.14 | 0.14 | 91 | 1015.1 |
| 20260831052628 | 61 | 247 | 4.0 | 10.0 | 0.00 | 0.14 | 0.14 | 91 | 1015.2 |
| 20260831052528 | 61 | 238 | 4.0 | 10.0 | 0.00 | 0.14 | 0.14 | 91 | 1015.1 |
| 20260831052425 | 61 | 229 | 4.0 | 10.0 | 0.00 | 0.14 | 0.14 | 91 | 1015.2 |
| 20260831052320 | 61 | 217 | 4.0 | 10.0 | 0.00 | 0.14 | 0.14 | 91 | 1015.1 |
| 20260831052301 | 61 | 269 | 4.0 | 10.0 | 0.00 | 0.14 | 0.14 | 91 | 1015.1 |
| 20260831052220 | 61 | 227 | 4.0 | 10.0 | 0.00 | 0.14 | 0.14 | 91 | 1015.1 |
| 20260831052121 | 61 | 242 | 4.0 | 10.0 | 0.00 | 0.14 | 0.14 | 91 | 1015.1 |
| 20260831052021 | 61 | 220 | 4.0 | 8.0 | 0.00 | 0.14 | 0.14 | 91 | 1015.1 |
| 20260831051917 | 61 | 221 | 4.0 | 8.0 | 0.00 | 0.14 | 0.14 | 91 | 1015.1 |
| 20260831051817 | 61 | 244 | 4.0 | 9.0 | 0.00 | 0.14 | 0.14 | 91 | 1015.1 |
| 20260831051801 | 61 | 232 | 4.0 | 9.0 | 0.00 | 0.14 | 0.14 | 91 | 1015.1 |
| 20260831051716 | 61 | 232 | 4.0 | 9.0 | 0.00 | 0.14 | 0.14 | 91 | 1015.1 |
| 20260831051614 | 61 | 240 | 4.0 | 9.0 | 0.00 | 0.14 | 0.14 | 91 | 1015.1 |
| 20260831051514 | 61 | 242 | 4.0 | 9.0 | 0.00 | 0.14 | 0.14 | 91 | 1015.2 |
| 20260831051412 | 61 | 251 | 4.0 | 9.0 | 0.00 | 0.14 | 0.14 | 91 | 1015.1 |
| 20260831051306 | 61 | 244 | 4.0 | 9.0 | 0.00 | 0.14 | 0.14 | 90 | 1015.1 |
| 20260831051301 | 61 | 230 | 4.0 | 9.0 | 0.00 | 0.14 | 0.14 | 90 | 1015.1 |
| 20260831051206 | 61 | 249 | 4.0 | 9.0 | 0.00 | 0.14 | 0.14 | 90 | 1015.1 |
| 20260831051107 | 61 | 273 | 4.0 | 9.0 | 0.00 | 0.14 | 0.14 | 91 | 1015.1 |
| 20260831051007 | 61 | 260 | 4.0 | 9.0 | 0.00 | 0.14 | 0.14 | 91 | 1015.1 |
| 20260831050905 | 61 | 267 | 4.0 | 9.0 | 0.00 | 0.14 | 0.14 | 91 | 1015.1 |
| 20260831050801 | 61 | 255 | 4.0 | 10.0 | 0.00 | 0.14 | 0.14 | 90 | 1015.1 |
| 20260831050707 | 61 | 276 | 5.0 | 10.0 | 0.00 | 0.14 | 0.14 | 90 | 1015.1 |
| 20260831050606 | 61 | 231 | 5.0 | 13.0 | 0.00 | 0.14 | 0.14 | 90 | 1015.1 |
| 20260831050506 | 61 | 256 | 5.0 | 13.0 | 0.00 | 0.14 | 0.14 | 90 | 1015.1 |
| 20260831050406 | 61 | 208 | 5.0 | 13.0 | 0.00 | 0.14 | 0.14 | 90 | 1015.1 |
| 20260831050306 | 61 | 230 | 5.0 | 13.0 | 0.00 | 0.14 | 0.14 | 90 | 1015.1 |
| 20260831050301 | 61 | 229 | 5.0 | 13.0 | 0.00 | 0.14 | 0.14 | 90 | 1015.1 |
| 20260831050206 | 61 | 224 | 6.0 | 13.0 | 0.00 | 0.14 | 0.14 | 90 | 1015.0 |
| 20260831050107 | 61 | 225 | 6.0 | 13.0 | 0.00 | 0.14 | 0.14 | 90 | 1015.1 |
| 20260831050005 | 61 | 269 | 6.0 | 13.0 | 0.00 | 0.14 | 0.14 | 90 | 1015.1 |
| 20260831045904 | 61 | 260 | 6.0 | 13.0 | 0.00 | 0.14 | 0.14 | 90 | 1015.1 |
| 20260831045801 | 61 | 219 | 6.0 | 13.0 | 0.00 | 0.14 | 0.14 | 90 | 1015.0 |
| 20260831045702 | 61 | 212 | 6.0 | 13.0 | 0.00 | 0.14 | 0.14 | 90 | 1015.0 |
| 20260831045602 | 61 | 183 | 6.0 | 11.0 | 0.00 | 0.14 | 0.14 | 91 | 1015.0 |
| 20260831045502 | 61 | 234 | 5.0 | 11.0 | 0.00 | 0.14 | 0.14 | 91 | 1015.0 |
| 20260831045401 | 61 | 260 | 6.0 | 11.0 | 0.00 | 0.14 | 0.14 | 91 | 1015.1 |
| 20260831045301 | 61 | 226 | 6.0 | 11.0 | 0.00 | 0.14 | 0.14 | 91 | 1015.1 |
| 20260831045201 | 61 | 240 | 6.0 | 14.0 | 0.00 | 0.14 | 0.14 | 91 | 1015.0 |
| 20260831045101 | 61 | 236 | 6.0 | 14.0 | 0.00 | 0.14 | 0.14 | 91 | 1015.0 |
| 20260831045001 | 61 | 230 | 6.0 | 14.0 | 0.00 | 0.14 | 0.14 | 91 | 1015.0 |
| 20260831044901 | 61 | 221 | 6.0 | 14.0 | 0.00 | 0.14 | 0.14 | 91 | 1014.9 |
| 20260831044801 | 61 | 219 | 6.0 | 14.0 | 0.00 | 0.15 | 0.14 | 91 | 1015.0 |
| 20260831044702 | 61 | 223 | 6.0 | 14.0 | 0.00 | 0.15 | 0.14 | 91 | 1014.9 |
| 20260831044601 | 61 | 219 | 6.0 | 14.0 | 0.00 | 0.15 | 0.14 | 91 | 1015.0 |
| 20260831044501 | 61 | 258 | 6.0 | 14.0 | 0.00 | 0.15 | 0.14 | 91 | 1014.9 |
| 20260831044401 | 60 | 209 | 6.0 | 14.0 | 0.00 | 0.15 | 0.14 | 91 | 1014.8 |
| 20260831044301 | 60 | 216 | 6.0 | 14.0 | 0.00 | 0.15 | 0.14 | 91 | 1014.9 |
| 20260831044201 | 60 | 211 | 6.0 | 13.0 | 0.00 | 0.15 | 0.14 | 91 | 1014.9 |
| 20260831044101 | 60 | 193 | 6.0 | 12.0 | 0.00 | 0.15 | 0.14 | 91 | 1014.9 |
| 20260831044001 | 60 | 200 | 6.0 | 12.0 | 0.00 | 0.15 | 0.14 | 91 | 1014.8 |
| 20260831043901 | 60 | 216 | 6.0 | 14.0 | 0.00 | 0.15 | 0.14 | 91 | 1014.8 |
| 20260831043801 | 60 | 222 | 6.0 | 14.0 | 0.00 | 0.15 | 0.14 | 91 | 1014.9 |
| 20260831043701 | 60 | 236 | 6.0 | 14.0 | 0.00 | 0.15 | 0.14 | 91 | 1014.9 |
| 20260831043601 | 60 | 221 | 6.0 | 14.0 | 0.00 | 0.15 | 0.14 | 91 | 1014.9 |
| 20260831043501 | 60 | 221 | 6.0 | 14.0 | 0.00 | 0.15 | 0.14 | 91 | 1014.9 |
| 20260831043400 | 60 | 211 | 6.0 | 14.0 | 0.00 | 0.15 | 0.14 | 91 | 1014.9 |
| 20260831043300 | 60 | 205 | 6.0 | 14.0 | 0.00 | 0.15 | 0.14 | 91 | 1014.9 |
| 20260831043200 | 60 | 204 | 6.0 | 14.0 | 0.00 | 0.15 | 0.14 | 91 | 1014.9 |
| 20260831043100 | 60 | 228 | 6.0 | 14.0 | 0.00 | 0.15 | 0.14 | 91 | 1014.9 |
| 20260831043001 | 60 | 213 | 5.0 | 14.0 | 0.00 | 0.15 | 0.14 | 91 | 1015.0 |
| 20260831042901 | 60 | 212 | 6.0 | 12.0 | 0.00 | 0.15 | 0.14 | 91 | 1014.8 |
| 20260831042801 | 60 | 209 | 6.0 | 11.0 | 0.00 | 0.15 | 0.14 | 91 | 1015.0 |
| 20260831042701 | 60 | 255 | 6.0 | 11.0 | 0.00 | 0.15 | 0.14 | 91 | 1014.9 |
| 20260831042601 | 60 | 242 | 6.0 | 11.0 | 0.00 | 0.15 | 0.14 | 91 | 1014.9 |
| 20260831042500 | 60 | 248 | 6.0 | 12.0 | 0.00 | 0.15 | 0.14 | 91 | 1014.9 |
| 20260831042401 | 60 | 207 | 6.0 | 12.0 | 0.00 | 0.15 | 0.14 | 91 | 1014.9 |
| 20260831042301 | 60 | 221 | 6.0 | 12.0 | 0.00 | 0.15 | 0.14 | 90 | 1014.9 |
| 20260831042201 | 60 | 238 | 6.0 | 12.0 | 0.00 | 0.15 | 0.14 | 91 | 1014.9 |
| 20260831042101 | 60 | 231 | 5.0 | 12.0 | 0.00 | 0.15 | 0.14 | 91 | 1014.9 |
| 20260831042001 | 60 | 220 | 5.0 | 12.0 | 0.00 | 0.15 | 0.14 | 91 | 1014.9 |
| 20260831041901 | 60 | 234 | 5.0 | 13.0 | 0.00 | 0.15 | 0.14 | 91 | 1014.9 |
| 20260831041801 | 60 | 221 | 5.0 | 13.0 | 0.00 | 0.15 | 0.14 | 91 | 1014.9 |
| 20260831041701 | 60 | 248 | 5.0 | 13.0 | 0.00 | 0.15 | 0.14 | 90 | 1014.8 |
| 20260831041601 | 60 | 216 | 5.0 | 13.0 | 0.00 | 0.15 | 0.14 | 90 | 1014.8 |
| 20260831041501 | 60 | 205 | 5.0 | 13.0 | 0.00 | 0.15 | 0.14 | 90 | 1014.9 |
| 20260831041401 | 60 | 234 | 5.0 | 13.0 | 0.00 | 0.15 | 0.14 | 90 | 1014.9 |
| 20260831041301 | 60 | 246 | 5.0 | 13.0 | 0.00 | 0.15 | 0.14 | 91 | 1014.9 |
| 20260831041201 | 60 | 218 | 5.0 | 13.0 | 0.00 | 0.15 | 0.14 | 91 | 1014.8 |
| 20260831041101 | 60 | 234 | 6.0 | 13.0 | 0.00 | 0.15 | 0.14 | 91 | 1014.8 |
| 20260831041000 | 60 | 231 | 6.0 | 14.0 | 0.00 | 0.15 | 0.14 | 91 | 1014.8 |
| 20260831040900 | 60 | 254 | 6.0 | 14.0 | 0.00 | 0.15 | 0.14 | 91 | 1014.8 |
| 20260831040801 | 60 | 259 | 6.0 | 14.0 | 0.00 | 0.15 | 0.14 | 91 | 1014.8 |
| 20260831040700 | 60 | 232 | 6.0 | 14.0 | 0.00 | 0.15 | 0.14 | 91 | 1014.7 |
| 20260831040600 | 60 | 228 | 5.0 | 14.0 | 0.00 | 0.15 | 0.14 | 91 | 1014.8 |
| 20260831040524 | 60 | 220 | 5.0 | 14.0 | 0.00 | 0.15 | 0.14 | 90 | 1014.7 |
| 20260831040520 | 60 | 219 | 5.0 | 14.0 | 0.00 | 0.15 | 0.14 | 90 | 1014.8 |
| 20260831040513 | 60 | 220 | 5.0 | 14.0 | 0.00 | 0.15 | 0.14 | 91 | 1014.8 |
| 20260831040200 | 60 | 194 | 5.0 | 14.0 | 0.00 | 0.15 | 0.14 | 91 | 1014.8 |
| 20260831040100 | 60 | 222 | 4.0 | 14.0 | 0.00 | 0.15 | 0.14 | 91 | 1014.8 |
| 20260831040023 | 60 | 196 | 5.0 | 9.0 | 0.00 | 0.15 | 0.14 | 91 | 1014.7 |
| 20260831040020 | 60 | 225 | 4.0 | 9.0 | 0.00 | 0.15 | 0.14 | 91 | 1014.8 |
| 20260831040012 | 60 | 194 | 4.0 | 9.0 | 0.00 | 0.15 | 0.14 | 91 | 1014.7 |
| 20260831035701 | 60 | 227 | 4.0 | 9.0 | 0.00 | 0.15 | 0.14 | 91 | 1014.8 |
| 20260831035601 | 60 | 202 | 4.0 | 10.0 | 0.00 | 0.15 | 0.14 | 91 | 1014.8 |
| 20260831035502 | 60 | 217 | 4.0 | 10.0 | 0.00 | 0.15 | 0.14 | 91 | 1014.7 |
| 20260831035401 | 60 | 221 | 4.0 | 10.0 | 0.00 | 0.15 | 0.14 | 91 | 1014.7 |
| 20260831035306 | 60 | 178 | 4.0 | 10.0 | 0.00 | 0.15 | 0.14 | 91 | 1014.6 |
| 20260831035201 | 60 | 198 | 4.0 | 10.0 | 0.00 | 0.15 | 0.14 | 91 | 1014.7 |
| 20260831035101 | 60 | 229 | 4.0 | 10.0 | 0.00 | 0.15 | 0.14 | 91 | 1014.6 |
| 20260831035025 | 60 | 206 | 4.0 | 10.0 | 0.00 | 0.15 | 0.14 | 91 | 1014.6 |
| 20260831035021 | 60 | 225 | 4.0 | 10.0 | 0.00 | 0.15 | 0.14 | 91 | 1014.6 |
| 20260831035014 | 60 | 225 | 4.0 | 10.0 | 0.00 | 0.15 | 0.14 | 90 | 1014.6 |
| 20260831034701 | 60 | 227 | 5.0 | 10.0 | 0.01 | 0.15 | 0.14 | 91 | 1014.6 |
| 20260831034601 | 60 | 204 | 5.0 | 10.0 | 0.01 | 0.15 | 0.14 | 91 | 1014.6 |
| 20260831034501 | 60 | 259 | 5.0 | 11.0 | 0.01 | 0.15 | 0.14 | 91 | 1014.6 |
| 20260831034401 | 60 | 234 | 4.0 | 11.0 | 0.01 | 0.15 | 0.14 | 91 | 1014.6 |
| 20260831034301 | 60 | 212 | 4.0 | 11.0 | 0.01 | 0.15 | 0.14 | 91 | 1014.6 |
| 20260831034201 | 60 | 205 | 4.0 | 11.0 | 0.01 | 0.15 | 0.14 | 91 | 1014.7 |
| 20260831034101 | 60 | 198 | 4.0 | 11.0 | 0.01 | 0.15 | 0.14 | 91 | 1014.6 |
| 20260831034023 | 60 | 209 | 4.0 | 11.0 | 0.02 | 0.15 | 0.14 | 91 | 1014.7 |
| 20260831034019 | 60 | 216 | 4.0 | 11.0 | 0.02 | 0.15 | 0.14 | 91 | 1014.7 |
| 20260831034011 | 60 | 203 | 4.0 | 11.0 | 0.02 | 0.15 | 0.14 | 91 | 1014.7 |
| 20260831033701 | 60 | 190 | 4.0 | 11.0 | 0.02 | 0.15 | 0.14 | 91 | 1014.7 |
| 20260831033601 | 60 | 226 | 4.0 | 11.0 | 0.02 | 0.15 | 0.14 | 91 | 1014.7 |
| 20260831033501 | 60 | 199 | 4.0 | 9.0 | 0.02 | 0.15 | 0.14 | 91 | 1014.8 |
| 20260831033400 | 60 | 219 | 4.0 | 9.0 | 0.02 | 0.15 | 0.14 | 91 | 1014.8 |
| 20260831033301 | 60 | 207 | 4.0 | 9.0 | 0.03 | 0.15 | 0.14 | 91 | 1014.7 |
| 20260831033200 | 60 | 217 | 4.0 | 9.0 | 0.03 | 0.15 | 0.14 | 91 | 1014.8 |
| 20260831033100 | 60 | 217 | 4.0 | 8.0 | 0.03 | 0.15 | 0.14 | 91 | 1014.7 |
| 20260831033023 | 60 | 214 | 4.0 | 8.0 | 0.03 | 0.15 | 0.14 | 91 | 1014.6 |
| 20260831033019 | 60 | 248 | 4.0 | 8.0 | 0.03 | 0.15 | 0.14 | 91 | 1014.8 |
| 20260831033012 | 60 | 207 | 4.0 | 8.0 | 0.03 | 0.15 | 0.14 | 91 | 1014.7 |
| 20260831032701 | 60 | 221 | 4.0 | 8.0 | 0.04 | 0.15 | 0.14 | 91 | 1014.7 |
| 20260831032601 | 60 | 209 | 4.0 | 8.0 | 0.04 | 0.15 | 0.14 | 91 | 1014.7 |
| 20260831032501 | 60 | 207 | 4.0 | 9.0 | 0.04 | 0.15 | 0.14 | 91 | 1014.8 |
| 20260831032401 | 60 | 206 | 4.0 | 9.0 | 0.05 | 0.15 | 0.14 | 91 | 1014.8 |
| 20260831032301 | 60 | 233 | 4.0 | 9.0 | 0.06 | 0.15 | 0.14 | 91 | 1014.8 |
| 20260831032201 | 60 | 235 | 4.0 | 9.0 | 0.06 | 0.15 | 0.14 | 91 | 1014.8 |
| 20260831032101 | 60 | 227 | 4.0 | 9.0 | 0.08 | 0.15 | 0.14 | 91 | 1014.8 |
| 20260831032025 | 60 | 210 | 4.0 | 9.0 | 0.08 | 0.15 | 0.14 | 91 | 1014.8 |
| 20260831032021 | 60 | 215 | 4.0 | 9.0 | 0.09 | 0.15 | 0.14 | 92 | 1014.8 |
| 20260831032013 | 60 | 211 | 4.0 | 9.0 | 0.10 | 0.15 | 0.14 | 92 | 1014.8 |
| 20260831031701 | 60 | 236 | 4.0 | 9.0 | 0.11 | 0.15 | 0.14 | 92 | 1014.8 |
| 20260831031601 | 60 | 243 | 4.0 | 9.0 | 0.12 | 0.15 | 0.14 | 92 | 1014.8 |
| 20260831031501 | 60 | 215 | 4.0 | 8.0 | 0.12 | 0.15 | 0.14 | 92 | 1014.8 |
| 20260831031401 | 60 | 259 | 3.0 | 8.0 | 0.12 | 0.15 | 0.14 | 92 | 1014.8 |
| 20260831031301 | 60 | 232 | 3.0 | 8.0 | 0.12 | 0.15 | 0.14 | 92 | 1014.7 |
| 20260831031201 | 60 | 218 | 3.0 | 8.0 | 0.12 | 0.15 | 0.14 | 92 | 1014.8 |
| 20260831031101 | 60 | 285 | 3.0 | 8.0 | 0.12 | 0.15 | 0.14 | 92 | 1014.8 |
| 20260831031000 | 60 | 230 | 3.0 | 8.0 | 0.12 | 0.15 | 0.14 | 92 | 1014.8 |
| 20260831030900 | 60 | 257 | 3.0 | 8.0 | 0.12 | 0.15 | 0.14 | 92 | 1014.8 |
| 20260831030802 | 60 | 225 | 3.0 | 8.0 | 0.12 | 0.15 | 0.14 | 92 | 1014.8 |
| 20260831030758 | 61 | 225 | 3.0 | 8.0 | 0.12 | 0.15 | 0.14 | 92 | 1014.8 |
| 20260831030658 | 60 | 225 | 3.0 | 8.0 | 0.12 | 0.15 | 0.14 | 92 | 1014.8 |
| 20260831030558 | 61 | 246 | 3.0 | 8.0 | 0.12 | 0.15 | 0.14 | 92 | 1014.9 |
| 20260831030458 | 60 | 227 | 3.0 | 6.0 | 0.12 | 0.15 | 0.14 | 92 | 1014.9 |
| 20260831030356 | 60 | 219 | 3.0 | 6.0 | 0.12 | 0.15 | 0.14 | 91 | 1014.9 |
| 20260831030301 | 61 | 219 | 3.0 | 6.0 | 0.13 | 0.15 | 0.14 | 91 | 1014.9 |
| 20260831030255 | 61 | 219 | 3.0 | 6.0 | 0.13 | 0.15 | 0.14 | 91 | 1014.9 |
| 20260831030153 | 61 | 219 | 3.0 | 6.0 | 0.13 | 0.15 | 0.14 | 91 | 1014.9 |
| 20260831030054 | 61 | 228 | 3.0 | 6.0 | 0.13 | 0.15 | 0.14 | 91 | 1014.9 |
| 20260831025951 | 61 | 223 | 3.0 | 6.0 | 0.13 | 0.15 | 0.14 | 91 | 1014.9 |
| 20260831025848 | 61 | 223 | 3.0 | 6.0 | 0.13 | 0.15 | 0.14 | 91 | 1014.9 |
| 20260831025800 | 61 | 221 | 2.0 | 6.0 | 0.13 | 0.15 | 0.14 | 91 | 1014.9 |
| 20260831025746 | 61 | 221 | 2.0 | 6.0 | 0.13 | 0.15 | 0.14 | 91 | 1014.9 |
| 20260831025646 | 61 | 220 | 2.0 | 6.0 | 0.13 | 0.15 | 0.14 | 91 | 1014.9 |
| 20260831025546 | 61 | 225 | 2.0 | 6.0 | 0.13 | 0.15 | 0.14 | 91 | 1014.9 |
| 20260831025528 | 61 | 315 | 2.0 | 4.0 | 0.14 | 0.15 | 0.14 | 91 | 1014.3 |
| 20260831025520 | 61 | 219 | 2.0 | 5.0 | 0.13 | 0.15 | 0.14 | 91 | 1014.8 |
| 20260831025516 | 61 | 228 | 2.0 | 4.0 | 0.14 | 0.15 | 0.14 | 91 | 1014.5 |
| 20260831025240 | 61 | 320 | 2.0 | 4.0 | 0.14 | 0.15 | 0.14 | 91 | 1014.3 |
| 20260831025140 | 61 | 320 | 2.0 | 6.0 | 0.14 | 0.15 | 0.14 | 91 | 1014.1 |
| 20260831025039 | 61 | 320 | 2.0 | 6.0 | 0.14 | 0.15 | 0.14 | 90 | 1013.9 |
| 20260831024939 | 61 | 320 | 3.0 | 6.0 | 0.14 | 0.15 | 0.14 | 90 | 1013.9 |
| 20260831024838 | 61 | 320 | 3.0 | 7.0 | 0.14 | 0.15 | 0.13 | 90 | 1014.2 |
| 20260831024801 | 61 | 265 | 3.0 | 7.0 | 0.14 | 0.15 | 0.13 | 90 | 1014.3 |
| 20260831024738 | 61 | 264 | 3.0 | 7.0 | 0.13 | 0.14 | 0.13 | 90 | 1014.3 |
| 20260831024635 | 61 | 263 | 3.0 | 7.0 | 0.13 | 0.14 | 0.13 | 90 | 1014.4 |
| 20260831024535 | 61 | 264 | 3.0 | 7.0 | 0.13 | 0.14 | 0.13 | 90 | 1014.5 |
| 20260831024433 | 61 | 260 | 4.0 | 7.0 | 0.13 | 0.14 | 0.13 | 90 | 1014.7 |
| 20260831024332 | 61 | 254 | 4.0 | 7.0 | 0.13 | 0.14 | 0.13 | 90 | 1014.9 |
| 20260831024301 | 61 | 258 | 4.0 | 8.0 | 0.13 | 0.14 | 0.13 | 90 | 1015.0 |
| 20260831024232 | 61 | 259 | 4.0 | 8.0 | 0.13 | 0.14 | 0.13 | 90 | 1015.0 |
| 20260831024132 | 61 | 263 | 4.0 | 8.0 | 0.13 | 0.14 | 0.13 | 90 | 1015.0 |
| 20260831024032 | 61 | 257 | 4.0 | 8.0 | 0.13 | 0.14 | 0.13 | 90 | 1015.0 |
| 20260831024028 | 61 | 245 | 4.0 | 8.0 | 0.13 | 0.13 | 0.13 | 90 | 1015.2 |
| 20260831024015 | 61 | 241 | 4.0 | 8.0 | 0.13 | 0.13 | 0.13 | 90 | 1015.2 |
| 20260831024011 | 61 | 243 | 4.0 | 8.0 | 0.13 | 0.13 | 0.13 | 90 | 1015.2 |
| 20260831023732 | 61 | 250 | 4.0 | 8.0 | 0.13 | 0.13 | 0.12 | 90 | 1015.2 |
| 20260831023632 | 61 | 259 | 4.0 | 8.0 | 0.12 | 0.13 | 0.12 | 89 | 1015.2 |
| 20260831023532 | 61 | 263 | 5.0 | 12.0 | 0.12 | 0.13 | 0.12 | 89 | 1015.2 |
| 20260831023432 | 61 | 245 | 5.0 | 12.0 | 0.12 | 0.13 | 0.11 | 89 | 1015.2 |
| 20260831023332 | 61 | 267 | 6.0 | 12.0 | 0.11 | 0.12 | 0.11 | 89 | 1015.2 |
| 20260831023301 | 61 | 265 | 6.0 | 13.0 | 0.11 | 0.12 | 0.11 | 89 | 1015.1 |
| 20260831023232 | 61 | 261 | 6.0 | 15.0 | 0.11 | 0.12 | 0.11 | 89 | 1015.1 |
| 20260831023131 | 61 | 264 | 7.0 | 15.0 | 0.11 | 0.12 | 0.11 | 89 | 1015.1 |
| 20260831023029 | 61 | 284 | 8.0 | 15.0 | 0.11 | 0.12 | 0.11 | 89 | 1015.2 |
| 20260831022930 | 62 | 236 | 8.0 | 15.0 | 0.11 | 0.12 | 0.11 | 88 | 1015.3 |
| 20260831022829 | 62 | 273 | 9.0 | 15.0 | 0.11 | 0.12 | 0.11 | 89 | 1015.4 |
| 20260831022801 | 62 | 275 | 9.0 | 15.0 | 0.11 | 0.12 | 0.10 | 88 | 1015.4 |
| 20260831022729 | 62 | 277 | 9.0 | 15.0 | 0.11 | 0.12 | 0.10 | 88 | 1015.4 |
| 20260831022628 | 62 | 273 | 10.0 | 16.0 | 0.10 | 0.11 | 0.10 | 88 | 1015.4 |
| 20260831022528 | 62 | 262 | 10.0 | 16.0 | 0.10 | 0.11 | 0.09 | 88 | 1015.6 |
| 20260831022428 | 62 | 269 | 10.0 | 16.0 | 0.09 | 0.10 | 0.09 | 88 | 1015.6 |
| 20260831022328 | 62 | 257 | 10.0 | 16.0 | 0.09 | 0.09 | 0.09 | 88 | 1015.6 |
| 20260831022301 | 62 | 234 | 10.0 | 16.0 | 0.09 | 0.09 | 0.08 | 88 | 1015.7 |
| 20260831022227 | 62 | 254 | 10.0 | 18.0 | 0.08 | 0.09 | 0.06 | 88 | 1015.7 |
| 20260831022122 | 62 | 265 | 10.0 | 18.0 | 0.07 | 0.08 | 0.06 | 88 | 1016.0 |
| 20260831022022 | 62 | 274 | 10.0 | 18.0 | 0.06 | 0.07 | 0.06 | 88 | 1016.0 |
| 20260831021922 | 62 | 282 | 10.0 | 18.0 | 0.06 | 0.06 | 0.06 | 88 | 1015.8 |
| 20260831021821 | 62 | 278 | 10.0 | 18.0 | 0.05 | 0.06 | 0.04 | 87 | 1016.1 |
| 20260831021801 | 62 | 259 | 10.0 | 18.0 | 0.04 | 0.05 | 0.03 | 87 | 1016.1 |
| 20260831021721 | 62 | 269 | 10.0 | 18.0 | 0.03 | 0.04 | 0.03 | 87 | 1016.1 |
| 20260831021616 | 62 | 253 | 10.0 | 18.0 | 0.02 | 0.03 | 0.02 | 87 | 1015.7 |
| 20260831021516 | 62 | 248 | 10.0 | 18.0 | 0.02 | 0.03 | 0.02 | 87 | 1016.1 |
| 20260831021416 | 62 | 262 | 11.0 | 18.0 | 0.02 | 0.03 | 0.02 | 87 | 1015.6 |
| 20260831021316 | 62 | 246 | 10.0 | 18.0 | 0.02 | 0.03 | 0.02 | 87 | 1015.7 |
| 20260831021301 | 62 | 259 | 10.0 | 18.0 | 0.02 | 0.03 | 0.02 | 87 | 1015.7 |
| 20260831021215 | 62 | 278 | 10.0 | 17.0 | 0.02 | 0.03 | 0.02 | 87 | 1015.6 |
| 20260831021110 | 62 | 263 | 10.0 | 18.0 | 0.02 | 0.03 | 0.02 | 87 | 1015.7 |
| 20260831021010 | 62 | 271 | 10.0 | 18.0 | 0.02 | 0.03 | 0.02 | 87 | 1015.6 |
| 20260831020910 | 62 | 271 | 10.0 | 18.0 | 0.02 | 0.03 | 0.02 | 86 | 1015.4 |
| 20260831020809 | 62 | 285 | 10.0 | 18.0 | 0.02 | 0.03 | 0.02 | 86 | 1015.6 |
| 20260831020800 | 62 | 249 | 10.0 | 18.0 | 0.02 | 0.03 | 0.02 | 86 | 1015.6 |
| 20260831020710 | 63 | 256 | 10.0 | 18.0 | 0.02 | 0.03 | 0.02 | 86 | 1015.4 |
| 20260831020603 | 63 | 295 | 10.0 | 27.0 | 0.02 | 0.03 | 0.02 | 86 | 1015.4 |
| 20260831020503 | 63 | 286 | 11.0 | 27.0 | 0.02 | 0.03 | 0.02 | 87 | 1015.1 |
| 20260831020404 | 63 | 252 | 11.0 | 29.0 | 0.02 | 0.03 | 0.02 | 87 | 1014.9 |
| 20260831020304 | 63 | 259 | 12.0 | 29.0 | 0.02 | 0.02 | 0.02 | 87 | 1014.8 |
| 20260831020300 | 63 | 269 | 12.0 | 29.0 | 0.02 | 0.02 | 0.02 | 87 | 1014.8 |
| 20260831020203 | 63 | 264 | 12.0 | 29.0 | 0.02 | 0.02 | 0.02 | 87 | 1014.8 |
| 20260831020002 | 63 | 254 | 12.0 | 29.0 | 0.02 | 0.02 | 0.02 | 87 | 1014.8 |
| 20260831015901 | 63 | 313 | 12.0 | 29.0 | 0.02 | 0.02 | 0.02 | 87 | 1014.7 |
| 20260831015802 | 63 | 287 | 11.0 | 29.0 | 0.02 | 0.02 | 0.02 | 87 | 1015.0 |
| 20260831015701 | 63 | 257 | 10.0 | 29.0 | 0.02 | 0.02 | 0.01 | 87 | 1014.9 |
| 20260831015602 | 63 | 267 | 9.0 | 29.0 | 0.01 | 0.02 | 0.01 | 86 | 1014.9 |
| 20260831015520 | 63 | 302 | 8.0 | 29.0 | 0.01 | 0.02 | 0.00 | 86 | 1015.0 |
| 20260831015516 | 63 | 290 | 6.0 | 19.0 | 0.00 | 0.01 | 0.00 | 86 | 1014.7 |
| 20260831015512 | 63 | 313 | 5.0 | 19.0 | 0.00 | 0.01 | 0.00 | 86 | 1014.7 |
| 20260831015202 | 63 | 273 | 4.0 | 17.0 | 0.00 | 0.01 | 0.00 | 86 | 1014.6 |
| 20260831015101 | 63 | 294 | 3.0 | 16.0 | 0.00 | 0.01 | 0.00 | 86 | 1014.4 |
| 20260831015001 | 63 | 271 | 2.0 | 13.0 | 0.00 | 0.01 | 0.00 | 86 | 1014.3 |
| 20260831014901 | 63 | 288 | 1.0 | 11.0 | 0.00 | 0.01 | 0.00 | 86 | 1013.7 |
| 20260831014801 | 63 | 273 | 0.0 | 7.0 | 0.00 | 0.01 | 0.00 | 85 | 1013.2 |
| 20260831014701 | 63 | 249 | 0.0 | 4.0 | 0.00 | 0.01 | 0.00 | 85 | 1012.8 |
| 20260831014601 | 63 | 105 | 0.0 | 2.0 | 0.00 | 0.01 | 0.00 | 85 | 1012.6 |
| 20260831014500 | 63 | 105 | 0.0 | 1.0 | 0.00 | 0.01 | 0.00 | 85 | 1012.5 |
| 20260831014400 | 63 | 105 | 0.0 | 1.0 | 0.00 | 0.01 | 0.00 | 85 | 1012.4 |
| 20260831014301 | 63 | 105 | 0.0 | 1.0 | 0.00 | 0.01 | 0.00 | 85 | 1012.4 |
| 20260831014201 | 63 | 105 | 0.0 | 1.0 | 0.00 | 0.01 | 0.00 | 85 | 1012.3 |
| 20260831014059 | 63 | 105 | 0.0 | 1.0 | 0.00 | 0.01 | 0.00 | 85 | 1012.1 |
| 20260831013957 | 63 | 105 | 0.0 | 1.0 | 0.00 | 0.01 | 0.00 | 85 | 1012.3 |
| 20260831013852 | 63 | 105 | 0.0 | 2.0 | 0.00 | 0.01 | 0.00 | 85 | 1012.3 |
| 20260831013801 | 63 | 105 | 0.0 | 2.0 | 0.00 | 0.01 | 0.00 | 85 | 1012.3 |
| 20260831013752 | 63 | 105 | 0.0 | 2.0 | 0.00 | 0.01 | 0.00 | 85 | 1012.3 |
| 20260831013652 | 63 | 105 | 0.0 | 2.0 | 0.00 | 0.01 | 0.00 | 85 | 1012.3 |
| 20260831013552 | 63 | 105 | 0.0 | 2.0 | 0.00 | 0.01 | 0.00 | 85 | 1012.3 |
| 20260831013451 | 63 | 105 | 0.0 | 2.0 | 0.00 | 0.01 | 0.00 | 85 | 1012.3 |
| 20260831013351 | 63 | 105 | 0.0 | 2.0 | 0.00 | 0.01 | 0.00 | 85 | 1012.3 |
| 20260831013300 | 63 | 105 | 0.0 | 2.0 | 0.00 | 0.01 | 0.00 | 85 | 1012.3 |
| 20260831013250 | 63 | 105 | 0.0 | 2.0 | 0.00 | 0.01 | 0.00 | 85 | 1012.3 |
| 20260831013149 | 63 | 105 | 1.0 | 2.0 | 0.00 | 0.01 | 0.00 | 85 | 1012.3 |
| 20260831013048 | 63 | 105 | 0.0 | 2.0 | 0.00 | 0.01 | 0.00 | 85 | 1012.3 |
| 20260831012946 | 63 | 105 | 0.0 | 2.0 | 0.00 | 0.01 | 0.00 | 85 | 1012.3 |
| 20260831012844 | 63 | 105 | 1.0 | 2.0 | 0.00 | 0.01 | 0.00 | 85 | 1012.3 |
| 20260831012801 | 63 | 105 | 1.0 | 2.0 | 0.00 | 0.01 | 0.00 | 84 | 1012.3 |
| 20260831012744 | 63 | 105 | 1.0 | 2.0 | 0.00 | 0.01 | 0.00 | 84 | 1012.3 |
| 20260831012644 | 63 | 105 | 1.0 | 2.0 | 0.00 | 0.01 | 0.00 | 84 | 1012.3 |
| 20260831012542 | 63 | 105 | 1.0 | 2.0 | 0.00 | 0.01 | 0.00 | 85 | 1012.3 |
| 20260831012441 | 63 | 105 | 1.0 | 2.0 | 0.00 | 0.01 | 0.00 | 85 | 1012.3 |
| 20260831012342 | 63 | 105 | 1.0 | 2.0 | 0.00 | 0.01 | 0.00 | 85 | 1012.3 |
| 20260831012300 | 63 | 105 | 1.0 | 2.0 | 0.00 | 0.01 | 0.00 | 85 | 1012.4 |
| 20260831012241 | 63 | 105 | 1.0 | 2.0 | 0.00 | 0.01 | 0.00 | 85 | 1012.4 |
| 20260831012139 | 63 | 105 | 1.0 | 2.0 | 0.00 | 0.01 | 0.00 | 85 | 1012.4 |
| 20260831012040 | 63 | 104 | 1.0 | 2.0 | 0.00 | 0.01 | 0.00 | 85 | 1012.4 |
| 20260831012028 | 63 | 105 | 1.0 | 3.0 | 0.00 | 0.01 | 0.00 | 85 | 1012.4 |
| 20260831012017 | 63 | 105 | 1.0 | 2.0 | 0.00 | 0.01 | 0.00 | 85 | 1012.4 |
| 20260831012013 | 63 | 105 | 1.0 | 2.0 | 0.00 | 0.01 | 0.00 | 85 | 1012.3 |
| 20260831011740 | 63 | 105 | 1.0 | 3.0 | 0.00 | 0.01 | 0.00 | 85 | 1012.4 |
| 20260831011640 | 63 | 105 | 1.0 | 3.0 | 0.00 | 0.01 | 0.00 | 85 | 1012.4 |
| 20260831011540 | 63 | 105 | 1.0 | 3.0 | 0.00 | 0.01 | 0.00 | 85 | 1012.4 |
| 20260831011440 | 63 | 105 | 1.0 | 3.0 | 0.00 | 0.01 | 0.00 | 85 | 1012.4 |
| 20260831011339 | 63 | 105 | 1.0 | 3.0 | 0.00 | 0.01 | 0.00 | 85 | 1012.4 |
| 20260831011301 | 63 | 105 | 1.0 | 3.0 | 0.00 | 0.01 | 0.00 | 85 | 1012.4 |
| 20260831011237 | 63 | 105 | 1.0 | 3.0 | 0.00 | 0.01 | 0.00 | 85 | 1012.4 |
| 20260831011136 | 63 | 105 | 1.0 | 3.0 | 0.00 | 0.01 | 0.00 | 85 | 1012.5 |
| 20260831011036 | 63 | 105 | 1.0 | 3.0 | 0.00 | 0.01 | 0.00 | 85 | 1012.4 |
| 20260831010934 | 63 | 105 | 1.0 | 3.0 | 0.00 | 0.01 | 0.00 | 85 | 1012.4 |
| 20260831010834 | 63 | 105 | 1.0 | 3.0 | 0.00 | 0.01 | 0.00 | 85 | 1012.4 |
| 20260831010801 | 63 | 105 | 1.0 | 3.0 | 0.00 | 0.01 | 0.00 | 85 | 1012.4 |
| 20260831010733 | 63 | 105 | 1.0 | 3.0 | 0.00 | 0.01 | 0.00 | 85 | 1012.4 |
| 20260831010632 | 63 | 106 | 1.0 | 2.0 | 0.00 | 0.01 | 0.00 | 85 | 1012.4 |
| 20260831010531 | 63 | 107 | 1.0 | 2.0 | 0.00 | 0.01 | 0.00 | 85 | 1012.4 |
| 20260831010431 | 63 | 106 | 0.0 | 2.0 | 0.00 | 0.01 | 0.00 | 85 | 1012.4 |
| 20260831010301 | 63 | 107 | 0.0 | 2.0 | 0.00 | 0.01 | 0.00 | 85 | 1012.5 |
| 20260831010230 | 63 | 107 | 0.0 | 2.0 | 0.00 | 0.01 | 0.00 | 85 | 1012.5 |
| 20260831010129 | 63 | 107 | 0.0 | 3.0 | 0.00 | 0.01 | 0.00 | 85 | 1012.5 |
| 20260831010029 | 63 | 107 | 0.0 | 3.0 | 0.00 | 0.01 | 0.00 | 85 | 1012.5 |
| 20260831005930 | 63 | 107 | 1.0 | 3.0 | 0.00 | 0.01 | 0.00 | 85 | 1012.5 |
| 20260831005801 | 63 | 107 | 1.0 | 3.0 | 0.00 | 0.01 | 0.00 | 85 | 1012.5 |
| 20260831005729 | 63 | 107 | 1.0 | 3.0 | 0.00 | 0.01 | 0.00 | 85 | 1012.5 |
| 20260831005629 | 63 | 107 | 1.0 | 3.0 | 0.00 | 0.01 | 0.00 | 85 | 1012.6 |
| 20260831005529 | 63 | 107 | 1.0 | 3.0 | 0.00 | 0.01 | 0.00 | 85 | 1012.6 |
| 20260831005429 | 63 | 107 | 1.0 | 3.0 | 0.00 | 0.01 | 0.00 | 85 | 1012.6 |
| 20260831005329 | 63 | 107 | 1.0 | 3.0 | 0.00 | 0.01 | 0.00 | 85 | 1012.6 |
| 20260831005301 | 63 | 107 | 1.0 | 3.0 | 0.00 | 0.01 | 0.00 | 85 | 1012.7 |
| 20260831005229 | 63 | 107 | 1.0 | 3.0 | 0.00 | 0.01 | 0.00 | 85 | 1012.7 |
| 20260831005129 | 63 | 107 | 1.0 | 3.0 | 0.00 | 0.01 | 0.00 | 85 | 1012.7 |
| 20260831005029 | 63 | 107 | 1.0 | 3.0 | 0.00 | 0.01 | 0.00 | 85 | 1012.7 |
| 20260831004929 | 63 | 107 | 1.0 | 3.0 | 0.00 | 0.01 | 0.00 | 85 | 1012.7 |
| 20260831004829 | 63 | 107 | 1.0 | 3.0 | 0.00 | 0.01 | 0.00 | 85 | 1012.7 |
| 20260831004801 | 63 | 107 | 0.0 | 3.0 | 0.00 | 0.01 | 0.00 | 85 | 1012.7 |
| 20260831004729 | 63 | 107 | 0.0 | 3.0 | 0.00 | 0.01 | 0.00 | 85 | 1012.7 |
| 20260831004629 | 63 | 107 | 0.0 | 3.0 | 0.00 | 0.01 | 0.00 | 85 | 1012.7 |
| 20260831004529 | 63 | 105 | 0.0 | 2.0 | 0.00 | 0.01 | 0.00 | 85 | 1012.7 |
| 20260831004515 | 63 | 105 | 0.0 | 2.0 | 0.00 | 0.01 | 0.00 | 85 | 1012.7 |
| 20260831004511 | 63 | 106 | 0.0 | 2.0 | 0.00 | 0.01 | 0.00 | 85 | 1012.7 |
| 20260831004228 | 63 | 106 | 0.0 | 2.0 | 0.00 | 0.01 | 0.00 | 85 | 1012.7 |
| 20260831004128 | 63 | 106 | 0.0 | 2.0 | 0.00 | 0.01 | 0.00 | 85 | 1012.7 |
| 20260831004029 | 63 | 106 | 0.0 | 2.0 | 0.00 | 0.01 | 0.00 | 85 | 1012.7 |
| 20260831003929 | 63 | 106 | 0.0 | 2.0 | 0.00 | 0.01 | 0.00 | 85 | 1012.7 |
| 20260831003800 | 63 | 106 | 0.0 | 2.0 | 0.00 | 0.01 | 0.00 | 85 | 1012.7 |
| 20260831003729 | 63 | 106 | 0.0 | 2.0 | 0.00 | 0.01 | 0.00 | 85 | 1012.7 |
| 20260831003629 | 63 | 106 | 1.0 | 2.0 | 0.00 | 0.01 | 0.00 | 85 | 1012.7 |
| 20260831003529 | 63 | 106 | 1.0 | 2.0 | 0.00 | 0.01 | 0.00 | 85 | 1012.7 |
| 20260831003515 | 63 | 106 | 1.0 | 2.0 | 0.00 | 0.01 | 0.00 | 85 | 1012.7 |
| 20260831003511 | 63 | 106 | 1.0 | 2.0 | 0.00 | 0.01 | 0.00 | 85 | 1012.7 |
| 20260831003224 | 63 | 106 | 1.0 | 2.0 | 0.00 | 0.01 | 0.00 | 85 | 1012.7 |
| 20260831003122 | 63 | 106 | 0.0 | 2.0 | 0.00 | 0.01 | 0.00 | 85 | 1012.7 |
| 20260831003022 | 63 | 106 | 1.0 | 2.0 | 0.00 | 0.01 | 0.00 | 85 | 1012.8 |
| 20260831002922 | 63 | 106 | 1.0 | 2.0 | 0.00 | 0.01 | 0.00 | 85 | 1012.8 |
| 20260831002801 | 63 | 106 | 1.0 | 2.0 | 0.00 | 0.01 | 0.00 | 85 | 1012.7 |
| 20260831002721 | 63 | 106 | 1.0 | 2.0 | 0.00 | 0.01 | 0.00 | 85 | 1012.7 |
| 20260831002619 | 63 | 106 | 1.0 | 2.0 | 0.00 | 0.01 | 0.00 | 84 | 1012.7 |
| 20260831002519 | 63 | 106 | 1.0 | 2.0 | 0.00 | 0.01 | 0.00 | 84 | 1012.8 |
| 20260831002515 | 63 | 106 | 1.0 | 2.0 | 0.00 | 0.01 | 0.00 | 84 | 1012.8 |
| 20260831002511 | 63 | 106 | 1.0 | 2.0 | 0.00 | 0.01 | 0.00 | 84 | 1012.8 |
| 20260831002217 | 63 | 106 | 1.0 | 2.0 | 0.00 | 0.01 | 0.00 | 84 | 1012.9 |
| 20260831002117 | 63 | 106 | 1.0 | 2.0 | 0.00 | 0.01 | 0.00 | 84 | 1012.8 |
| 20260831002017 | 63 | 106 | 1.0 | 2.0 | 0.00 | 0.01 | 0.00 | 84 | 1012.8 |
| 20260831001917 | 63 | 106 | 1.0 | 2.0 | 0.00 | 0.01 | 0.00 | 84 | 1012.8 |
| 20260831001801 | 63 | 106 | 1.0 | 2.0 | 0.00 | 0.01 | 0.00 | 84 | 1012.9 |
| 20260831001718 | 63 | 106 | 1.0 | 2.0 | 0.00 | 0.01 | 0.00 | 84 | 1012.9 |
| 20260831001617 | 63 | 106 | 1.0 | 2.0 | 0.00 | 0.01 | 0.00 | 84 | 1012.9 |
| 20260831001514 | 63 | 106 | 1.0 | 2.0 | 0.00 | 0.01 | 0.00 | 84 | 1012.9 |
| 20260831001414 | 63 | 106 | 1.0 | 2.0 | 0.00 | 0.01 | 0.00 | 84 | 1012.9 |
| 20260831001314 | 63 | 105 | 1.0 | 2.0 | 0.00 | 0.01 | 0.00 | 84 | 1012.9 |
| 20260831001300 | 63 | 106 | 1.0 | 2.0 | 0.00 | 0.01 | 0.00 | 84 | 1012.9 |
| 20260831001213 | 63 | 106 | 1.0 | 2.0 | 0.00 | 0.01 | 0.00 | 84 | 1012.9 |
| 20260831001114 | 63 | 106 | 1.0 | 2.0 | 0.00 | 0.01 | 0.00 | 84 | 1012.9 |
| 20260831001013 | 63 | 105 | 1.0 | 2.0 | 0.00 | 0.01 | 0.00 | 84 | 1012.9 |
| 20260831000913 | 63 | 106 | 1.0 | 2.0 | 0.00 | 0.01 | 0.00 | 84 | 1012.9 |
| 20260831000801 | 63 | 105 | 0.0 | 2.0 | 0.00 | 0.01 | 0.00 | 84 | 1013.0 |
| 20260831000713 | 63 | 105 | 0.0 | 2.0 | 0.00 | 0.01 | 0.00 | 84 | 1013.0 |
| 20260831000613 | 63 | 105 | 0.0 | 2.0 | 0.00 | 0.01 | 0.00 | 84 | 1013.0 |
| 20260831000521 | 63 | 105 | 0.0 | 2.0 | 0.00 | 0.01 | 0.00 | 84 | 1013.0 |
| 20260831000517 | 63 | 105 | 0.0 | 2.0 | 0.00 | 0.01 | 0.00 | 84 | 1013.0 |
| 20260831000513 | 63 | 105 | 0.0 | 2.0 | 0.00 | 0.01 | 0.00 | 84 | 1013.0 |
| 20260831000211 | 63 | 105 | 1.0 | 2.0 | 0.00 | 0.01 | 0.00 | 84 | 1013.0 |
| 20260831000112 | 63 | 105 | 1.0 | 2.0 | 0.00 | 0.01 | 0.00 | 84 | 1013.0 |
| 20260831000011 | 63 | 105 | 1.0 | 2.0 | 0.00 | 0.01 | 0.00 | 84 | 1013.0 |
| 20260830235911 | 63 | 105 | 1.0 | 2.0 | 0.00 | 0.01 | 0.00 | 84 | 1013.0 |
| 20260830235801 | 63 | 105 | 1.0 | 2.0 | 0.00 | 0.01 | 0.00 | 83 | 1013.0 |
| 20260830235711 | 63 | 105 | 1.0 | 2.0 | 0.00 | 0.01 | 0.00 | 83 | 1013.0 |
| 20260830235611 | 63 | 105 | 1.0 | 2.0 | 0.00 | 0.01 | 0.00 | 83 | 1013.1 |
| 20260830235511 | 63 | 105 | 1.0 | 2.0 | 0.00 | 0.01 | 0.00 | 83 | 1013.0 |
| 20260830235411 | 63 | 105 | 1.0 | 2.0 | 0.00 | 0.01 | 0.00 | 83 | 1013.0 |
| 20260830235301 | 63 | 105 | 1.0 | 2.0 | 0.00 | 0.01 | 0.00 | 83 | 1013.0 |
| 20260830235211 | 63 | 105 | 1.0 | 2.0 | 0.00 | 0.01 | 0.00 | 83 | 1013.0 |
| 20260830235111 | 63 | 105 | 1.0 | 2.0 | 0.00 | 0.01 | 0.00 | 83 | 1013.0 |
| 20260830235011 | 63 | 105 | 1.0 | 2.0 | 0.00 | 0.01 | 0.00 | 83 | 1013.0 |
| 20260830234911 | 63 | 105 | 1.0 | 2.0 | 0.00 | 0.01 | 0.00 | 83 | 1013.0 |
| 20260830234801 | 63 | 105 | 1.0 | 2.0 | 0.00 | 0.01 | 0.00 | 83 | 1013.0 |
| 20260830234712 | 63 | 105 | 1.0 | 2.0 | 0.00 | 0.01 | 0.00 | 83 | 1013.0 |
| 20260830234612 | 63 | 105 | 1.0 | 2.0 | 0.00 | 0.01 | 0.00 | 83 | 1013.0 |
| 20260830234511 | 63 | 105 | 1.0 | 2.0 | 0.00 | 0.01 | 0.00 | 83 | 1013.0 |
| 20260830234407 | 64 | 105 | 1.0 | 2.0 | 0.00 | 0.01 | 0.00 | 83 | 1013.0 |
| 20260830234301 | 64 | 105 | 1.0 | 2.0 | 0.00 | 0.01 | 0.00 | 83 | 1013.0 |
| 20260830234208 | 63 | 105 | 1.0 | 2.0 | 0.00 | 0.01 | 0.00 | 83 | 1013.0 |
| 20260830234107 | 64 | 105 | 1.0 | 2.0 | 0.00 | 0.01 | 0.00 | 83 | 1013.0 |
| 20260830234020 | 64 | 105 | 1.0 | 2.0 | 0.00 | 0.01 | 0.00 | 83 | 1013.0 |
| 20260830234016 | 64 | 105 | 1.0 | 2.0 | 0.00 | 0.01 | 0.00 | 83 | 1013.0 |
| 20260830234012 | 64 | 105 | 1.0 | 2.0 | 0.00 | 0.01 | 0.00 | 83 | 1013.0 |
| 20260830233708 | 64 | 105 | 1.0 | 2.0 | 0.00 | 0.01 | 0.00 | 83 | 1013.0 |
| 20260830233608 | 64 | 105 | 1.0 | 2.0 | 0.00 | 0.01 | 0.00 | 83 | 1013.0 |
| 20260830233521 | 64 | 105 | 1.0 | 2.0 | 0.00 | 0.01 | 0.00 | 83 | 1013.0 |
| 20260830233517 | 64 | 105 | 1.0 | 2.0 | 0.00 | 0.01 | 0.00 | 83 | 1013.1 |
| 20260830233513 | 64 | 105 | 1.0 | 2.0 | 0.00 | 0.01 | 0.00 | 83 | 1013.1 |
| 20260830233207 | 64 | 105 | 1.0 | 2.0 | 0.00 | 0.01 | 0.00 | 83 | 1013.1 |
| 20260830233108 | 64 | 105 | 1.0 | 2.0 | 0.00 | 0.01 | 0.00 | 83 | 1013.1 |
| 20260830233008 | 64 | 105 | 1.0 | 2.0 | 0.00 | 0.01 | 0.00 | 83 | 1013.1 |
| 20260830232908 | 64 | 106 | 1.0 | 2.0 | 0.00 | 0.01 | 0.00 | 83 | 1013.1 |
| 20260830232807 | 64 | 106 | 1.0 | 2.0 | 0.00 | 0.01 | 0.00 | 83 | 1013.1 |
| 20260830232759 | 64 | 106 | 1.0 | 2.0 | 0.00 | 0.01 | 0.00 | 83 | 1013.1 |
| 20260830232707 | 64 | 106 | 1.0 | 4.0 | 0.00 | 0.01 | 0.00 | 83 | 1013.1 |
| 20260830232607 | 64 | 106 | 0.0 | 4.0 | 0.00 | 0.01 | 0.00 | 83 | 1013.1 |
| 20260830232503 | 64 | 106 | 0.0 | 4.0 | 0.00 | 0.01 | 0.00 | 83 | 1013.1 |
| 20260830232403 | 64 | 106 | 0.0 | 4.0 | 0.00 | 0.01 | 0.00 | 83 | 1013.1 |
| 20260830232306 | 64 | 106 | 1.0 | 4.0 | 0.00 | 0.01 | 0.00 | 83 | 1013.1 |
| 20260830232301 | 64 | 106 | 1.0 | 4.0 | 0.00 | 0.01 | 0.00 | 83 | 1013.1 |
| 20260830232204 | 64 | 106 | 1.0 | 4.0 | 0.00 | 0.01 | 0.00 | 83 | 1013.1 |
| 20260830232103 | 64 | 106 | 1.0 | 4.0 | 0.00 | 0.01 | 0.00 | 83 | 1013.1 |
| 20260830232004 | 64 | 106 | 1.0 | 4.0 | 0.00 | 0.01 | 0.00 | 83 | 1013.2 |
| 20260830231904 | 64 | 107 | 1.0 | 4.0 | 0.00 | 0.01 | 0.00 | 83 | 1013.2 |
| 20260830231804 | 64 | 107 | 1.0 | 4.0 | 0.00 | 0.01 | 0.00 | 83 | 1013.2 |
| 20260830231759 | 64 | 107 | 1.0 | 4.0 | 0.00 | 0.01 | 0.00 | 83 | 1013.2 |
| 20260830231704 | 64 | 123 | 1.0 | 3.0 | 0.00 | 0.01 | 0.00 | 83 | 1013.2 |
| 20260830231604 | 64 | 124 | 1.0 | 3.0 | 0.00 | 0.01 | 0.00 | 83 | 1013.2 |
| 20260830231504 | 64 | 123 | 1.0 | 3.0 | 0.00 | 0.01 | 0.00 | 83 | 1013.2 |
| 20260830231404 | 64 | 124 | 1.0 | 3.0 | 0.00 | 0.01 | 0.00 | 83 | 1013.2 |
| 20260830231303 | 64 | 124 | 1.0 | 3.0 | 0.00 | 0.01 | 0.00 | 83 | 1013.2 |
| 20260830231259 | 64 | 124 | 1.0 | 3.0 | 0.00 | 0.01 | 0.00 | 83 | 1013.2 |
| 20260830231203 | 64 | 125 | 1.0 | 3.0 | 0.00 | 0.01 | 0.00 | 84 | 1013.2 |
| 20260830231103 | 64 | 125 | 1.0 | 3.0 | 0.00 | 0.01 | 0.00 | 84 | 1013.2 |
| 20260830231003 | 64 | 125 | 1.0 | 3.0 | 0.00 | 0.01 | 0.00 | 83 | 1013.2 |
| 20260830230903 | 64 | 125 | 1.0 | 3.0 | 0.00 | 0.01 | 0.00 | 84 | 1013.2 |
| 20260830230804 | 64 | 125 | 1.0 | 3.0 | 0.00 | 0.01 | 0.00 | 84 | 1013.2 |
| 20260830230800 | 64 | 125 | 1.0 | 3.0 | 0.00 | 0.01 | 0.00 | 84 | 1013.2 |
| 20260830230704 | 64 | 126 | 1.0 | 3.0 | 0.00 | 0.01 | 0.00 | 84 | 1013.2 |
| 20260830230603 | 64 | 127 | 1.0 | 3.0 | 0.00 | 0.01 | 0.00 | 83 | 1013.2 |
| 20260830230501 | 64 | 127 | 1.0 | 3.0 | 0.00 | 0.01 | 0.00 | 84 | 1013.2 |
| 20260830230401 | 64 | 127 | 1.0 | 3.0 | 0.00 | 0.01 | 0.00 | 84 | 1013.3 |
| 20260830230304 | 64 | 127 | 1.0 | 2.0 | 0.00 | 0.01 | 0.00 | 84 | 1013.3 |
| 20260830230300 | 64 | 127 | 1.0 | 2.0 | 0.00 | 0.01 | 0.00 | 84 | 1013.3 |
| 20260830230202 | 64 | 128 | 1.0 | 2.0 | 0.00 | 0.01 | 0.00 | 84 | 1013.3 |
| 20260830230002 | 64 | 128 | 1.0 | 2.0 | 0.00 | 0.01 | 0.00 | 84 | 1013.3 |
| 20260830225902 | 64 | 128 | 1.0 | 2.0 | 0.00 | 0.01 | 0.00 | 84 | 1013.3 |
| 20260830225803 | 64 | 128 | 1.0 | 2.0 | 0.00 | 0.01 | 0.00 | 84 | 1013.4 |
| 20260830225759 | 64 | 128 | 1.0 | 2.0 | 0.00 | 0.01 | 0.00 | 84 | 1013.4 |
| 20260830225702 | 64 | 128 | 0.0 | 2.0 | 0.00 | 0.01 | 0.00 | 84 | 1013.4 |
| 20260830225601 | 64 | 128 | 0.0 | 2.0 | 0.00 | 0.01 | 0.00 | 84 | 1013.4 |
| 20260830225501 | 64 | 128 | 0.0 | 2.0 | 0.00 | 0.01 | 0.00 | 84 | 1013.4 |
| 20260830225401 | 64 | 128 | 0.0 | 2.0 | 0.00 | 0.01 | 0.00 | 84 | 1013.4 |
| 20260830225305 | 64 | 128 | 0.0 | 2.0 | 0.00 | 0.01 | 0.00 | 84 | 1013.4 |
| 20260830225300 | 64 | 128 | 0.0 | 2.0 | 0.00 | 0.01 | 0.00 | 84 | 1013.4 |
| 20260830225201 | 64 | 128 | 0.0 | 3.0 | 0.00 | 0.01 | 0.00 | 84 | 1013.3 |
| 20260830225101 | 64 | 128 | 0.0 | 3.0 | 0.00 | 0.01 | 0.00 | 84 | 1013.4 |
| 20260830225001 | 64 | 128 | 1.0 | 3.0 | 0.00 | 0.01 | 0.00 | 84 | 1013.4 |
| 20260830224901 | 64 | 128 | 1.0 | 3.0 | 0.00 | 0.01 | 0.00 | 84 | 1013.4 |
| 20260830224804 | 64 | 128 | 1.0 | 3.0 | 0.00 | 0.01 | 0.00 | 84 | 1013.4 |
| 20260830224759 | 64 | 128 | 1.0 | 3.0 | 0.00 | 0.01 | 0.00 | 84 | 1013.4 |
| 20260830224700 | 64 | 128 | 1.0 | 3.0 | 0.00 | 0.01 | 0.00 | 83 | 1013.4 |
| 20260830224601 | 64 | 128 | 1.0 | 3.0 | 0.00 | 0.01 | 0.00 | 83 | 1013.4 |
| 20260830224501 | 64 | 128 | 1.0 | 3.0 | 0.00 | 0.01 | 0.00 | 83 | 1013.4 |
| 20260830224401 | 64 | 128 | 1.0 | 3.0 | 0.00 | 0.01 | 0.00 | 83 | 1013.4 |
| 20260830224301 | 64 | 129 | 1.0 | 3.0 | 0.00 | 0.01 | 0.00 | 83 | 1013.4 |
| 20260830224252 | 64 | 129 | 1.0 | 3.0 | 0.00 | 0.01 | 0.00 | 83 | 1013.4 |
| 20260830224200 | 64 | 129 | 1.0 | 3.0 | 0.00 | 0.01 | 0.00 | 83 | 1013.4 |
| 20260830224100 | 64 | 131 | 1.0 | 3.0 | 0.00 | 0.01 | 0.00 | 83 | 1013.4 |
| 20260830224014 | 64 | 132 | 1.0 | 3.0 | 0.00 | 0.01 | 0.00 | 83 | 1013.3 |
| 20260830224005 | 64 | 131 | 1.0 | 3.0 | 0.00 | 0.01 | 0.00 | 83 | 1013.4 |
| 20260830224001 | 64 | 131 | 1.0 | 3.0 | 0.00 | 0.01 | 0.00 | 83 | 1013.3 |
| 20260830223957 | 64 | 132 | 1.0 | 3.0 | 0.00 | 0.01 | 0.00 | 83 | 1013.3 |
| 20260830223700 | 64 | 132 | 1.0 | 3.0 | 0.00 | 0.01 | 0.00 | 83 | 1013.3 |
| 20260830223604 | 64 | 132 | 1.0 | 3.0 | 0.00 | 0.01 | 0.00 | 83 | 1013.3 |
| 20260830223501 | 65 | 132 | 1.0 | 3.0 | 0.00 | 0.01 | 0.00 | 83 | 1013.4 |
| 20260830223401 | 65 | 134 | 1.0 | 3.0 | 0.00 | 0.01 | 0.00 | 83 | 1013.4 |
| 20260830223301 | 65 | 136 | 1.0 | 3.0 | 0.00 | 0.01 | 0.00 | 82 | 1013.4 |
| 20260830223240 | 65 | 136 | 1.0 | 3.0 | 0.00 | 0.01 | 0.00 | 82 | 1013.4 |
| 20260830223202 | 65 | 136 | 1.0 | 3.0 | 0.00 | 0.01 | 0.00 | 82 | 1013.4 |
| 20260830223102 | 65 | 136 | 0.0 | 3.0 | 0.00 | 0.01 | 0.00 | 82 | 1013.4 |
| 20260830223005 | 65 | 136 | 0.0 | 2.0 | 0.00 | 0.01 | 0.00 | 83 | 1013.5 |
| 20260830223001 | 65 | 137 | 0.0 | 2.0 | 0.00 | 0.01 | 0.00 | 82 | 1013.4 |
| 20260830222957 | 65 | 136 | 0.0 | 2.0 | 0.00 | 0.01 | 0.00 | 82 | 1013.4 |
| 20260830222953 | 65 | 136 | 0.0 | 2.0 | 0.00 | 0.01 | 0.00 | 83 | 1013.5 |
| 20260830222701 | 65 | 136 | 0.0 | 2.0 | 0.00 | 0.01 | 0.00 | 83 | 1013.5 |
| 20260830222601 | 65 | 136 | 0.0 | 2.0 | 0.00 | 0.01 | 0.00 | 82 | 1013.5 |
| 20260830222501 | 65 | 136 | 0.0 | 2.0 | 0.00 | 0.01 | 0.00 | 82 | 1013.5 |
| 20260830222401 | 65 | 136 | 0.0 | 2.0 | 0.00 | 0.01 | 0.00 | 82 | 1013.5 |
| 20260830222301 | 65 | 136 | 0.0 | 2.0 | 0.00 | 0.01 | 0.00 | 82 | 1013.5 |
| 20260830222228 | 65 | 136 | 1.0 | 3.0 | 0.00 | 0.01 | 0.00 | 82 | 1013.6 |
| 20260830222224 | 65 | 136 | 0.0 | 2.0 | 0.00 | 0.01 | 0.00 | 82 | 1013.5 |
| 20260830222220 | 65 | 136 | 0.0 | 2.0 | 0.00 | 0.01 | 0.00 | 82 | 1013.5 |
| 20260830222212 | 65 | 136 | 0.0 | 2.0 | 0.00 | 0.01 | 0.00 | 82 | 1013.5 |
| 20260830221953 | 65 | 136 | 0.0 | 2.0 | 0.00 | 0.01 | 0.00 | 82 | 1013.5 |
| 20260830221949 | 65 | 136 | 1.0 | 3.0 | 0.00 | 0.01 | 0.00 | 82 | 1013.6 |
| 20260830221702 | 65 | 136 | 1.0 | 3.0 | 0.00 | 0.01 | 0.00 | 82 | 1013.6 |
| 20260830221600 | 65 | 136 | 1.0 | 3.0 | 0.00 | 0.01 | 0.00 | 82 | 1013.6 |
| 20260830221500 | 65 | 136 | 1.0 | 3.0 | 0.00 | 0.01 | 0.00 | 82 | 1013.6 |
| 20260830221359 | 65 | 136 | 1.0 | 3.0 | 0.00 | 0.01 | 0.00 | 82 | 1013.6 |
| 20260830221239 | 65 | 136 | 1.0 | 3.0 | 0.00 | 0.01 | 0.00 | 82 | 1013.6 |
| 20260830221227 | 65 | 137 | 1.0 | 2.0 | 0.00 | 0.01 | 0.00 | 82 | 1013.7 |
| 20260830221223 | 65 | 136 | 1.0 | 3.0 | 0.00 | 0.01 | 0.00 | 82 | 1013.6 |
| 20260830221218 | 65 | 136 | 1.0 | 3.0 | 0.00 | 0.01 | 0.00 | 82 | 1013.6 |
| 20260830220957 | 65 | 136 | 1.0 | 3.0 | 0.00 | 0.01 | 0.00 | 82 | 1013.6 |
| 20260830220953 | 65 | 136 | 1.0 | 3.0 | 0.00 | 0.01 | 0.00 | 82 | 1013.7 |
| 20260830220949 | 65 | 137 | 1.0 | 2.0 | 0.00 | 0.01 | 0.00 | 82 | 1013.7 |
| 20260830220656 | 65 | 138 | 1.0 | 2.0 | 0.00 | 0.01 | 0.00 | 82 | 1013.7 |
| 20260830220556 | 65 | 138 | 1.0 | 2.0 | 0.00 | 0.01 | 0.00 | 82 | 1013.7 |
| 20260830220458 | 65 | 138 | 1.0 | 2.0 | 0.00 | 0.01 | 0.00 | 82 | 1013.7 |
| 20260830220454 | 65 | 138 | 1.0 | 2.0 | 0.00 | 0.01 | 0.00 | 82 | 1013.7 |
| 20260830220450 | 65 | 138 | 1.0 | 2.0 | 0.00 | 0.01 | 0.00 | 82 | 1013.7 |
| 20260830220155 | 65 | 138 | 0.0 | 2.0 | 0.00 | 0.01 | 0.00 | 82 | 1013.7 |
| 20260830220052 | 65 | 138 | 0.0 | 2.0 | 0.00 | 0.01 | 0.00 | 83 | 1013.7 |
| 20260830215952 | 65 | 138 | 0.0 | 2.0 | 0.00 | 0.01 | 0.01 | 82 | 1013.8 |
| 20260830215852 | 65 | 138 | 0.0 | 2.0 | 0.00 | 0.01 | 0.01 | 82 | 1013.7 |
| 20260830215737 | 65 | 138 | 0.0 | 2.0 | 0.00 | 0.01 | 0.01 | 82 | 1013.7 |
| 20260830215648 | 65 | 138 | 0.0 | 2.0 | 0.00 | 0.01 | 0.01 | 82 | 1013.8 |
| 20260830215548 | 65 | 138 | 0.0 | 2.0 | 0.00 | 0.01 | 0.01 | 82 | 1013.8 |
| 20260830215448 | 65 | 138 | 0.0 | 2.0 | 0.00 | 0.01 | 0.01 | 82 | 1013.9 |
| 20260830215348 | 65 | 138 | 0.0 | 2.0 | 0.00 | 0.01 | 0.01 | 82 | 1013.9 |
| 20260830215237 | 65 | 138 | 0.0 | 2.0 | 0.00 | 0.01 | 0.01 | 82 | 1013.9 |
| 20260830215147 | 65 | 138 | 1.0 | 3.0 | 0.00 | 0.01 | 0.01 | 82 | 1013.8 |
| 20260830215047 | 65 | 138 | 1.0 | 3.0 | 0.00 | 0.01 | 0.01 | 82 | 1013.9 |
| 20260830214955 | 65 | 138 | 1.0 | 3.0 | 0.00 | 0.01 | 0.01 | 82 | 1013.9 |
| 20260830214951 | 65 | 138 | 1.0 | 3.0 | 0.00 | 0.01 | 0.01 | 82 | 1013.9 |
| 20260830214947 | 65 | 138 | 1.0 | 3.0 | 0.00 | 0.01 | 0.01 | 82 | 1013.8 |
| 20260830214640 | 65 | 138 | 1.0 | 3.0 | 0.00 | 0.01 | 0.01 | 82 | 1013.8 |
| 20260830214541 | 65 | 138 | 1.0 | 3.0 | 0.00 | 0.01 | 0.01 | 82 | 1013.8 |
| 20260830214459 | 65 | 138 | 1.0 | 3.0 | 0.00 | 0.01 | 0.01 | 82 | 1013.8 |
| 20260830214454 | 65 | 138 | 1.0 | 3.0 | 0.00 | 0.01 | 0.01 | 82 | 1013.9 |
| 20260830214450 | 65 | 138 | 1.0 | 3.0 | 0.00 | 0.01 | 0.01 | 82 | 1013.9 |
| 20260830214134 | 65 | 138 | 1.0 | 3.0 | 0.00 | 0.01 | 0.01 | 82 | 1013.9 |
| 20260830214038 | 65 | 140 | 1.0 | 2.0 | 0.00 | 0.01 | 0.01 | 83 | 1013.9 |
| 20260830213932 | 65 | 140 | 1.0 | 2.0 | 0.00 | 0.01 | 0.01 | 82 | 1013.9 |
| 20260830213830 | 65 | 140 | 1.0 | 2.0 | 0.00 | 0.01 | 0.01 | 82 | 1013.9 |
| 20260830213730 | 65 | 140 | 1.0 | 2.0 | 0.00 | 0.01 | 0.01 | 82 | 1013.9 |
| 20260830213630 | 65 | 140 | 1.0 | 2.0 | 0.00 | 0.01 | 0.01 | 82 | 1013.9 |
| 20260830213529 | 65 | 140 | 1.0 | 2.0 | 0.00 | 0.01 | 0.01 | 82 | 1013.9 |
| 20260830213430 | 65 | 140 | 1.0 | 2.0 | 0.00 | 0.01 | 0.01 | 82 | 1013.9 |
| 20260830213330 | 65 | 140 | 1.0 | 2.0 | 0.00 | 0.01 | 0.01 | 82 | 1013.9 |
| 20260830213229 | 65 | 140 | 1.0 | 2.0 | 0.00 | 0.01 | 0.01 | 82 | 1013.9 |
| 20260830213129 | 65 | 140 | 1.0 | 2.0 | 0.00 | 0.01 | 0.01 | 82 | 1013.8 |
| 20260830213033 | 65 | 140 | 1.0 | 2.0 | 0.00 | 0.01 | 0.01 | 82 | 1013.8 |
| 20260830213003 | 65 | 140 | 0.0 | 2.0 | 0.00 | 0.01 | 0.01 | 82 | 1013.9 |
| 20260830212949 | 65 | 140 | 1.0 | 2.0 | 0.00 | 0.01 | 0.01 | 82 | 1013.9 |
| 20260830212944 | 65 | 140 | 1.0 | 2.0 | 0.00 | 0.01 | 0.01 | 82 | 1013.9 |
| 20260830212729 | 65 | 140 | 0.0 | 2.0 | 0.00 | 0.01 | 0.01 | 81 | 1013.9 |
| 20260830212628 | 65 | 140 | 0.0 | 2.0 | 0.00 | 0.01 | 0.01 | 81 | 1013.9 |
| 20260830212532 | 65 | 140 | 0.0 | 2.0 | 0.00 | 0.01 | 0.01 | 81 | 1013.8 |
| 20260830212429 | 65 | 140 | 0.0 | 2.0 | 0.00 | 0.01 | 0.01 | 81 | 1013.9 |
| 20260830212328 | 65 | 140 | 0.0 | 2.0 | 0.00 | 0.01 | 0.01 | 82 | 1013.9 |
| 20260830212229 | 65 | 140 | 0.0 | 1.0 | 0.00 | 0.01 | 0.01 | 82 | 1013.9 |
| 20260830212129 | 65 | 140 | 0.0 | 2.0 | 0.00 | 0.01 | 0.01 | 81 | 1013.9 |
| 20260830212037 | 65 | 140 | 0.0 | 2.0 | 0.00 | 0.01 | 0.01 | 81 | 1013.9 |
| 20260830211952 | 65 | 140 | 0.0 | 2.0 | 0.00 | 0.01 | 0.01 | 81 | 1013.9 |
| 20260830211948 | 65 | 140 | 0.0 | 2.0 | 0.00 | 0.01 | 0.01 | 81 | 1013.9 |
| 20260830211944 | 65 | 140 | 0.0 | 2.0 | 0.00 | 0.01 | 0.01 | 81 | 1013.9 |
| 20260830211728 | 65 | 140 | 0.0 | 2.0 | 0.00 | 0.01 | 0.01 | 81 | 1013.9 |
| 20260830211628 | 65 | 140 | 0.0 | 2.0 | 0.00 | 0.01 | 0.01 | 81 | 1013.9 |
| 20260830211528 | 65 | 140 | 1.0 | 2.0 | 0.00 | 0.01 | 0.01 | 81 | 1013.9 |
| 20260830211429 | 65 | 140 | 1.0 | 2.0 | 0.00 | 0.01 | 0.01 | 81 | 1013.9 |
| 20260830211324 | 65 | 140 | 1.0 | 2.0 | 0.00 | 0.01 | 0.01 | 81 | 1013.9 |
| 20260830211225 | 65 | 140 | 1.0 | 2.0 | 0.00 | 0.01 | 0.01 | 81 | 1013.9 |
| 20260830211124 | 65 | 140 | 1.0 | 2.0 | 0.00 | 0.01 | 0.01 | 81 | 1013.9 |
| 20260830211025 | 65 | 140 | 1.0 | 2.0 | 0.00 | 0.01 | 0.01 | 82 | 1013.9 |
| 20260830210924 | 65 | 140 | 1.0 | 2.0 | 0.00 | 0.01 | 0.01 | 81 | 1013.9 |
| 20260830210820 | 65 | 140 | 1.0 | 2.0 | 0.00 | 0.01 | 0.01 | 81 | 1013.9 |
| 20260830210720 | 65 | 140 | 1.0 | 2.0 | 0.00 | 0.01 | 0.01 | 81 | 1013.9 |
| 20260830210620 | 65 | 141 | 1.0 | 2.0 | 0.00 | 0.01 | 0.01 | 81 | 1013.9 |
| 20260830210524 | 65 | 141 | 1.0 | 2.0 | 0.00 | 0.01 | 0.01 | 81 | 1014.1 |
| 20260830210420 | 65 | 141 | 1.0 | 2.0 | 0.00 | 0.01 | 0.01 | 81 | 1013.9 |
| 20260830210320 | 65 | 141 | 1.0 | 3.0 | 0.00 | 0.01 | 0.01 | 81 | 1014.1 |
| 20260830210223 | 65 | 141 | 1.0 | 4.0 | 0.00 | 0.01 | 0.01 | 81 | 1014.1 |
| 20260830210219 | 65 | 141 | 1.0 | 4.0 | 0.00 | 0.01 | 0.01 | 81 | 1013.9 |
| 20260830210207 | 65 | 141 | 1.0 | 4.0 | 0.00 | 0.01 | 0.01 | 81 | 1014.1 |
| 20260830210203 | 65 | 141 | 1.0 | 4.0 | 0.00 | 0.01 | 0.01 | 81 | 1013.9 |
| 20260830205944 | 65 | 141 | 1.0 | 4.0 | 0.00 | 0.01 | 0.01 | 81 | 1013.9 |
| 20260830205940 | 65 | 141 | 1.0 | 4.0 | 0.00 | 0.01 | 0.01 | 81 | 1013.9 |
| 20260830205714 | 65 | 141 | 1.0 | 4.0 | 0.00 | 0.01 | 0.01 | 81 | 1013.9 |
| 20260830205614 | 65 | 141 | 1.0 | 4.0 | 0.00 | 0.01 | 0.01 | 81 | 1013.9 |
| 20260830205512 | 65 | 141 | 1.0 | 4.0 | 0.00 | 0.01 | 0.01 | 81 | 1013.9 |
| 20260830205411 | 65 | 141 | 1.0 | 4.0 | 0.00 | 0.01 | 0.01 | 81 | 1013.9 |
| 20260830205310 | 65 | 142 | 1.0 | 4.0 | 0.00 | 0.01 | 0.01 | 81 | 1013.9 |
| 20260830205209 | 65 | 142 | 1.0 | 3.0 | 0.00 | 0.01 | 0.01 | 81 | 1013.9 |
| 20260830205108 | 65 | 142 | 1.0 | 3.0 | 0.00 | 0.01 | 0.01 | 80 | 1013.9 |
| 20260830205006 | 65 | 142 | 1.0 | 3.0 | 0.00 | 0.01 | 0.01 | 80 | 1014.1 |
| 20260830204906 | 65 | 142 | 0.0 | 3.0 | 0.00 | 0.01 | 0.01 | 81 | 1014.1 |
| 20260830204807 | 65 | 142 | 0.0 | 2.0 | 0.00 | 0.01 | 0.01 | 81 | 1014.1 |
| 20260830204706 | 65 | 142 | 0.0 | 2.0 | 0.00 | 0.01 | 0.01 | 81 | 1014.1 |
| 20260830204606 | 65 | 142 | 0.0 | 2.0 | 0.00 | 0.01 | 0.01 | 81 | 1014.1 |
| 20260830204505 | 65 | 142 | 0.0 | 2.0 | 0.00 | 0.01 | 0.01 | 81 | 1014.1 |
| 20260830204404 | 65 | 142 | 0.0 | 2.0 | 0.00 | 0.01 | 0.01 | 81 | 1014.1 |
| 20260830204304 | 65 | 142 | 0.0 | 2.0 | 0.00 | 0.01 | 0.01 | 81 | 1014.1 |
| 20260830204204 | 65 | 142 | 0.0 | 2.0 | 0.00 | 0.01 | 0.01 | 80 | 1014.1 |
| 20260830204104 | 65 | 142 | 0.0 | 2.0 | 0.00 | 0.01 | 0.01 | 80 | 1013.9 |
| 20260830204003 | 65 | 142 | 0.0 | 2.0 | 0.00 | 0.01 | 0.01 | 80 | 1014.1 |
| 20260830203902 | 65 | 142 | 0.0 | 2.0 | 0.00 | 0.01 | 0.01 | 80 | 1014.1 |
| 20260830203801 | 65 | 142 | 0.0 | 2.0 | 0.00 | 0.01 | 0.01 | 80 | 1014.1 |
| 20260830203702 | 65 | 142 | 0.0 | 2.0 | 0.00 | 0.01 | 0.01 | 80 | 1014.1 |
| 20260830203602 | 65 | 142 | 0.0 | 2.0 | 0.00 | 0.01 | 0.01 | 80 | 1014.1 |
| 20260830203501 | 65 | 142 | 0.0 | 2.0 | 0.00 | 0.01 | 0.01 | 80 | 1014.1 |
| 20260830203401 | 65 | 142 | 0.0 | 2.0 | 0.00 | 0.01 | 0.01 | 80 | 1014.1 |
| 20260830203302 | 65 | 142 | 0.0 | 2.0 | 0.00 | 0.01 | 0.01 | 79 | 1014.1 |
| 20260830203201 | 65 | 142 | 0.0 | 2.0 | 0.00 | 0.01 | 0.01 | 79 | 1014.1 |
| 20260830203101 | 65 | 142 | 0.0 | 2.0 | 0.00 | 0.01 | 0.01 | 79 | 1014.1 |
| 20260830203002 | 65 | 142 | 0.0 | 2.0 | 0.00 | 0.01 | 0.01 | 79 | 1014.1 |
| 20260830202901 | 66 | 142 | 0.0 | 1.0 | 0.00 | 0.01 | 0.01 | 79 | 1014.1 |
| 20260830202801 | 66 | 142 | 0.0 | 3.0 | 0.00 | 0.01 | 0.01 | 79 | 1014.2 |
| 20260830202729 | 66 | 142 | 0.0 | 3.0 | 0.00 | 0.01 | 0.01 | 79 | 1014.2 |
| 20260830202701 | 66 | 142 | 1.0 | 3.0 | 0.00 | 0.01 | 0.01 | 79 | 1014.2 |
| 20260830202601 | 66 | 142 | 1.0 | 5.0 | 0.00 | 0.01 | 0.01 | 79 | 1014.1 |
| 20260830202501 | 66 | 142 | 1.0 | 5.0 | 0.00 | 0.01 | 0.01 | 79 | 1014.1 |
| 20260830202404 | 66 | 142 | 1.0 | 5.0 | 0.00 | 0.01 | 0.01 | 79 | 1014.1 |
| 20260830202301 | 66 | 142 | 1.0 | 5.0 | 0.00 | 0.01 | 0.01 | 79 | 1014.1 |
| 20260830202201 | 66 | 142 | 1.0 | 5.0 | 0.00 | 0.01 | 0.01 | 78 | 1014.1 |
| 20260830202101 | 66 | 142 | 1.0 | 5.0 | 0.00 | 0.01 | 0.01 | 78 | 1014.1 |
| 20260830202006 | 66 | 142 | 1.0 | 5.0 | 0.00 | 0.01 | 0.01 | 79 | 1013.9 |
| 20260830201901 | 66 | 142 | 1.0 | 5.0 | 0.00 | 0.01 | 0.01 | 79 | 1013.9 |
| 20260830201801 | 66 | 142 | 1.0 | 5.0 | 0.00 | 0.01 | 0.01 | 79 | 1013.9 |
| 20260830201728 | 66 | 142 | 1.0 | 5.0 | 0.00 | 0.01 | 0.01 | 79 | 1013.9 |
| 20260830201701 | 66 | 144 | 1.0 | 5.0 | 0.00 | 0.01 | 0.01 | 79 | 1013.9 |
| 20260830201600 | 66 | 198 | 1.0 | 2.0 | 0.00 | 0.01 | 0.01 | 79 | 1014.1 |
| 20260830201504 | 66 | 201 | 1.0 | 2.0 | 0.00 | 0.01 | 0.01 | 79 | 1014.1 |
| 20260830201400 | 66 | 201 | 1.0 | 2.0 | 0.00 | 0.01 | 0.01 | 79 | 1014.1 |
| 20260830201229 | 66 | 263 | 1.0 | 2.0 | 0.00 | 0.01 | 0.01 | 79 | 1013.9 |
| 20260830201158 | 66 | 263 | 1.0 | 2.0 | 0.00 | 0.01 | 0.01 | 79 | 1013.9 |
| 20260830201056 | 66 | 263 | 1.0 | 2.0 | 0.00 | 0.01 | 0.01 | 78 | 1014.1 |
| 20260830200958 | 66 | 263 | 1.0 | 2.0 | 0.00 | 0.01 | 0.01 | 78 | 1013.9 |
| 20260830200852 | 66 | 263 | 0.0 | 2.0 | 0.00 | 0.01 | 0.01 | 78 | 1013.9 |
| 20260830200752 | 66 | 266 | 0.0 | 2.0 | 0.00 | 0.01 | 0.01 | 78 | 1013.9 |
| 20260830200730 | 66 | 267 | 0.0 | 2.0 | 0.00 | 0.01 | 0.01 | 78 | 1013.9 |
| 20260830200652 | 66 | 267 | 0.0 | 2.0 | 0.00 | 0.01 | 0.01 | 78 | 1013.9 |
| 20260830200552 | 66 | 267 | 0.0 | 2.0 | 0.00 | 0.01 | 0.01 | 78 | 1014.1 |
| 20260830200455 | 67 | 267 | 0.0 | 2.0 | 0.00 | 0.01 | 0.01 | 78 | 1014.1 |
| 20260830200443 | 67 | 267 | 0.0 | 1.0 | 0.00 | 0.01 | 0.01 | 77 | 1014.1 |
| 20260830200439 | 67 | 267 | 0.0 | 2.0 | 0.00 | 0.01 | 0.01 | 77 | 1014.1 |
| 20260830200431 | 67 | 267 | 0.0 | 1.0 | 0.00 | 0.01 | 0.01 | 78 | 1014.1 |
| 20260830200211 | 67 | 267 | 0.0 | 1.0 | 0.00 | 0.01 | 0.01 | 77 | 1014.1 |
| 20260830200207 | 67 | 267 | 0.0 | 1.0 | 0.00 | 0.01 | 0.01 | 77 | 1013.9 |
| 20260830195952 | 67 | 267 | 0.0 | 1.0 | 0.00 | 0.01 | 0.01 | 77 | 1014.1 |
| 20260830195944 | 67 | 267 | 0.0 | 1.0 | 0.00 | 0.01 | 0.01 | 77 | 1014.1 |
| 20260830195940 | 67 | 267 | 0.0 | 1.0 | 0.00 | 0.01 | 0.01 | 77 | 1014.1 |
| 20260830195644 | 67 | 267 | 0.0 | 1.0 | 0.00 | 0.01 | 0.01 | 76 | 1014.1 |
| 20260830195542 | 67 | 267 | 0.0 | 1.0 | 0.00 | 0.01 | 0.01 | 76 | 1014.1 |
| 20260830195442 | 67 | 267 | 0.0 | 1.0 | 0.00 | 0.01 | 0.01 | 76 | 1014.2 |
| 20260830195340 | 67 | 267 | 0.0 | 1.0 | 0.00 | 0.01 | 0.01 | 76 | 1014.1 |
| 20260830195228 | 67 | 267 | 0.0 | 1.0 | 0.00 | 0.01 | 0.01 | 76 | 1014.2 |
| 20260830195138 | 67 | 267 | 0.0 | 2.0 | 0.00 | 0.01 | 0.01 | 76 | 1014.2 |
| 20260830195035 | 67 | 267 | 1.0 | 3.0 | 0.00 | 0.01 | 0.01 | 76 | 1014.1 |
| 20260830194936 | 67 | 267 | 1.0 | 3.0 | 0.00 | 0.01 | 0.01 | 76 | 1014.2 |
| 20260830194836 | 67 | 267 | 1.0 | 3.0 | 0.00 | 0.01 | 0.01 | 76 | 1014.2 |
| 20260830194728 | 67 | 267 | 1.0 | 3.0 | 0.00 | 0.01 | 0.01 | 76 | 1014.2 |
| 20260830194635 | 67 | 267 | 1.0 | 3.0 | 0.00 | 0.01 | 0.01 | 76 | 1014.2 |
| 20260830194534 | 67 | 267 | 1.0 | 3.0 | 0.00 | 0.01 | 0.01 | 76 | 1014.2 |
| 20260830194434 | 67 | 267 | 1.0 | 3.0 | 0.00 | 0.01 | 0.01 | 76 | 1014.2 |
| 20260830194331 | 67 | 267 | 1.0 | 3.0 | 0.00 | 0.01 | 0.01 | 76 | 1014.3 |
| 20260830194228 | 67 | 267 | 1.0 | 3.0 | 0.00 | 0.01 | 0.01 | 75 | 1014.2 |
| 20260830194130 | 67 | 267 | 1.0 | 3.0 | 0.00 | 0.01 | 0.01 | 75 | 1014.3 |
| 20260830194029 | 67 | 267 | 1.0 | 3.0 | 0.00 | 0.01 | 0.01 | 75 | 1014.3 |
| 20260830193929 | 67 | 279 | 0.0 | 2.0 | 0.00 | 0.01 | 0.01 | 75 | 1014.2 |
| 20260830193829 | 67 | 279 | 1.0 | 2.0 | 0.00 | 0.01 | 0.01 | 75 | 1014.2 |
| 20260830193729 | 68 | 279 | 1.0 | 2.0 | 0.00 | 0.01 | 0.01 | 75 | 1014.2 |
| 20260830193629 | 68 | 279 | 0.0 | 2.0 | 0.00 | 0.01 | 0.01 | 75 | 1014.2 |
| 20260830193529 | 68 | 279 | 0.0 | 2.0 | 0.00 | 0.01 | 0.01 | 75 | 1014.2 |
| 20260830193449 | 68 | 279 | 0.0 | 1.0 | 0.00 | 0.01 | 0.01 | 75 | 1014.2 |
| 20260830193445 | 68 | 279 | 0.0 | 1.0 | 0.00 | 0.01 | 0.01 | 75 | 1014.2 |
| 20260830193441 | 68 | 279 | 0.0 | 1.0 | 0.00 | 0.01 | 0.01 | 75 | 1014.2 |
| 20260830193124 | 68 | 279 | 0.0 | 2.0 | 0.00 | 0.01 | 0.01 | 74 | 1014.2 |
| 20260830193024 | 68 | 279 | 0.0 | 2.0 | 0.00 | 0.01 | 0.01 | 74 | 1014.1 |
| 20260830192923 | 68 | 279 | 0.0 | 2.0 | 0.00 | 0.01 | 0.01 | 74 | 1014.1 |
| 20260830192824 | 68 | 279 | 0.0 | 2.0 | 0.00 | 0.01 | 0.01 | 74 | 1014.1 |
| 20260830192723 | 68 | 279 | 1.0 | 2.0 | 0.00 | 0.01 | 0.01 | 74 | 1014.2 |
| 20260830192619 | 68 | 279 | 1.0 | 4.0 | 0.00 | 0.01 | 0.01 | 74 | 1014.2 |
| 20260830192518 | 68 | 279 | 1.0 | 4.0 | 0.00 | 0.01 | 0.01 | 74 | 1014.2 |
| 20260830192418 | 68 | 279 | 1.0 | 4.0 | 0.00 | 0.01 | 0.01 | 74 | 1014.3 |
| 20260830192318 | 68 | 279 | 1.0 | 4.0 | 0.00 | 0.01 | 0.01 | 73 | 1014.3 |
| 20260830192218 | 68 | 279 | 1.0 | 4.0 | 0.00 | 0.01 | 0.01 | 73 | 1014.3 |
| 20260830192113 | 68 | 279 | 1.0 | 4.0 | 0.00 | 0.01 | 0.01 | 73 | 1014.2 |
| 20260830192014 | 68 | 279 | 1.0 | 4.0 | 0.00 | 0.01 | 0.01 | 73 | 1014.2 |
| 20260830191914 | 68 | 279 | 1.0 | 4.0 | 0.00 | 0.01 | 0.01 | 72 | 1014.2 |
| 20260830191814 | 69 | 279 | 1.0 | 4.0 | 0.00 | 0.01 | 0.01 | 72 | 1014.2 |
| 20260830191711 | 69 | 279 | 1.0 | 4.0 | 0.00 | 0.01 | 0.01 | 72 | 1014.2 |
| 20260830191608 | 69 | 273 | 0.0 | 4.0 | 0.00 | 0.01 | 0.01 | 72 | 1014.2 |
| 20260830191506 | 69 | 273 | 0.0 | 4.0 | 0.00 | 0.01 | 0.01 | 73 | 1014.2 |
| 20260830191406 | 69 | 261 | 0.0 | 2.0 | 0.00 | 0.01 | 0.01 | 73 | 1014.1 |
| 20260830191306 | 69 | 261 | 0.0 | 0.0 | 0.00 | 0.01 | 0.01 | 72 | 1014.1 |
| 20260830191205 | 69 | 261 | 0.0 | 0.0 | 0.00 | 0.01 | 0.01 | 72 | 1014.1 |
| 20260830191101 | 69 | 261 | 0.0 | 0.0 | 0.00 | 0.01 | 0.01 | 72 | 1014.1 |
| 20260830191001 | 69 | 261 | 0.0 | 0.0 | 0.00 | 0.01 | 0.01 | 72 | 1014.1 |
| 20260830190934 | 69 | 261 | 0.0 | 1.0 | 0.00 | 0.01 | 0.01 | 71 | 1014.1 |
| 20260830190925 | 69 | 261 | 0.0 | 0.0 | 0.00 | 0.01 | 0.01 | 71 | 1013.9 |
| 20260830190921 | 69 | 261 | 0.0 | 0.0 | 0.00 | 0.01 | 0.01 | 71 | 1014.1 |
| 20260830190702 | 69 | 261 | 0.0 | 1.0 | 0.00 | 0.01 | 0.01 | 71 | 1014.1 |
| 20260830190602 | 69 | 261 | 0.0 | 1.0 | 0.00 | 0.01 | 0.01 | 71 | 1014.1 |
| 20260830190501 | 69 | 261 | 0.0 | 1.0 | 0.00 | 0.01 | 0.01 | 71 | 1014.1 |
| 20260830190401 | 69 | 261 | 0.0 | 1.0 | 0.00 | 0.01 | 0.01 | 71 | 1014.1 |
| 20260830190301 | 69 | 261 | 0.0 | 1.0 | 0.00 | 0.01 | 0.01 | 71 | 1014.1 |
| 20260830190201 | 70 | 261 | 0.0 | 1.0 | 0.00 | 0.01 | 0.01 | 71 | 1014.1 |
| 20260830190001 | 70 | 261 | 0.0 | 1.0 | 0.00 | 0.01 | 0.01 | 70 | 1014.1 |
| 20260830185901 | 70 | 261 | 0.0 | 1.0 | 0.00 | 0.01 | 0.01 | 70 | 1014.1 |
| 20260830185801 | 70 | 261 | 0.0 | 1.0 | 0.00 | 0.01 | 0.01 | 69 | 1014.1 |
| 20260830185700 | 70 | 261 | 0.0 | 1.0 | 0.00 | 0.01 | 0.01 | 70 | 1014.1 |
| 20260830185601 | 70 | 261 | 0.0 | 1.0 | 0.00 | 0.01 | 0.01 | 70 | 1014.1 |
| 20260830185501 | 70 | 261 | 0.0 | 1.0 | 0.00 | 0.01 | 0.01 | 69 | 1014.1 |
| 20260830185401 | 70 | 261 | 0.0 | 1.0 | 0.00 | 0.01 | 0.01 | 69 | 1014.1 |
| 20260830185301 | 70 | 261 | 0.0 | 1.0 | 0.00 | 0.01 | 0.01 | 69 | 1014.1 |
| 20260830185201 | 70 | 261 | 0.0 | 1.0 | 0.00 | 0.01 | 0.01 | 69 | 1014.1 |
| 20260830185101 | 71 | 261 | 0.0 | 1.0 | 0.00 | 0.01 | 0.01 | 69 | 1014.1 |
| 20260830185002 | 71 | 261 | 0.0 | 1.0 | 0.00 | 0.01 | 0.01 | 69 | 1014.1 |
| 20260830184901 | 71 | 261 | 0.0 | 1.0 | 0.00 | 0.01 | 0.01 | 69 | 1014.1 |
| 20260830184801 | 71 | 261 | 0.0 | 1.0 | 0.00 | 0.01 | 0.01 | 69 | 1014.1 |
| 20260830184700 | 71 | 261 | 0.0 | 1.0 | 0.00 | 0.01 | 0.01 | 69 | 1014.1 |
| 20260830184600 | 71 | 261 | 0.0 | 1.0 | 0.00 | 0.01 | 0.01 | 68 | 1014.1 |
| 20260830184500 | 71 | 261 | 0.0 | 1.0 | 0.00 | 0.01 | 0.01 | 68 | 1014.1 |
| 20260830184401 | 71 | 261 | 0.0 | 1.0 | 0.00 | 0.01 | 0.01 | 68 | 1014.1 |
| 20260830184300 | 71 | 261 | 0.0 | 0.0 | 0.00 | 0.01 | 0.01 | 68 | 1014.1 |
| 20260830184200 | 71 | 261 | 0.0 | 0.0 | 0.00 | 0.01 | 0.01 | 68 | 1014.1 |
| 20260830184101 | 71 | 261 | 0.0 | 0.0 | 0.00 | 0.01 | 0.01 | 68 | 1014.1 |
| 20260830184001 | 72 | 261 | 0.0 | 1.0 | 0.00 | 0.01 | 0.01 | 67 | 1014.1 |
| 20260830183902 | 72 | 261 | 0.0 | 1.0 | 0.00 | 0.01 | 0.01 | 67 | 1013.9 |
| 20260830183802 | 72 | 261 | 0.0 | 1.0 | 0.00 | 0.01 | 0.01 | 67 | 1013.9 |
| 20260830183701 | 72 | 261 | 0.0 | 1.0 | 0.00 | 0.01 | 0.01 | 67 | 1013.9 |
| 20260830183601 | 72 | 261 | 0.0 | 1.0 | 0.00 | 0.01 | 0.01 | 67 | 1013.9 |
| 20260830183501 | 72 | 261 | 0.0 | 1.0 | 0.00 | 0.01 | 0.01 | 67 | 1013.8 |
| 20260830183429 | 72 | 261 | 0.0 | 1.0 | 0.00 | 0.01 | 0.01 | 66 | 1013.8 |
| 20260830183420 | 72 | 261 | 0.0 | 1.0 | 0.00 | 0.01 | 0.01 | 67 | 1013.9 |
| 20260830183416 | 72 | 261 | 0.0 | 1.0 | 0.00 | 0.01 | 0.01 | 66 | 1013.9 |
| 20260830183156 | 72 | 261 | 0.0 | 1.0 | 0.00 | 0.01 | 0.01 | 66 | 1013.8 |
| 20260830183054 | 72 | 261 | 0.0 | 1.0 | 0.00 | 0.01 | 0.01 | 66 | 1013.8 |
| 20260830182954 | 73 | 261 | 0.0 | 1.0 | 0.00 | 0.01 | 0.01 | 65 | 1013.8 |
| 20260830182853 | 73 | 261 | 0.0 | 1.0 | 0.00 | 0.01 | 0.01 | 65 | 1013.8 |
| 20260830182753 | 73 | 261 | 0.0 | 1.0 | 0.00 | 0.01 | 0.01 | 64 | 1013.8 |
| 20260830182702 | 73 | 261 | 0.0 | 1.0 | 0.00 | 0.01 | 0.01 | 63 | 1013.8 |
| 20260830182654 | 73 | 261 | 0.0 | 1.0 | 0.00 | 0.01 | 0.01 | 63 | 1013.8 |
| 20260830182553 | 73 | 261 | 0.0 | 1.0 | 0.00 | 0.01 | 0.01 | 63 | 1013.7 |
| 20260830182452 | 73 | 261 | 0.0 | 1.0 | 0.00 | 0.01 | 0.01 | 63 | 1013.7 |
| 20260830182350 | 73 | 261 | 0.0 | 1.0 | 0.00 | 0.01 | 0.01 | 63 | 1013.7 |
| 20260830182248 | 73 | 261 | 0.0 | 1.0 | 0.00 | 0.01 | 0.01 | 63 | 1013.7 |
| 20260830182202 | 73 | 261 | 0.0 | 1.0 | 0.00 | 0.01 | 0.01 | 63 | 1013.7 |
| 20260830182158 | 74 | 261 | 1.0 | 2.0 | 0.00 | 0.01 | 0.01 | 62 | 1013.7 |
| 20260830182152 | 73 | 261 | 0.0 | 1.0 | 0.00 | 0.01 | 0.01 | 63 | 1013.7 |
| 20260830182148 | 73 | 261 | 0.0 | 2.0 | 0.00 | 0.01 | 0.01 | 62 | 1013.7 |
| 20260830182144 | 73 | 261 | 0.0 | 2.0 | 0.00 | 0.01 | 0.01 | 62 | 1013.7 |
| 20260830181917 | 73 | 261 | 0.0 | 2.0 | 0.00 | 0.01 | 0.01 | 62 | 1013.7 |
| 20260830181913 | 74 | 261 | 1.0 | 2.0 | 0.00 | 0.01 | 0.01 | 62 | 1013.7 |
| 20260830181643 | 74 | 261 | 1.0 | 2.0 | 0.00 | 0.01 | 0.01 | 62 | 1013.7 |
| 20260830181543 | 74 | 261 | 1.0 | 2.0 | 0.00 | 0.01 | 0.01 | 62 | 1013.7 |
| 20260830181443 | 74 | 261 | 1.0 | 2.0 | 0.00 | 0.01 | 0.01 | 62 | 1013.7 |
| 20260830181342 | 74 | 261 | 1.0 | 2.0 | 0.00 | 0.01 | 0.01 | 62 | 1013.7 |
| 20260830181242 | 74 | 261 | 1.0 | 2.0 | 0.00 | 0.01 | 0.01 | 61 | 1013.7 |
| 20260830181202 | 74 | 261 | 1.0 | 2.0 | 0.00 | 0.01 | 0.01 | 61 | 1013.7 |
| 20260830181139 | 74 | 261 | 1.0 | 2.0 | 0.00 | 0.01 | 0.01 | 61 | 1013.7 |
| 20260830181038 | 74 | 261 | 1.0 | 2.0 | 0.00 | 0.01 | 0.01 | 61 | 1013.7 |
| 20260830180938 | 74 | 261 | 1.0 | 2.0 | 0.00 | 0.01 | 0.01 | 61 | 1013.7 |
| 20260830180837 | 74 | 261 | 1.0 | 2.0 | 0.00 | 0.01 | 0.01 | 61 | 1013.7 |
| 20260830180738 | 74 | 261 | 1.0 | 2.0 | 0.00 | 0.01 | 0.01 | 61 | 1013.6 |
| 20260830180701 | 74 | 261 | 1.0 | 2.0 | 0.00 | 0.01 | 0.01 | 61 | 1013.7 |
| 20260830180638 | 74 | 261 | 1.0 | 2.0 | 0.00 | 0.01 | 0.01 | 61 | 1013.7 |
| 20260830180536 | 74 | 261 | 1.0 | 2.0 | 0.00 | 0.01 | 0.01 | 61 | 1013.7 |
| 20260830180436 | 74 | 261 | 1.0 | 2.0 | 0.00 | 0.01 | 0.01 | 61 | 1013.7 |
| 20260830180333 | 74 | 261 | 1.0 | 2.0 | 0.00 | 0.01 | 0.01 | 60 | 1013.7 |
| 20260830180233 | 74 | 261 | 1.0 | 2.0 | 0.00 | 0.01 | 0.01 | 60 | 1013.7 |
| 20260830180200 | 74 | 261 | 1.0 | 2.0 | 0.00 | 0.01 | 0.01 | 60 | 1013.7 |
| 20260830180134 | 74 | 261 | 1.0 | 2.0 | 0.00 | 0.01 | 0.01 | 60 | 1013.7 |
| 20260830180034 | 74 | 261 | 1.0 | 3.0 | 0.00 | 0.01 | 0.01 | 60 | 1013.7 |
| 20260830175934 | 74 | 261 | 1.0 | 3.0 | 0.00 | 0.01 | 0.01 | 60 | 1013.7 |
| 20260830175833 | 74 | 261 | 1.0 | 3.0 | 0.00 | 0.01 | 0.01 | 60 | 1013.7 |
| 20260830175733 | 74 | 261 | 1.0 | 3.0 | 0.00 | 0.01 | 0.01 | 60 | 1013.7 |
| 20260830175700 | 74 | 261 | 1.0 | 3.0 | 0.00 | 0.01 | 0.01 | 59 | 1013.7 |
| 20260830175634 | 74 | 261 | 1.0 | 3.0 | 0.00 | 0.01 | 0.01 | 59 | 1013.7 |
| 20260830175534 | 75 | 261 | 1.0 | 3.0 | 0.00 | 0.01 | 0.01 | 60 | 1013.7 |
| 20260830175434 | 75 | 261 | 1.0 | 3.0 | 0.00 | 0.01 | 0.01 | 60 | 1013.7 |
| 20260830175332 | 75 | 261 | 1.0 | 3.0 | 0.00 | 0.01 | 0.01 | 59 | 1013.6 |
| 20260830175232 | 75 | 261 | 1.0 | 3.0 | 0.00 | 0.01 | 0.01 | 59 | 1013.7 |
| 20260830175200 | 75 | 261 | 2.0 | 3.0 | 0.00 | 0.01 | 0.01 | 60 | 1013.7 |
| 20260830175132 | 75 | 261 | 2.0 | 3.0 | 0.00 | 0.01 | 0.01 | 60 | 1013.7 |
| 20260830175032 | 75 | 261 | 2.0 | 3.0 | 0.00 | 0.01 | 0.01 | 59 | 1013.7 |
| 20260830174932 | 75 | 261 | 2.0 | 3.0 | 0.00 | 0.01 | 0.01 | 59 | 1013.7 |
| 20260830174830 | 75 | 261 | 2.0 | 4.0 | 0.00 | 0.01 | 0.01 | 59 | 1013.6 |
| 20260830174701 | 75 | 261 | 2.0 | 4.0 | 0.00 | 0.01 | 0.01 | 59 | 1013.6 |
| 20260830174629 | 75 | 261 | 2.0 | 4.0 | 0.00 | 0.01 | 0.01 | 59 | 1013.6 |
| 20260830174530 | 75 | 261 | 2.0 | 4.0 | 0.00 | 0.01 | 0.01 | 59 | 1013.6 |
| 20260830174431 | 75 | 262 | 2.0 | 4.0 | 0.00 | 0.01 | 0.01 | 59 | 1013.6 |
| 20260830174427 | 75 | 262 | 2.0 | 4.0 | 0.00 | 0.01 | 0.01 | 59 | 1013.5 |
| 20260830174417 | 75 | 261 | 2.0 | 4.0 | 0.00 | 0.01 | 0.01 | 59 | 1013.6 |
| 20260830174413 | 75 | 262 | 2.0 | 4.0 | 0.00 | 0.01 | 0.01 | 59 | 1013.6 |
| 20260830174130 | 75 | 262 | 2.0 | 4.0 | 0.00 | 0.01 | 0.01 | 58 | 1013.5 |
| 20260830174029 | 75 | 262 | 2.0 | 4.0 | 0.00 | 0.01 | 0.01 | 58 | 1013.6 |
| 20260830173931 | 75 | 262 | 2.0 | 4.0 | 0.00 | 0.01 | 0.01 | 59 | 1013.6 |
| 20260830173916 | 75 | 263 | 2.0 | 4.0 | 0.00 | 0.01 | 0.01 | 58 | 1013.6 |
| 20260830173912 | 75 | 263 | 2.0 | 4.0 | 0.00 | 0.01 | 0.01 | 58 | 1013.6 |
| 20260830173626 | 76 | 263 | 2.0 | 4.0 | 0.00 | 0.01 | 0.01 | 58 | 1013.6 |
| 20260830173526 | 76 | 263 | 2.0 | 6.0 | 0.00 | 0.01 | 0.01 | 58 | 1013.6 |
| 20260830173425 | 76 | 263 | 2.0 | 7.0 | 0.00 | 0.01 | 0.01 | 57 | 1013.6 |
| 20260830173326 | 76 | 263 | 3.0 | 7.0 | 0.00 | 0.01 | 0.01 | 57 | 1013.6 |
| 20260830173226 | 76 | 263 | 3.0 | 7.0 | 0.00 | 0.01 | 0.01 | 57 | 1013.6 |
| 20260830173201 | 76 | 264 | 3.0 | 7.0 | 0.00 | 0.01 | 0.01 | 57 | 1013.5 |
| 20260830173125 | 76 | 264 | 3.0 | 7.0 | 0.00 | 0.01 | 0.01 | 57 | 1013.5 |
| 20260830173023 | 76 | 264 | 3.0 | 7.0 | 0.00 | 0.01 | 0.01 | 57 | 1013.5 |
| 20260830172924 | 76 | 264 | 4.0 | 7.0 | 0.00 | 0.01 | 0.01 | 56 | 1013.5 |
| 20260830172823 | 76 | 265 | 4.0 | 7.0 | 0.00 | 0.01 | 0.01 | 56 | 1013.5 |
| 20260830172701 | 76 | 265 | 4.0 | 8.0 | 0.00 | 0.01 | 0.01 | 57 | 1013.5 |
| 20260830172621 | 76 | 256 | 4.0 | 8.0 | 0.00 | 0.01 | 0.01 | 57 | 1013.5 |
| 20260830172522 | 76 | 293 | 4.0 | 8.0 | 0.00 | 0.01 | 0.01 | 56 | 1013.5 |
| 20260830172422 | 76 | 246 | 4.0 | 8.0 | 0.00 | 0.01 | 0.01 | 56 | 1013.5 |
| 20260830172322 | 76 | 269 | 3.0 | 8.0 | 0.00 | 0.01 | 0.01 | 57 | 1013.5 |
| 20260830172222 | 76 | 279 | 3.0 | 8.0 | 0.00 | 0.01 | 0.01 | 57 | 1013.5 |
| 20260830172200 | 76 | 275 | 3.0 | 8.0 | 0.00 | 0.01 | 0.01 | 57 | 1013.5 |
| 20260830172120 | 76 | 261 | 3.0 | 8.0 | 0.00 | 0.01 | 0.01 | 56 | 1013.5 |
| 20260830172019 | 76 | 262 | 3.0 | 8.0 | 0.00 | 0.01 | 0.01 | 56 | 1013.6 |
| 20260830171921 | 76 | 253 | 3.0 | 8.0 | 0.00 | 0.01 | 0.01 | 56 | 1013.6 |
| 20260830171819 | 76 | 261 | 3.0 | 8.0 | 0.00 | 0.01 | 0.01 | 57 | 1013.6 |
| 20260830171719 | 76 | 238 | 3.0 | 6.0 | 0.00 | 0.01 | 0.01 | 57 | 1013.5 |
| 20260830171701 | 76 | 265 | 3.0 | 6.0 | 0.00 | 0.01 | 0.01 | 57 | 1013.5 |
| 20260830171619 | 76 | 267 | 3.0 | 6.0 | 0.00 | 0.01 | 0.01 | 56 | 1013.5 |
| 20260830171513 | 76 | 275 | 2.0 | 6.0 | 0.00 | 0.01 | 0.01 | 56 | 1013.6 |
| 20260830171413 | 76 | 218 | 3.0 | 5.0 | 0.00 | 0.01 | 0.01 | 56 | 1013.6 |
| 20260830171313 | 76 | 243 | 3.0 | 7.0 | 0.00 | 0.01 | 0.01 | 56 | 1013.6 |
| 20260830171213 | 76 | 243 | 3.0 | 7.0 | 0.00 | 0.01 | 0.01 | 57 | 1013.5 |
| 20260830171201 | 77 | 243 | 3.0 | 7.0 | 0.00 | 0.01 | 0.01 | 56 | 1013.5 |
| 20260830171113 | 77 | 243 | 3.0 | 7.0 | 0.00 | 0.01 | 0.01 | 56 | 1013.5 |
| 20260830171014 | 77 | 244 | 3.0 | 7.0 | 0.00 | 0.01 | 0.01 | 55 | 1013.5 |
| 20260830170914 | 77 | 246 | 3.0 | 7.0 | 0.00 | 0.01 | 0.01 | 56 | 1013.5 |
| 20260830170812 | 77 | 245 | 3.0 | 8.0 | 0.00 | 0.01 | 0.01 | 56 | 1013.5 |
| 20260830170712 | 77 | 230 | 3.0 | 8.0 | 0.00 | 0.01 | 0.01 | 56 | 1013.5 |
| 20260830170701 | 77 | 231 | 3.0 | 8.0 | 0.00 | 0.01 | 0.01 | 56 | 1013.5 |
| 20260830170612 | 77 | 252 | 3.0 | 8.0 | 0.00 | 0.01 | 0.01 | 56 | 1013.5 |
| 20260830170512 | 77 | 254 | 4.0 | 8.0 | 0.00 | 0.01 | 0.01 | 56 | 1013.5 |
| 20260830170412 | 77 | 257 | 4.0 | 8.0 | 0.00 | 0.01 | 0.01 | 56 | 1013.5 |
| 20260830170312 | 77 | 280 | 4.0 | 10.0 | 0.00 | 0.01 | 0.01 | 55 | 1013.5 |
| 20260830170210 | 77 | 244 | 4.0 | 10.0 | 0.00 | 0.01 | 0.01 | 55 | 1013.5 |
| 20260830170201 | 77 | 216 | 4.0 | 10.0 | 0.00 | 0.01 | 0.01 | 55 | 1013.5 |
| 20260830170110 | 77 | 215 | 4.0 | 10.0 | 0.00 | 0.01 | 0.01 | 55 | 1013.5 |
| 20260830170009 | 77 | 215 | 4.0 | 10.0 | 0.00 | 0.01 | 0.01 | 54 | 1013.5 |
| 20260830165909 | 77 | 250 | 4.0 | 10.0 | 0.00 | 0.01 | 0.01 | 54 | 1013.5 |
| 20260830165810 | 77 | 267 | 4.0 | 10.0 | 0.00 | 0.01 | 0.01 | 55 | 1013.5 |
| 20260830165710 | 77 | 264 | 4.0 | 10.0 | 0.00 | 0.01 | 0.01 | 55 | 1013.5 |
| 20260830165701 | 77 | 266 | 4.0 | 10.0 | 0.00 | 0.01 | 0.01 | 55 | 1013.5 |
| 20260830165610 | 77 | 240 | 4.0 | 10.0 | 0.00 | 0.01 | 0.01 | 54 | 1013.5 |
| 20260830165510 | 77 | 266 | 4.0 | 10.0 | 0.00 | 0.01 | 0.01 | 54 | 1013.5 |
| 20260830165410 | 77 | 198 | 4.0 | 10.0 | 0.00 | 0.01 | 0.01 | 55 | 1013.5 |
| 20260830165310 | 77 | 225 | 4.0 | 7.0 | 0.00 | 0.01 | 0.01 | 55 | 1013.5 |
| 20260830165210 | 77 | 221 | 4.0 | 8.0 | 0.00 | 0.01 | 0.01 | 54 | 1013.4 |
| 20260830165201 | 77 | 205 | 4.0 | 8.0 | 0.00 | 0.01 | 0.01 | 54 | 1013.4 |
| 20260830165109 | 77 | 214 | 4.0 | 8.0 | 0.00 | 0.01 | 0.01 | 55 | 1013.4 |
| 20260830165009 | 77 | 213 | 4.0 | 10.0 | 0.00 | 0.01 | 0.01 | 55 | 1013.4 |
| 20260830164909 | 77 | 284 | 4.0 | 10.0 | 0.00 | 0.01 | 0.01 | 55 | 1013.4 |
| 20260830164809 | 77 | 242 | 5.0 | 10.0 | 0.00 | 0.01 | 0.01 | 55 | 1013.4 |
| 20260830164710 | 77 | 256 | 5.0 | 10.0 | 0.00 | 0.01 | 0.01 | 55 | 1013.4 |
| 20260830164700 | 77 | 258 | 5.0 | 10.0 | 0.00 | 0.01 | 0.01 | 55 | 1013.4 |
| 20260830164605 | 77 | 260 | 5.0 | 11.0 | 0.00 | 0.01 | 0.01 | 54 | 1013.4 |
| 20260830164506 | 77 | 250 | 5.0 | 11.0 | 0.00 | 0.01 | 0.01 | 55 | 1013.5 |
| 20260830164406 | 77 | 213 | 5.0 | 11.0 | 0.00 | 0.01 | 0.01 | 55 | 1013.5 |
| 20260830164305 | 77 | 265 | 5.0 | 11.0 | 0.00 | 0.01 | 0.01 | 55 | 1013.5 |
| 20260830164201 | 77 | 243 | 6.0 | 11.0 | 0.00 | 0.01 | 0.01 | 54 | 1013.4 |
| 20260830164106 | 77 | 202 | 5.0 | 11.0 | 0.00 | 0.01 | 0.01 | 56 | 1013.4 |
| 20260830164006 | 77 | 228 | 5.0 | 11.0 | 0.00 | 0.01 | 0.01 | 56 | 1013.5 |
| 20260830163906 | 77 | 223 | 5.0 | 11.0 | 0.00 | 0.01 | 0.01 | 54 | 1013.5 |
| 20260830163806 | 77 | 229 | 5.0 | 11.0 | 0.00 | 0.01 | 0.01 | 56 | 1013.5 |
| 20260830163701 | 77 | 234 | 5.0 | 11.0 | 0.00 | 0.01 | 0.01 | 56 | 1013.5 |
| 20260830163606 | 77 | 240 | 5.0 | 10.0 | 0.00 | 0.01 | 0.01 | 55 | 1013.5 |
| 20260830163505 | 77 | 254 | 5.0 | 10.0 | 0.00 | 0.01 | 0.01 | 55 | 1013.5 |
| 20260830163405 | 77 | 260 | 5.0 | 10.0 | 0.00 | 0.01 | 0.01 | 56 | 1013.5 |
| 20260830163306 | 77 | 246 | 5.0 | 10.0 | 0.00 | 0.01 | 0.01 | 55 | 1013.4 |
| 20260830163200 | 77 | 271 | 5.0 | 10.0 | 0.00 | 0.01 | 0.01 | 55 | 1013.5 |
| 20260830163105 | 77 | 288 | 5.0 | 10.0 | 0.00 | 0.01 | 0.01 | 54 | 1013.5 |
| 20260830163005 | 77 | 236 | 6.0 | 10.0 | 0.00 | 0.01 | 0.01 | 54 | 1013.5 |
| 20260830162905 | 77 | 263 | 6.0 | 11.0 | 0.00 | 0.01 | 0.01 | 54 | 1013.5 |
| 20260830162805 | 77 | 286 | 6.0 | 11.0 | 0.00 | 0.01 | 0.01 | 54 | 1013.5 |
| 20260830162701 | 77 | 254 | 6.0 | 11.0 | 0.00 | 0.01 | 0.01 | 54 | 1013.5 |
| 20260830162602 | 77 | 248 | 6.0 | 11.0 | 0.00 | 0.01 | 0.01 | 55 | 1013.5 |
| 20260830162502 | 77 | 259 | 6.0 | 11.0 | 0.00 | 0.01 | 0.01 | 55 | 1013.5 |
| 20260830162402 | 77 | 271 | 7.0 | 11.0 | 0.00 | 0.01 | 0.01 | 55 | 1013.5 |
| 20260830162305 | 77 | 260 | 7.0 | 11.0 | 0.00 | 0.01 | 0.01 | 55 | 1013.5 |
| 20260830162205 | 77 | 271 | 7.0 | 11.0 | 0.00 | 0.01 | 0.01 | 54 | 1013.5 |
| 20260830162201 | 77 | 286 | 7.0 | 11.0 | 0.00 | 0.01 | 0.01 | 54 | 1013.5 |
| 20260830162102 | 77 | 266 | 7.0 | 12.0 | 0.00 | 0.01 | 0.01 | 54 | 1013.5 |
| 20260830162002 | 77 | 264 | 7.0 | 12.0 | 0.00 | 0.01 | 0.01 | 54 | 1013.5 |
| 20260830161901 | 77 | 281 | 7.0 | 12.0 | 0.00 | 0.01 | 0.01 | 54 | 1013.5 |
| 20260830161802 | 77 | 288 | 7.0 | 12.0 | 0.00 | 0.01 | 0.01 | 54 | 1013.5 |
| 20260830161705 | 77 | 288 | 7.0 | 12.0 | 0.00 | 0.01 | 0.01 | 54 | 1013.5 |
| 20260830161701 | 77 | 287 | 7.0 | 12.0 | 0.00 | 0.01 | 0.01 | 54 | 1013.5 |
| 20260830161653 | 77 | 291 | 7.0 | 12.0 | 0.00 | 0.01 | 0.01 | 54 | 1013.5 |
| 20260830161644 | 77 | 247 | 6.0 | 12.0 | 0.00 | 0.01 | 0.01 | 54 | 1013.5 |
| 20260830161640 | 77 | 276 | 6.0 | 12.0 | 0.00 | 0.01 | 0.01 | 54 | 1013.5 |
| 20260830161425 | 77 | 261 | 6.0 | 12.0 | 0.00 | 0.01 | 0.01 | 54 | 1013.5 |
| 20260830161417 | 77 | 278 | 7.0 | 12.0 | 0.00 | 0.01 | 0.01 | 54 | 1013.5 |
| 20260830161413 | 77 | 291 | 7.0 | 12.0 | 0.00 | 0.01 | 0.01 | 54 | 1013.5 |
| 20260830161101 | 77 | 270 | 6.0 | 12.0 | 0.00 | 0.01 | 0.01 | 54 | 1013.5 |
| 20260830161001 | 77 | 240 | 6.0 | 12.0 | 0.00 | 0.01 | 0.01 | 54 | 1013.5 |
| 20260830160901 | 77 | 286 | 6.0 | 12.0 | 0.00 | 0.01 | 0.01 | 55 | 1013.5 |
| 20260830160805 | 77 | 242 | 7.0 | 12.0 | 0.00 | 0.01 | 0.01 | 55 | 1013.5 |
| 20260830160701 | 77 | 286 | 6.0 | 12.0 | 0.00 | 0.01 | 0.01 | 54 | 1013.5 |
| 20260830160647 | 77 | 228 | 6.0 | 10.0 | 0.00 | 0.01 | 0.01 | 54 | 1013.5 |
| 20260830160642 | 77 | 211 | 6.0 | 12.0 | 0.00 | 0.01 | 0.01 | 54 | 1013.5 |
| 20260830160638 | 77 | 273 | 6.0 | 12.0 | 0.00 | 0.01 | 0.01 | 55 | 1013.5 |
| 20260830160423 | 77 | 233 | 6.0 | 12.0 | 0.00 | 0.01 | 0.01 | 55 | 1013.5 |
| 20260830160418 | 77 | 296 | 6.0 | 12.0 | 0.00 | 0.01 | 0.01 | 54 | 1013.5 |
| 20260830160411 | 77 | 228 | 6.0 | 10.0 | 0.00 | 0.01 | 0.01 | 54 | 1013.5 |
| 20260830160100 | 77 | 239 | 5.0 | 10.0 | 0.00 | 0.01 | 0.01 | 54 | 1013.5 |
| 20260830160001 | 77 | 277 | 5.0 | 10.0 | 0.00 | 0.01 | 0.01 | 54 | 1013.5 |
| 20260830155901 | 77 | 255 | 5.0 | 11.0 | 0.00 | 0.01 | 0.01 | 54 | 1013.5 |
| 20260830155801 | 77 | 261 | 5.0 | 11.0 | 0.00 | 0.01 | 0.01 | 55 | 1013.5 |
| 20260830155701 | 77 | 232 | 5.0 | 11.0 | 0.00 | 0.01 | 0.01 | 54 | 1013.5 |
| 20260830155601 | 77 | 279 | 5.0 | 11.0 | 0.00 | 0.01 | 0.01 | 55 | 1013.5 |
| 20260830155501 | 78 | 238 | 5.0 | 11.0 | 0.00 | 0.01 | 0.01 | 55 | 1013.5 |
| 20260830155401 | 78 | 268 | 5.0 | 11.0 | 0.00 | 0.01 | 0.01 | 54 | 1013.5 |
| 20260830155301 | 78 | 239 | 4.0 | 11.0 | 0.00 | 0.01 | 0.01 | 54 | 1013.5 |
| 20260830155201 | 78 | 252 | 5.0 | 11.0 | 0.00 | 0.01 | 0.01 | 54 | 1013.5 |
| 20260830155101 | 78 | 257 | 5.0 | 11.0 | 0.00 | 0.01 | 0.01 | 54 | 1013.5 |
| 20260830155001 | 78 | 250 | 5.0 | 11.0 | 0.00 | 0.01 | 0.01 | 55 | 1013.5 |
| 20260830154901 | 78 | 280 | 5.0 | 11.0 | 0.00 | 0.01 | 0.01 | 54 | 1013.5 |
| 20260830154800 | 78 | 242 | 5.0 | 11.0 | 0.00 | 0.01 | 0.01 | 55 | 1013.5 |
| 20260830154701 | 78 | 259 | 5.0 | 11.0 | 0.00 | 0.01 | 0.01 | 55 | 1013.5 |
| 20260830154601 | 78 | 281 | 5.0 | 11.0 | 0.00 | 0.01 | 0.01 | 53 | 1013.5 |
| 20260830154501 | 78 | 239 | 6.0 | 11.0 | 0.00 | 0.01 | 0.01 | 54 | 1013.6 |
| 20260830154401 | 78 | 272 | 6.0 | 11.0 | 0.00 | 0.01 | 0.01 | 54 | 1013.5 |
| 20260830154301 | 78 | 233 | 7.0 | 11.0 | 0.00 | 0.01 | 0.01 | 54 | 1013.5 |
| 20260830154201 | 78 | 229 | 7.0 | 11.0 | 0.00 | 0.01 | 0.01 | 54 | 1013.5 |
| 20260830154101 | 78 | 216 | 6.0 | 11.0 | 0.00 | 0.01 | 0.01 | 53 | 1013.6 |
| 20260830154001 | 78 | 275 | 6.0 | 11.0 | 0.00 | 0.01 | 0.01 | 53 | 1013.6 |
| 20260830153925 | 78 | 248 | 6.0 | 11.0 | 0.00 | 0.01 | 0.01 | 53 | 1013.6 |
| 20260830153921 | 78 | 240 | 6.0 | 10.0 | 0.00 | 0.01 | 0.01 | 53 | 1013.6 |
| 20260830153914 | 78 | 270 | 6.0 | 10.0 | 0.00 | 0.01 | 0.01 | 53 | 1013.6 |
| 20260830153601 | 78 | 252 | 6.0 | 10.0 | 0.00 | 0.01 | 0.01 | 53 | 1013.5 |
| 20260830153501 | 78 | 286 | 5.0 | 10.0 | 0.00 | 0.01 | 0.01 | 53 | 1013.6 |
| 20260830153401 | 78 | 236 | 5.0 | 10.0 | 0.00 | 0.01 | 0.01 | 53 | 1013.6 |
| 20260830153301 | 78 | 263 | 5.0 | 10.0 | 0.00 | 0.01 | 0.01 | 53 | 1013.6 |
| 20260830153201 | 78 | 248 | 5.0 | 10.0 | 0.00 | 0.01 | 0.01 | 54 | 1013.6 |
| 20260830153101 | 78 | 198 | 5.0 | 10.0 | 0.00 | 0.01 | 0.01 | 54 | 1013.6 |
| 20260830153001 | 78 | 272 | 5.0 | 10.0 | 0.00 | 0.01 | 0.01 | 55 | 1013.6 |
| 20260830152901 | 78 | 283 | 6.0 | 12.0 | 0.00 | 0.01 | 0.01 | 54 | 1013.6 |
| 20260830152801 | 78 | 234 | 6.0 | 12.0 | 0.00 | 0.01 | 0.01 | 55 | 1013.6 |
| 20260830152701 | 78 | 260 | 6.0 | 12.0 | 0.00 | 0.01 | 0.01 | 54 | 1013.6 |
| 20260830152601 | 78 | 277 | 6.0 | 12.0 | 0.00 | 0.01 | 0.01 | 53 | 1013.6 |
| 20260830152501 | 78 | 204 | 6.0 | 12.0 | 0.00 | 0.01 | 0.01 | 53 | 1013.6 |
| 20260830152401 | 78 | 200 | 6.0 | 12.0 | 0.00 | 0.01 | 0.01 | 53 | 1013.6 |
| 20260830152301 | 78 | 207 | 6.0 | 15.0 | 0.00 | 0.01 | 0.01 | 53 | 1013.6 |
| 20260830152201 | 78 | 225 | 6.0 | 15.0 | 0.00 | 0.01 | 0.01 | 53 | 1013.7 |
| 20260830152102 | 78 | 263 | 6.0 | 15.0 | 0.00 | 0.01 | 0.01 | 53 | 1013.7 |
| 20260830152001 | 78 | 253 | 6.0 | 15.0 | 0.00 | 0.01 | 0.01 | 53 | 1013.6 |
| 20260830151924 | 78 | 275 | 6.0 | 15.0 | 0.00 | 0.01 | 0.01 | 54 | 1013.6 |
| 20260830151920 | 78 | 286 | 6.0 | 15.0 | 0.00 | 0.01 | 0.01 | 54 | 1013.6 |
| 20260830151911 | 78 | 254 | 6.0 | 15.0 | 0.00 | 0.01 | 0.01 | 54 | 1013.7 |
| 20260830151601 | 78 | 244 | 6.0 | 15.0 | 0.00 | 0.01 | 0.01 | 54 | 1013.6 |
| 20260830151501 | 78 | 251 | 6.0 | 15.0 | 0.00 | 0.01 | 0.01 | 54 | 1013.7 |
| 20260830151424 | 78 | 257 | 6.0 | 15.0 | 0.00 | 0.01 | 0.01 | 53 | 1013.7 |
| 20260830151420 | 78 | 285 | 6.0 | 14.0 | 0.00 | 0.01 | 0.01 | 53 | 1013.7 |
| 20260830151412 | 78 | 244 | 6.0 | 10.0 | 0.00 | 0.01 | 0.01 | 53 | 1013.6 |
| 20260830151147 | 78 | 261 | 6.0 | 10.0 | 0.00 | 0.01 | 0.01 | 54 | 1013.7 |
| 20260830151143 | 78 | 246 | 6.0 | 10.0 | 0.00 | 0.01 | 0.01 | 53 | 1013.6 |
| 20260830151139 | 78 | 208 | 6.0 | 10.0 | 0.00 | 0.01 | 0.01 | 53 | 1013.6 |
| 20260830150923 | 78 | 246 | 6.0 | 10.0 | 0.00 | 0.01 | 0.01 | 53 | 1013.6 |
| 20260830150919 | 78 | 271 | 6.0 | 10.0 | 0.00 | 0.01 | 0.01 | 53 | 1013.6 |
| 20260830150912 | 78 | 261 | 6.0 | 10.0 | 0.00 | 0.01 | 0.01 | 54 | 1013.7 |
| 20260830150601 | 78 | 209 | 6.0 | 10.0 | 0.00 | 0.01 | 0.01 | 53 | 1013.6 |
| 20260830150501 | 78 | 262 | 6.0 | 10.0 | 0.00 | 0.01 | 0.01 | 53 | 1013.6 |
| 20260830150424 | 78 | 256 | 6.0 | 10.0 | 0.00 | 0.01 | 0.01 | 53 | 1013.6 |
| 20260830150420 | 78 | 263 | 5.0 | 10.0 | 0.00 | 0.01 | 0.01 | 54 | 1013.7 |
| 20260830150412 | 79 | 271 | 5.0 | 10.0 | 0.00 | 0.01 | 0.01 | 54 | 1013.6 |
| 20260830150100 | 79 | 227 | 5.0 | 10.0 | 0.00 | 0.01 | 0.01 | 53 | 1013.7 |
| 20260830150001 | 79 | 260 | 5.0 | 10.0 | 0.00 | 0.01 | 0.01 | 54 | 1013.7 |
| 20260830145901 | 79 | 246 | 5.0 | 10.0 | 0.00 | 0.01 | 0.01 | 53 | 1013.7 |
| 20260830145801 | 79 | 273 | 5.0 | 9.0 | 0.00 | 0.01 | 0.01 | 53 | 1013.7 |
| 20260830145701 | 79 | 254 | 5.0 | 9.0 | 0.00 | 0.01 | 0.01 | 53 | 1013.7 |
| 20260830145601 | 79 | 229 | 5.0 | 9.0 | 0.00 | 0.01 | 0.01 | 54 | 1013.7 |
| 20260830145501 | 79 | 224 | 5.0 | 9.0 | 0.00 | 0.01 | 0.01 | 53 | 1013.6 |
| 20260830145424 | 79 | 275 | 5.0 | 10.0 | 0.00 | 0.01 | 0.01 | 53 | 1013.6 |
| 20260830145420 | 79 | 265 | 6.0 | 10.0 | 0.00 | 0.01 | 0.01 | 52 | 1013.6 |
| 20260830145412 | 79 | 249 | 6.0 | 10.0 | 0.00 | 0.01 | 0.01 | 53 | 1013.6 |
| 20260830145100 | 79 | 267 | 6.0 | 10.0 | 0.00 | 0.01 | 0.01 | 53 | 1013.6 |
| 20260830145000 | 79 | 275 | 6.0 | 10.0 | 0.00 | 0.01 | 0.01 | 53 | 1013.6 |
| 20260830144923 | 79 | 255 | 6.0 | 10.0 | 0.00 | 0.01 | 0.01 | 52 | 1013.6 |
| 20260830144919 | 79 | 290 | 6.0 | 10.0 | 0.00 | 0.01 | 0.01 | 53 | 1013.6 |
| 20260830144911 | 79 | 246 | 6.0 | 10.0 | 0.00 | 0.01 | 0.01 | 52 | 1013.6 |
| 20260830144602 | 79 | 294 | 6.0 | 10.0 | 0.00 | 0.01 | 0.01 | 52 | 1013.6 |
| 20260830144502 | 79 | 238 | 6.0 | 10.0 | 0.00 | 0.01 | 0.01 | 52 | 1013.7 |
| 20260830144402 | 79 | 271 | 6.0 | 10.0 | 0.00 | 0.01 | 0.01 | 53 | 1013.6 |
| 20260830144301 | 79 | 273 | 5.0 | 10.0 | 0.00 | 0.01 | 0.01 | 53 | 1013.7 |
| 20260830144201 | 79 | 256 | 6.0 | 9.0 | 0.00 | 0.01 | 0.01 | 52 | 1013.7 |
| 20260830144101 | 79 | 252 | 5.0 | 9.0 | 0.00 | 0.01 | 0.01 | 52 | 1013.7 |
| 20260830144003 | 79 | 217 | 5.0 | 9.0 | 0.00 | 0.01 | 0.01 | 52 | 1013.7 |
| 20260830143901 | 79 | 244 | 6.0 | 9.0 | 0.00 | 0.01 | 0.01 | 51 | 1013.7 |
| 20260830143801 | 80 | 237 | 6.0 | 11.0 | 0.00 | 0.01 | 0.01 | 52 | 1013.7 |
| 20260830143701 | 80 | 263 | 6.0 | 11.0 | 0.00 | 0.01 | 0.01 | 51 | 1013.6 |
| 20260830143651 | 80 | 309 | 6.0 | 11.0 | 0.00 | 0.01 | 0.01 | 51 | 1013.6 |
| 20260830143644 | 80 | 270 | 6.0 | 11.0 | 0.00 | 0.01 | 0.01 | 51 | 1013.6 |
| 20260830143640 | 80 | 275 | 6.0 | 11.0 | 0.00 | 0.01 | 0.01 | 51 | 1013.6 |
| 20260830143424 | 80 | 254 | 6.0 | 11.0 | 0.00 | 0.01 | 0.01 | 52 | 1013.6 |
| 20260830143420 | 80 | 302 | 6.0 | 11.0 | 0.00 | 0.01 | 0.01 | 51 | 1013.7 |
| 20260830143412 | 80 | 309 | 6.0 | 11.0 | 0.00 | 0.01 | 0.01 | 51 | 1013.6 |
| 20260830143101 | 80 | 251 | 7.0 | 12.0 | 0.00 | 0.01 | 0.01 | 50 | 1013.6 |
| 20260830143001 | 80 | 257 | 7.0 | 12.0 | 0.00 | 0.01 | 0.01 | 50 | 1013.7 |
| 20260830142901 | 80 | 257 | 7.0 | 12.0 | 0.00 | 0.01 | 0.01 | 51 | 1013.7 |
| 20260830142800 | 80 | 269 | 7.0 | 12.0 | 0.00 | 0.01 | 0.01 | 51 | 1013.7 |
| 20260830142701 | 80 | 323 | 6.0 | 12.0 | 0.00 | 0.01 | 0.01 | 51 | 1013.7 |
| 20260830142601 | 80 | 288 | 6.0 | 12.0 | 0.00 | 0.01 | 0.01 | 51 | 1013.7 |
| 20260830142501 | 80 | 294 | 6.0 | 12.0 | 0.00 | 0.01 | 0.01 | 50 | 1013.7 |
| 20260830142424 | 80 | 239 | 6.0 | 12.0 | 0.00 | 0.01 | 0.01 | 50 | 1013.7 |
| 20260830142420 | 80 | 282 | 5.0 | 12.0 | 0.00 | 0.01 | 0.01 | 51 | 1013.7 |
| 20260830142412 | 80 | 246 | 5.0 | 12.0 | 0.00 | 0.01 | 0.01 | 51 | 1013.7 |
| 20260830142100 | 80 | 277 | 4.0 | 12.0 | 0.00 | 0.01 | 0.01 | 52 | 1013.7 |
| 20260830141959 | 80 | 231 | 4.0 | 12.0 | 0.00 | 0.01 | 0.01 | 52 | 1013.7 |
| 20260830141859 | 80 | 272 | 4.0 | 12.0 | 0.00 | 0.01 | 0.01 | 53 | 1013.7 |
| 20260830141759 | 80 | 309 | 5.0 | 12.0 | 0.00 | 0.01 | 0.01 | 54 | 1013.7 |
| 20260830141703 | 80 | 328 | 5.0 | 12.0 | 0.00 | 0.01 | 0.01 | 53 | 1013.7 |
| 20260830141659 | 80 | 329 | 5.0 | 12.0 | 0.00 | 0.01 | 0.01 | 53 | 1013.7 |
| 20260830141559 | 80 | 285 | 5.0 | 12.0 | 0.00 | 0.01 | 0.01 | 52 | 1013.7 |
| 20260830141457 | 80 | 257 | 6.0 | 12.0 | 0.00 | 0.01 | 0.01 | 53 | 1013.8 |
| 20260830141358 | 80 | 265 | 6.0 | 12.0 | 0.00 | 0.01 | 0.01 | 52 | 1013.8 |
| 20260830141257 | 80 | 291 | 6.0 | 12.0 | 0.00 | 0.01 | 0.01 | 51 | 1013.8 |
| 20260830141201 | 80 | 277 | 7.0 | 12.0 | 0.00 | 0.01 | 0.01 | 51 | 1013.8 |
| 20260830141154 | 80 | 277 | 7.0 | 12.0 | 0.00 | 0.01 | 0.01 | 51 | 1013.8 |
| 20260830141053 | 80 | 284 | 7.0 | 12.0 | 0.00 | 0.01 | 0.01 | 52 | 1013.8 |
| 20260830140947 | 80 | 268 | 7.0 | 11.0 | 0.00 | 0.01 | 0.01 | 51 | 1013.8 |
| 20260830140847 | 80 | 277 | 7.0 | 11.0 | 0.00 | 0.01 | 0.01 | 52 | 1013.8 |
| 20260830140748 | 80 | 254 | 7.0 | 11.0 | 0.00 | 0.01 | 0.01 | 51 | 1013.8 |
| 20260830140701 | 80 | 263 | 6.0 | 11.0 | 0.00 | 0.01 | 0.01 | 51 | 1013.7 |
| 20260830140647 | 80 | 247 | 6.0 | 11.0 | 0.00 | 0.01 | 0.01 | 51 | 1013.7 |
| 20260830140546 | 80 | 284 | 6.0 | 11.0 | 0.00 | 0.01 | 0.01 | 51 | 1013.8 |
| 20260830140441 | 80 | 261 | 6.0 | 11.0 | 0.00 | 0.01 | 0.01 | 51 | 1013.8 |
| 20260830140341 | 80 | 265 | 6.0 | 11.0 | 0.00 | 0.01 | 0.01 | 51 | 1013.8 |
| 20260830140241 | 80 | 255 | 6.0 | 11.0 | 0.00 | 0.01 | 0.01 | 51 | 1013.8 |
| 20260830140200 | 80 | 248 | 5.0 | 11.0 | 0.00 | 0.01 | 0.01 | 51 | 1013.8 |
| 20260830140146 | 80 | 297 | 5.0 | 11.0 | 0.00 | 0.01 | 0.01 | 50 | 1013.9 |
| 20260830140142 | 80 | 257 | 5.0 | 11.0 | 0.00 | 0.01 | 0.01 | 51 | 1013.8 |
| 20260830140138 | 80 | 245 | 4.0 | 9.0 | 0.00 | 0.01 | 0.01 | 51 | 1013.9 |
| 20260830140134 | 80 | 275 | 5.0 | 11.0 | 0.00 | 0.01 | 0.01 | 50 | 1013.8 |
| 20260830140130 | 80 | 252 | 4.0 | 11.0 | 0.00 | 0.01 | 0.01 | 49 | 1013.8 |
| 20260830140126 | 80 | 246 | 4.0 | 9.0 | 0.00 | 0.01 | 0.01 | 50 | 1013.8 |
| 20260830140122 | 80 | 242 | 4.0 | 9.0 | 0.00 | 0.01 | 0.01 | 50 | 1013.8 |
| 20260830135649 | 80 | 245 | 4.0 | 9.0 | 0.00 | 0.01 | 0.01 | 51 | 1013.9 |
| 20260830135645 | 80 | 262 | 4.0 | 9.0 | 0.00 | 0.01 | 0.01 | 51 | 1013.8 |
| 20260830135641 | 80 | 250 | 4.0 | 9.0 | 0.00 | 0.01 | 0.01 | 52 | 1013.9 |
| 20260830135420 | 80 | 250 | 4.0 | 10.0 | 0.00 | 0.01 | 0.01 | 52 | 1013.8 |
| 20260830135416 | 80 | 263 | 4.0 | 11.0 | 0.00 | 0.01 | 0.01 | 53 | 1013.9 |
| 20260830135134 | 80 | 309 | 5.0 | 11.0 | 0.00 | 0.01 | 0.01 | 50 | 1013.9 |
| 20260830135033 | 80 | 309 | 6.0 | 14.0 | 0.00 | 0.01 | 0.01 | 51 | 1013.9 |
| 20260830134933 | 80 | 309 | 6.0 | 14.0 | 0.00 | 0.01 | 0.01 | 51 | 1013.9 |
| 20260830134829 | 80 | 267 | 7.0 | 14.0 | 0.00 | 0.01 | 0.01 | 51 | 1013.8 |
| 20260830134729 | 80 | 266 | 7.0 | 14.0 | 0.00 | 0.01 | 0.01 | 52 | 1013.9 |
| 20260830134705 | 80 | 269 | 8.0 | 14.0 | 0.00 | 0.01 | 0.01 | 50 | 1013.9 |
| 20260830134629 | 80 | 270 | 8.0 | 14.0 | 0.00 | 0.01 | 0.01 | 50 | 1013.9 |
| 20260830134529 | 80 | 274 | 8.0 | 14.0 | 0.00 | 0.01 | 0.01 | 50 | 1013.9 |
| 20260830134429 | 81 | 264 | 8.0 | 14.0 | 0.00 | 0.01 | 0.01 | 50 | 1013.9 |
| 20260830134330 | 81 | 272 | 8.0 | 14.0 | 0.00 | 0.01 | 0.01 | 51 | 1013.9 |
| 20260830134230 | 81 | 255 | 8.0 | 14.0 | 0.00 | 0.01 | 0.01 | 50 | 1013.9 |
| 20260830134202 | 81 | 269 | 8.0 | 14.0 | 0.00 | 0.01 | 0.01 | 50 | 1013.9 |
| 20260830134131 | 81 | 294 | 8.0 | 14.0 | 0.00 | 0.01 | 0.01 | 50 | 1013.9 |
| 20260830134029 | 81 | 270 | 7.0 | 14.0 | 0.00 | 0.01 | 0.01 | 51 | 1013.9 |
| 20260830133929 | 81 | 276 | 7.0 | 14.0 | 0.00 | 0.01 | 0.01 | 49 | 1013.8 |
| 20260830133829 | 81 | 308 | 7.0 | 14.0 | 0.00 | 0.01 | 0.01 | 51 | 1013.8 |
| 20260830133729 | 81 | 335 | 6.0 | 14.0 | 0.00 | 0.01 | 0.01 | 50 | 1013.8 |
| 20260830133701 | 81 | 266 | 6.0 | 14.0 | 0.00 | 0.01 | 0.01 | 50 | 1013.9 |
| 20260830133629 | 81 | 270 | 6.0 | 14.0 | 0.00 | 0.01 | 0.01 | 51 | 1013.9 |
| 20260830133529 | 81 | 275 | 5.0 | 14.0 | 0.00 | 0.01 | 0.01 | 50 | 1013.8 |
| 20260830133429 | 81 | 297 | 6.0 | 14.0 | 0.00 | 0.01 | 0.01 | 51 | 1013.8 |
| 20260830133422 | 81 | 234 | 5.0 | 9.0 | 0.00 | 0.01 | 0.01 | 52 | 1013.9 |
| 20260830133416 | 81 | 294 | 5.0 | 9.0 | 0.00 | 0.01 | 0.01 | 52 | 1013.9 |
| 20260830133412 | 81 | 318 | 5.0 | 9.0 | 0.00 | 0.01 | 0.01 | 52 | 1013.9 |
| 20260830133129 | 81 | 261 | 5.0 | 9.0 | 0.00 | 0.01 | 0.01 | 53 | 1013.9 |
| 20260830133029 | 81 | 314 | 5.0 | 9.0 | 0.00 | 0.01 | 0.01 | 52 | 1013.9 |
| 20260830132929 | 81 | 290 | 5.0 | 9.0 | 0.00 | 0.01 | 0.01 | 52 | 1013.9 |
| 20260830132829 | 81 | 288 | 5.0 | 11.0 | 0.00 | 0.01 | 0.01 | 52 | 1013.9 |
| 20260830132729 | 81 | 308 | 5.0 | 12.0 | 0.00 | 0.01 | 0.01 | 52 | 1013.9 |
| 20260830132701 | 81 | 295 | 6.0 | 12.0 | 0.00 | 0.01 | 0.01 | 51 | 1014.1 |
| 20260830132655 | 81 | 234 | 6.0 | 12.0 | 0.00 | 0.01 | 0.01 | 51 | 1014.1 |
| 20260830132645 | 81 | 240 | 6.0 | 12.0 | 0.00 | 0.01 | 0.01 | 51 | 1014.1 |
| 20260830132641 | 81 | 268 | 6.0 | 12.0 | 0.00 | 0.01 | 0.01 | 52 | 1014.1 |
| 20260830132637 | 81 | 256 | 5.0 | 12.0 | 0.00 | 0.01 | 0.01 | 50 | 1014.1 |
| 20260830132416 | 81 | 210 | 5.0 | 12.0 | 0.00 | 0.01 | 0.01 | 52 | 1013.9 |
| 20260830132412 | 81 | 220 | 5.0 | 12.0 | 0.00 | 0.01 | 0.01 | 52 | 1013.9 |
| 20260830132128 | 81 | 261 | 6.0 | 12.0 | 0.00 | 0.01 | 0.01 | 52 | 1014.1 |
| 20260830132029 | 81 | 240 | 6.0 | 12.0 | 0.00 | 0.01 | 0.01 | 52 | 1014.1 |
| 20260830131929 | 81 | 227 | 6.0 | 12.0 | 0.00 | 0.01 | 0.01 | 52 | 1014.1 |
| 20260830131829 | 81 | 267 | 6.0 | 12.0 | 0.00 | 0.01 | 0.01 | 52 | 1014.1 |
| 20260830131729 | 81 | 245 | 6.0 | 12.0 | 0.00 | 0.01 | 0.01 | 53 | 1014.2 |
| 20260830131701 | 80 | 285 | 6.0 | 12.0 | 0.00 | 0.01 | 0.01 | 53 | 1014.1 |
| 20260830131629 | 80 | 290 | 6.0 | 12.0 | 0.00 | 0.01 | 0.01 | 53 | 1014.1 |
| 20260830131529 | 80 | 313 | 6.0 | 12.0 | 0.00 | 0.01 | 0.01 | 52 | 1014.1 |
| 20260830131429 | 80 | 312 | 6.0 | 12.0 | 0.00 | 0.01 | 0.01 | 52 | 1014.1 |
| 20260830131329 | 80 | 270 | 6.0 | 12.0 | 0.00 | 0.01 | 0.01 | 52 | 1014.1 |
| 20260830131245 | 80 | 322 | 6.0 | 12.0 | 0.00 | 0.01 | 0.01 | 51 | 1014.2 |
| 20260830131241 | 80 | 273 | 5.0 | 12.0 | 0.00 | 0.01 | 0.01 | 52 | 1014.1 |
| 20260830131232 | 80 | 298 | 5.0 | 12.0 | 0.00 | 0.01 | 0.01 | 52 | 1014.1 |
| 20260830131030 | 80 | 320 | 5.0 | 12.0 | 0.00 | 0.01 | 0.01 | 52 | 1014.2 |
| 20260830130929 | 80 | 273 | 5.0 | 12.0 | 0.00 | 0.01 | 0.01 | 53 | 1014.1 |
| 20260830130829 | 80 | 296 | 5.0 | 12.0 | 0.00 | 0.01 | 0.01 | 53 | 1014.1 |
| 20260830130729 | 80 | 254 | 4.0 | 10.0 | 0.00 | 0.01 | 0.01 | 53 | 1014.1 |
| 20260830130701 | 80 | 298 | 4.0 | 10.0 | 0.00 | 0.01 | 0.01 | 53 | 1014.1 |
| 20260830130629 | 80 | 301 | 4.0 | 10.0 | 0.00 | 0.01 | 0.01 | 54 | 1014.1 |
| 20260830130529 | 80 | 299 | 5.0 | 9.0 | 0.00 | 0.01 | 0.01 | 53 | 1014.1 |
| 20260830130429 | 80 | 267 | 5.0 | 11.0 | 0.00 | 0.01 | 0.01 | 54 | 1014.2 |
| 20260830130416 | 80 | 306 | 6.0 | 11.0 | 0.00 | 0.01 | 0.01 | 52 | 1014.2 |
| 20260830130412 | 80 | 294 | 6.0 | 12.0 | 0.00 | 0.01 | 0.01 | 53 | 1014.2 |
| 20260830130129 | 79 | 294 | 6.0 | 12.0 | 0.00 | 0.01 | 0.01 | 52 | 1014.2 |
| 20260830130029 | 79 | 307 | 6.0 | 12.0 | 0.00 | 0.01 | 0.01 | 53 | 1014.2 |
| 20260830125929 | 79 | 275 | 6.0 | 12.0 | 0.00 | 0.01 | 0.01 | 54 | 1014.3 |
| 20260830125829 | 79 | 294 | 6.0 | 12.0 | 0.00 | 0.01 | 0.01 | 54 | 1014.2 |
| 20260830125729 | 79 | 270 | 6.0 | 12.0 | 0.00 | 0.01 | 0.01 | 53 | 1014.3 |
| 20260830125701 | 79 | 316 | 6.0 | 12.0 | 0.00 | 0.01 | 0.01 | 53 | 1014.3 |
| 20260830125628 | 79 | 271 | 6.0 | 12.0 | 0.00 | 0.01 | 0.01 | 53 | 1014.3 |
| 20260830125528 | 79 | 320 | 6.0 | 12.0 | 0.00 | 0.01 | 0.01 | 53 | 1014.3 |
| 20260830125428 | 79 | 283 | 6.0 | 12.0 | 0.00 | 0.01 | 0.01 | 54 | 1014.3 |
| 20260830125421 | 79 | 262 | 5.0 | 10.0 | 0.00 | 0.01 | 0.01 | 52 | 1014.3 |
| 20260830125417 | 79 | 299 | 5.0 | 12.0 | 0.00 | 0.01 | 0.01 | 53 | 1014.3 |
| 20260830125412 | 79 | 293 | 6.0 | 10.0 | 0.00 | 0.01 | 0.01 | 53 | 1014.3 |
| 20260830125128 | 79 | 296 | 5.0 | 10.0 | 0.00 | 0.01 | 0.01 | 52 | 1014.3 |
| 20260830125029 | 79 | 304 | 5.0 | 10.0 | 0.00 | 0.01 | 0.01 | 53 | 1014.3 |
| 20260830124929 | 79 | 281 | 5.0 | 10.0 | 0.00 | 0.01 | 0.01 | 53 | 1014.3 |
| 20260830124829 | 79 | 321 | 6.0 | 12.0 | 0.00 | 0.01 | 0.01 | 53 | 1014.3 |
| 20260830124729 | 79 | 309 | 6.0 | 12.0 | 0.00 | 0.01 | 0.01 | 53 | 1014.3 |
| 20260830124701 | 79 | 311 | 6.0 | 12.0 | 0.00 | 0.01 | 0.01 | 53 | 1014.3 |
| 20260830124627 | 79 | 316 | 6.0 | 12.0 | 0.00 | 0.01 | 0.01 | 53 | 1014.3 |
| 20260830124527 | 79 | 281 | 6.0 | 12.0 | 0.00 | 0.01 | 0.01 | 53 | 1014.3 |
| 20260830124427 | 79 | 241 | 6.0 | 12.0 | 0.00 | 0.01 | 0.01 | 53 | 1014.3 |
| 20260830124327 | 79 | 257 | 6.0 | 12.0 | 0.00 | 0.01 | 0.01 | 52 | 1014.3 |
| 20260830124227 | 79 | 243 | 6.0 | 12.0 | 0.00 | 0.01 | 0.01 | 52 | 1014.3 |
| 20260830124201 | 79 | 242 | 6.0 | 12.0 | 0.00 | 0.01 | 0.01 | 52 | 1014.3 |
| 20260830124121 | 79 | 270 | 6.0 | 12.0 | 0.00 | 0.01 | 0.01 | 52 | 1014.4 |
| 20260830124021 | 79 | 261 | 6.0 | 12.0 | 0.00 | 0.01 | 0.01 | 52 | 1014.3 |
| 20260830123921 | 79 | 257 | 6.0 | 12.0 | 0.00 | 0.01 | 0.01 | 54 | 1014.4 |
| 20260830123821 | 79 | 255 | 6.0 | 12.0 | 0.00 | 0.01 | 0.01 | 53 | 1014.3 |
| 20260830123721 | 79 | 223 | 6.0 | 12.0 | 0.00 | 0.01 | 0.01 | 54 | 1014.4 |
| 20260830123701 | 79 | 254 | 6.0 | 12.0 | 0.00 | 0.01 | 0.01 | 54 | 1014.4 |
| 20260830123615 | 79 | 264 | 6.0 | 14.0 | 0.00 | 0.01 | 0.01 | 54 | 1014.4 |
| 20260830123515 | 79 | 248 | 7.0 | 14.0 | 0.00 | 0.01 | 0.01 | 53 | 1014.3 |
| 20260830123426 | 79 | 263 | 6.0 | 14.0 | 0.00 | 0.01 | 0.01 | 54 | 1014.4 |
| 20260830123420 | 79 | 294 | 6.0 | 14.0 | 0.00 | 0.01 | 0.01 | 54 | 1014.3 |
| 20260830123416 | 79 | 321 | 6.0 | 14.0 | 0.00 | 0.01 | 0.01 | 54 | 1014.3 |
| 20260830123411 | 79 | 267 | 6.0 | 14.0 | 0.00 | 0.01 | 0.01 | 54 | 1014.4 |
| 20260830123111 | 79 | 259 | 7.0 | 14.0 | 0.00 | 0.01 | 0.01 | 54 | 1014.4 |
| 20260830123012 | 79 | 260 | 7.0 | 14.0 | 0.00 | 0.01 | 0.01 | 53 | 1014.4 |
| 20260830122911 | 79 | 275 | 7.0 | 14.0 | 0.00 | 0.01 | 0.01 | 54 | 1014.4 |
| 20260830122811 | 79 | 313 | 7.0 | 14.0 | 0.00 | 0.01 | 0.01 | 54 | 1014.4 |
| 20260830122708 | 79 | 311 | 7.0 | 14.0 | 0.00 | 0.01 | 0.01 | 53 | 1014.4 |
| 20260830122701 | 79 | 285 | 7.0 | 14.0 | 0.00 | 0.01 | 0.01 | 53 | 1014.4 |
| 20260830122605 | 79 | 322 | 7.0 | 13.0 | 0.00 | 0.01 | 0.01 | 54 | 1014.5 |
| 20260830122503 | 79 | 297 | 7.0 | 13.0 | 0.00 | 0.01 | 0.01 | 53 | 1014.4 |
| 20260830122403 | 79 | 340 | 7.0 | 13.0 | 0.00 | 0.01 | 0.01 | 53 | 1014.4 |
| 20260830122306 | 79 | 321 | 6.0 | 13.0 | 0.00 | 0.01 | 0.01 | 53 | 1014.4 |
| 20260830122205 | 79 | 321 | 6.0 | 13.0 | 0.00 | 0.01 | 0.01 | 54 | 1014.4 |
| 20260830122200 | 79 | 348 | 6.0 | 13.0 | 0.00 | 0.01 | 0.01 | 54 | 1014.4 |
| 20260830122102 | 79 | 302 | 6.0 | 11.0 | 0.00 | 0.01 | 0.01 | 54 | 1014.4 |
| 20260830122001 | 79 | 311 | 6.0 | 11.0 | 0.00 | 0.01 | 0.01 | 53 | 1014.4 |
| 20260830121901 | 79 | 312 | 5.0 | 11.0 | 0.00 | 0.01 | 0.01 | 55 | 1014.4 |
| 20260830121802 | 78 | 266 | 5.0 | 11.0 | 0.00 | 0.01 | 0.01 | 55 | 1014.3 |
| 20260830121701 | 78 | 278 | 6.0 | 11.0 | 0.00 | 0.01 | 0.01 | 56 | 1014.4 |
| 20260830121601 | 78 | 277 | 6.0 | 12.0 | 0.00 | 0.01 | 0.01 | 55 | 1014.4 |
| 20260830121501 | 78 | 269 | 6.0 | 12.0 | 0.00 | 0.01 | 0.01 | 54 | 1014.3 |
| 20260830121401 | 78 | 232 | 6.0 | 12.0 | 0.00 | 0.01 | 0.01 | 56 | 1014.4 |
| 20260830121302 | 78 | 279 | 6.0 | 12.0 | 0.00 | 0.01 | 0.01 | 57 | 1014.4 |
| 20260830121201 | 78 | 306 | 6.0 | 12.0 | 0.00 | 0.01 | 0.01 | 57 | 1014.4 |
| 20260830121101 | 78 | 306 | 7.0 | 12.0 | 0.00 | 0.01 | 0.01 | 56 | 1014.4 |
| 20260830121001 | 78 | 299 | 7.0 | 12.0 | 0.00 | 0.01 | 0.01 | 57 | 1014.4 |
| 20260830120902 | 78 | 300 | 7.0 | 12.0 | 0.00 | 0.01 | 0.01 | 56 | 1014.5 |
| 20260830120801 | 78 | 316 | 7.0 | 12.0 | 0.00 | 0.01 | 0.01 | 55 | 1014.4 |
| 20260830120700 | 78 | 317 | 6.0 | 12.0 | 0.00 | 0.01 | 0.01 | 56 | 1014.4 |
| 20260830120601 | 78 | 281 | 6.0 | 12.0 | 0.00 | 0.01 | 0.01 | 55 | 1014.5 |
| 20260830120501 | 78 | 312 | 7.0 | 12.0 | 0.00 | 0.01 | 0.01 | 54 | 1014.5 |
| 20260830120400 | 78 | 321 | 7.0 | 12.0 | 0.00 | 0.01 | 0.01 | 55 | 1014.5 |
| 20260830120300 | 78 | 307 | 7.0 | 12.0 | 0.00 | 0.01 | 0.01 | 56 | 1014.5 |
| 20260830120200 | 78 | 292 | 6.0 | 12.0 | 0.00 | 0.01 | 0.01 | 55 | 1014.5 |
| 20260830120100 | 78 | 311 | 6.0 | 12.0 | 0.00 | 0.01 | 0.01 | 55 | 1014.5 |
| 20260830120000 | 78 | 300 | 7.0 | 12.0 | 0.00 | 0.01 | 0.01 | 55 | 1014.5 |
| 20260830115900 | 78 | 241 | 7.0 | 13.0 | 0.00 | 0.01 | 0.01 | 55 | 1014.5 |
| 20260830115801 | 78 | 249 | 7.0 | 13.0 | 0.00 | 0.01 | 0.01 | 55 | 1014.5 |
| 20260830115701 | 78 | 278 | 7.0 | 13.0 | 0.00 | 0.01 | 0.01 | 54 | 1014.5 |
| 20260830115652 | 78 | 263 | 6.0 | 13.0 | 0.00 | 0.01 | 0.01 | 54 | 1014.5 |
| 20260830115643 | 78 | 230 | 6.0 | 13.0 | 0.00 | 0.01 | 0.01 | 55 | 1014.5 |
| 20260830115639 | 78 | 269 | 6.0 | 13.0 | 0.00 | 0.01 | 0.01 | 55 | 1014.5 |
| 20260830115421 | 78 | 300 | 6.0 | 13.0 | 0.00 | 0.01 | 0.01 | 55 | 1014.5 |
| 20260830115417 | 78 | 282 | 6.0 | 13.0 | 0.00 | 0.01 | 0.01 | 55 | 1014.5 |
| 20260830115413 | 78 | 263 | 6.0 | 13.0 | 0.00 | 0.01 | 0.01 | 54 | 1014.5 |
| 20260830115101 | 78 | 273 | 6.0 | 13.0 | 0.00 | 0.01 | 0.01 | 54 | 1014.5 |
| 20260830115001 | 78 | 290 | 6.0 | 13.0 | 0.00 | 0.01 | 0.01 | 56 | 1014.5 |
| 20260830114901 | 78 | 288 | 6.0 | 12.0 | 0.00 | 0.01 | 0.01 | 56 | 1014.5 |
| 20260830114801 | 78 | 317 | 6.0 | 12.0 | 0.00 | 0.01 | 0.01 | 56 | 1014.5 |
| 20260830114701 | 78 | 276 | 7.0 | 13.0 | 0.00 | 0.01 | 0.01 | 56 | 1014.5 |
| 20260830114653 | 78 | 306 | 8.0 | 15.0 | 0.00 | 0.01 | 0.01 | 55 | 1014.6 |
| 20260830114645 | 78 | 294 | 7.0 | 15.0 | 0.00 | 0.01 | 0.01 | 55 | 1014.5 |
| 20260830114641 | 78 | 288 | 8.0 | 15.0 | 0.00 | 0.01 | 0.01 | 56 | 1014.5 |
| 20260830114419 | 78 | 288 | 8.0 | 15.0 | 0.00 | 0.01 | 0.01 | 55 | 1014.5 |
| 20260830114415 | 78 | 294 | 8.0 | 15.0 | 0.00 | 0.01 | 0.01 | 54 | 1014.5 |
| 20260830114411 | 78 | 306 | 8.0 | 15.0 | 0.00 | 0.01 | 0.01 | 55 | 1014.6 |
| 20260830114101 | 78 | 275 | 8.0 | 15.0 | 0.00 | 0.01 | 0.01 | 55 | 1014.5 |
| 20260830114001 | 78 | 279 | 8.0 | 15.0 | 0.00 | 0.01 | 0.01 | 54 | 1014.5 |
| 20260830113901 | 78 | 232 | 8.0 | 15.0 | 0.00 | 0.01 | 0.01 | 53 | 1014.5 |
| 20260830113801 | 78 | 245 | 8.0 | 15.0 | 0.00 | 0.01 | 0.01 | 53 | 1014.6 |
| 20260830113700 | 78 | 250 | 7.0 | 15.0 | 0.00 | 0.01 | 0.01 | 54 | 1014.6 |
| 20260830113605 | 78 | 283 | 7.0 | 14.0 | 0.00 | 0.01 | 0.01 | 55 | 1014.5 |
| 20260830113502 | 77 | 238 | 6.0 | 14.0 | 0.00 | 0.01 | 0.01 | 55 | 1014.6 |
| 20260830113401 | 77 | 236 | 6.0 | 14.0 | 0.00 | 0.01 | 0.01 | 54 | 1014.5 |
| 20260830113301 | 77 | 265 | 6.0 | 14.0 | 0.00 | 0.01 | 0.01 | 54 | 1014.6 |
| 20260830113201 | 77 | 303 | 6.0 | 12.0 | 0.00 | 0.01 | 0.01 | 55 | 1014.6 |
| 20260830113102 | 77 | 248 | 6.0 | 12.0 | 0.00 | 0.01 | 0.01 | 55 | 1014.6 |
| 20260830113001 | 77 | 285 | 6.0 | 12.0 | 0.00 | 0.01 | 0.01 | 56 | 1014.6 |
| 20260830112901 | 77 | 215 | 7.0 | 12.0 | 0.00 | 0.01 | 0.01 | 57 | 1014.6 |
| 20260830112801 | 77 | 277 | 7.0 | 12.0 | 0.00 | 0.01 | 0.01 | 58 | 1014.6 |
| 20260830112700 | 77 | 219 | 7.0 | 12.0 | 0.00 | 0.01 | 0.01 | 57 | 1014.6 |
| 20260830112600 | 77 | 258 | 8.0 | 12.0 | 0.00 | 0.01 | 0.01 | 56 | 1014.6 |
| 20260830112501 | 77 | 260 | 8.0 | 12.0 | 0.00 | 0.01 | 0.01 | 56 | 1014.6 |